[[{"header":{"parameterUnit":"m.s-1","parameterCategory":1,"la1":30.6,"la2":29.2853,"lo1":-89.7004,"lo2":-87.6739,"dx":0.0162,"dy":0.0183,"nx":112,"ny":82,"refTime":"2022-12-15T18:00:00:Z","depth":0,"parameterNumber":2,"parameterNumberName":"U-component_of_WINDS"},"data":[0.0,0.0,0.0,0.0,0.0,0.0,0.0,0.0,0.0,0.0,0.0,0.0,0.0,0.0,0.0,0.0,0.0,0.0,0.0,0.0,0.0,0.0,0.0,0.0,0.0,0.0,0.0,0.0,0.0,0.0,0.0,0.0,0.0,0.0,0.0,0.0,0.0,0.0,0.0,0.0,0.0,0.0,0.0,0.0,0.0,0.0,0.0,0.0,0.0,0.0,0.0,0.0,0.0,0.0,0.0,0.0,0.0,0.0,0.0,0.0,0.0,0.0,0.0,0.0,0.0,0.0,0.0,0.0,0.0,0.0,0.0,0.0,0.0,0.0,0.0,0.0,0.0,0.0,0.0,0.0,0.0,0.0,0.0,0.0,0.0,0.0,0.0,0.0,0.0,0.0,0.7713,0.835,0.9182,0.9694,0.9704,0.9556,0.8892,0.7497,0.0,0.0,0.0,0.0,0.0,0.0,0.0,0.0,0.0,0.0,0.0,0.0,0.0,0.0,0.0,0.0,0.0,0.0,0.0,0.0,0.0,0.0,0.0,0.0,0.0,0.0,0.0,0.0,0.0,0.0,0.0,0.0,0.0,0.0,0.0,0.0,0.0,0.0,0.0,0.0,0.0,0.0,0.0,0.0,0.0,0.0,0.0,0.0,0.0,0.0,0.0,0.0,0.0,0.0,0.0,0.0,0.0,0.0,0.0,0.0,0.0,0.0,0.0,0.0,0.0,0.0,0.0,0.0,0.0,0.0,0.0,0.0,0.0,0.0,0.0,0.0,0.0,0.0,0.0,0.0,0.0,0.0,0.0,0.0,0.0,0.0,0.0,0.0,0.0,0.0,0.0,0.0,0.0,0.0,0.0,0.0,0.0,0.0,0.0,0.0,0.0,0.0,0.0,0.0,0.7457,0.8821,0.9942,1.0466,1.0132,0.9939,0.9243,0.7893,0.0,0.0,0.0,0.0,0.0,0.0,0.0,0.0,0.0,0.0,0.0,0.0,0.0,0.0,0.0,0.0,0.0,0.0,0.0,0.0,0.0,0.0,0.0,0.0,0.0,0.0,0.0,0.0,0.0,0.0,0.0,0.0,0.0,0.0,0.0,0.0,0.0,0.0,0.0,0.0,0.0,0.0,0.0,0.0,0.0,0.0,0.0,0.0,0.0,0.0,0.0,0.0,0.0,0.0,0.0,0.0,0.0,0.0,0.0,0.0,0.0,0.0,0.0,0.0,0.0,0.0,0.0,0.0,0.0,0.0,0.0,0.0,0.0,0.0,0.0,0.0,0.0,0.0,0.0,0.0,0.0,0.0,0.0,0.0,0.0,0.0,0.0,0.0,0.0,0.0,0.0,0.0,0.0,0.0,0.0,0.0,0.0,0.0,0.0,0.0,0.0,0.0,0.0,0.8183,0.8894,1.0387,1.0988,1.1204,1.0971,1.0742,0.9893,0.823,0.8085,0.0,0.0,0.0,0.0,0.0,0.0,0.0,0.0,0.0,0.0,0.0,0.0,0.0,0.0,0.0,0.0,0.0,0.0,0.0,0.0,0.0,0.0,0.0,0.0,0.0,0.0,0.0,0.0,0.0,0.0,0.0,0.0,0.0,0.0,0.0,0.0,0.0,0.0,0.0,0.0,0.0,0.0,0.0,0.0,0.0,0.0,0.0,0.0,0.0,0.0,0.0,0.0,0.0,0.0,0.0,0.0,0.0,0.0,0.0,0.0,0.0,0.0,0.0,0.0,0.0,0.0,0.0,0.0,0.0,0.0,0.0,0.0,0.0,0.0,0.0,0.0,0.0,0.0,0.0,0.0,0.0,0.0,0.0,0.0,0.0,0.0,0.0,0.0,0.0,0.0,0.0,0.0,0.0,0.0,0.0,0.0,0.0,0.0,0.0,0.0,0.0,0.0,0.9716,1.0536,1.1694,1.1943,1.1918,1.1703,1.1488,1.0542,0.8615,0.8682,0.0,0.0,0.0,0.0,0.0,0.0,0.0,0.0,0.0,0.0,0.0,0.0,0.0,0.0,0.0,0.0,0.0,0.0,0.0,0.0,0.0,0.0,0.0,0.0,0.0,0.0,0.0,0.0,0.0,0.0,0.0,0.0,0.0,0.0,0.0,0.0,0.0,0.0,0.0,0.0,0.0,0.0,0.0,0.0,0.0,0.0,0.0,0.0,0.0,0.0,0.0,0.0,0.0,0.0,0.0,0.0,0.0,0.0,0.0,0.0,0.0,0.0,0.0,0.0,0.0,0.0,0.0,0.0,0.0,0.0,0.0,0.0,0.0,0.0,0.0,0.0,0.0,0.0,0.0,0.0,0.0,0.0,0.0,0.0,0.0,0.0,0.0,0.0,0.0,0.0,0.0,0.0,0.0,0.0,0.0,0.0,0.0,0.0,0.0,0.0,0.0,0.0,1.0272,1.1567,1.1853,1.2513,1.2659,1.2036,1.1885,1.1045,0.9151,0.9061,0.0,0.0,0.0,0.0,0.0,0.0,0.0,0.0,0.0,0.0,0.0,0.0,0.0,0.0,0.0,0.0,0.0,0.0,0.0,0.0,0.0,0.0,0.0,0.0,0.0,0.0,0.0,0.0,0.0,0.0,0.0,0.0,0.0,0.0,0.0,0.0,0.0,0.0,0.0,0.0,0.0,0.0,0.0,0.0,0.0,0.0,0.0,0.0,0.0,0.0,0.0,0.0,0.0,0.0,0.0,0.0,0.0,0.0,0.0,0.0,0.0,0.0,0.0,0.0,0.0,0.0,0.0,0.0,0.0,0.0,0.0,0.0,0.0,0.0,0.0,0.0,0.0,0.0,0.0,0.0,0.0,0.0,0.0,0.0,0.0,0.0,0.0,0.0,0.0,0.0,0.0,0.0,0.0,0.0,0.0,0.0,0.0,0.0,0.0,0.0,0.0,0.0,1.0462,1.1724,1.3019,1.3621,1.353,1.2508,1.262,1.1682,0.9259,0.0,0.0,0.0,0.0,0.0,0.0,0.0,0.0,0.0,0.0,0.0,0.0,0.0,0.0,0.0,0.0,0.0,0.0,0.0,0.0,0.0,0.0,0.0,0.0,0.0,0.0,0.0,0.0,0.0,0.0,0.0,0.0,0.0,0.0,0.0,0.0,0.0,0.0,0.0,0.0,0.0,0.0,0.0,0.0,0.0,0.0,0.0,0.0,0.0,0.0,0.0,0.0,0.0,0.0,0.0,0.0,0.0,0.0,0.0,0.0,0.0,0.0,0.0,0.0,0.0,0.0,0.0,0.0,0.0,0.0,0.0,0.0,0.0,0.0,0.0,0.0,0.0,0.0,0.0,0.0,0.0,0.0,0.0,0.0,0.0,0.0,0.0,0.0,0.0,0.0,0.0,0.0,0.0,0.0,0.0,0.0,0.0,0.0,0.0,0.0,0.0,0.0,0.978,1.0899,1.2157,1.3729,1.4374,1.4331,1.3416,1.3363,1.2376,0.9966,0.0,0.0,0.0,0.0,0.0,0.0,0.0,0.0,0.0,0.0,0.0,0.0,0.0,0.0,0.0,0.0,0.0,0.0,0.0,0.0,0.0,0.0,0.0,0.0,0.0,0.0,0.0,0.0,0.0,0.0,0.0,0.0,0.0,0.0,0.0,0.0,0.0,0.0,0.0,0.0,0.0,0.0,0.0,0.0,0.0,0.0,0.0,0.0,0.0,0.0,0.0,0.0,0.0,0.0,0.0,0.0,0.0,0.0,0.0,0.0,0.0,0.0,0.0,0.0,0.0,0.0,0.0,0.0,0.0,0.0,0.0,0.0,0.0,0.0,0.0,0.0,0.0,0.0,0.0,0.0,0.0,0.0,0.0,0.0,0.0,0.0,0.0,0.0,0.0,0.0,0.0,0.0,0.0,0.0,0.0,0.0,0.0,0.0,0.0,0.0,0.0,0.0,1.0092,1.1669,1.3017,1.3834,1.4627,1.5008,1.4737,1.4154,1.3137,0.0,0.0,0.0,0.0,0.0,0.0,0.0,0.0,0.0,0.0,0.0,0.0,0.0,0.0,0.0,0.0,0.0,0.0,0.0,0.0,0.0,0.0,0.0,0.0,0.0,0.0,0.0,0.0,0.0,0.0,0.0,0.0,0.0,0.0,0.0,0.0,0.0,0.0,0.0,0.0,0.0,0.0,0.0,0.0,0.0,0.0,0.0,0.0,0.0,0.0,0.0,0.0,0.0,0.0,0.0,0.0,0.0,0.0,0.0,0.0,0.0,0.0,0.0,0.0,0.0,0.0,0.0,0.0,0.0,0.0,0.0,0.0,0.0,0.0,0.0,0.0,0.0,0.0,0.0,0.0,0.0,0.0,0.0,0.0,0.0,0.0,0.0,0.0,0.0,0.0,0.0,0.0,0.0,0.0,0.0,0.0,0.0,0.0,0.0,0.0,0.0,0.0,0.0,1.0542,1.2113,1.3543,1.4626,1.5477,1.572,1.5154,1.5186,1.4164,1.1709,0.0,0.0,0.0,0.0,0.0,0.0,0.0,0.0,0.0,0.0,0.0,0.0,0.0,0.0,0.0,0.0,0.0,0.0,0.0,0.0,0.0,0.0,0.0,0.0,0.0,0.0,0.0,0.0,0.0,0.0,0.0,0.0,0.0,0.0,0.0,0.0,0.0,0.0,0.0,0.0,0.0,0.0,0.0,0.0,0.0,0.0,0.0,0.0,0.0,0.0,0.0,0.0,0.0,0.0,0.0,0.0,0.0,0.0,0.0,0.0,0.0,0.0,0.0,0.0,0.0,0.0,0.0,0.0,0.0,0.0,0.0,0.0,0.0,0.0,0.0,0.0,0.0,0.0,0.0,0.0,0.0,0.0,0.0,0.0,0.0,0.0,0.0,0.0,0.0,0.0,0.0,0.0,0.0,0.0,0.0,0.0,0.0,0.0,0.0,0.0,0.0,0.0,1.0889,1.2697,1.4273,1.5184,1.5894,1.6265,1.6107,1.5911,1.5014,1.3198,0.0,0.0,0.0,0.0,0.0,0.0,0.0,0.0,0.0,0.0,0.0,0.0,0.0,0.0,0.0,0.0,0.0,0.0,0.0,0.0,0.0,0.0,0.0,0.0,0.0,0.0,0.0,0.0,0.0,0.0,0.0,0.0,0.0,0.0,0.0,0.0,0.0,0.0,0.0,0.0,0.0,0.0,0.0,0.0,0.0,0.0,0.0,0.0,0.0,0.0,0.0,0.0,0.0,0.0,0.0,0.0,0.0,0.0,0.0,0.0,0.0,0.0,0.0,0.0,0.0,0.0,0.0,0.0,0.0,0.0,0.0,0.0,0.0,0.0,0.0,0.0,0.0,0.0,0.0,0.0,0.0,0.0,0.0,0.0,0.0,0.0,0.0,0.0,0.0,0.0,0.0,0.0,0.0,0.0,0.0,0.0,0.0,0.0,0.0,0.0,0.0,0.0,1.1185,1.3329,1.5007,1.556,1.6047,1.6591,1.7183,1.6458,1.5805,1.5371,0.0,0.0,0.0,0.0,0.0,0.0,0.0,0.0,0.0,0.0,0.0,0.0,0.0,0.0,0.0,0.0,0.0,0.0,0.0,0.0,0.0,0.0,0.0,0.0,0.0,0.0,0.0,0.0,0.0,0.0,0.0,0.0,0.0,0.0,0.0,0.0,0.0,0.0,0.0,0.0,0.0,0.0,0.0,0.0,0.0,0.0,0.0,0.0,0.0,0.0,0.0,0.0,0.0,0.0,0.0,0.0,0.0,0.0,0.0,0.0,0.4245,0.5093,0.0,0.0,0.0,0.0,0.0,0.0,0.0,0.0,0.0,0.0,0.0,0.0,0.0,0.0,0.0,0.0,0.0,0.0,0.0,0.0,0.0,0.0,0.0,0.0,0.0,0.0,0.0,0.0,0.0,0.0,0.0,0.0,0.0,0.0,0.0,0.0,0.0,0.0,0.0,0.0,1.1585,1.3506,1.5064,1.5694,1.6313,1.6763,1.6892,1.7188,1.6852,1.5603,1.4353,0.0,0.0,0.0,0.0,0.0,0.0,0.0,0.0,0.0,0.0,0.0,0.0,0.0,0.0,0.0,0.0,0.0,0.0,0.0,0.0,0.0,0.0,0.0,0.0,0.0,0.0,0.0,0.0,0.0,0.0,0.0,0.0,0.0,0.0,0.0,0.0,0.0,0.0,0.0,0.0,0.0,0.0,0.0,0.0,0.0,0.0,0.0,0.0,0.0,0.0,0.0,0.0,0.0,0.0,0.0,0.0,0.0,0.0,0.0,0.5905,0.7414,0.0,0.0,0.0,0.0,0.0,0.0,0.0,0.0,0.0,0.0,0.0,0.0,0.0,0.0,0.0,0.0,0.0,0.0,0.0,0.0,0.0,0.0,0.0,0.0,0.0,0.0,0.0,0.0,0.0,0.0,0.0,0.0,0.0,0.0,0.0,0.0,0.0,0.0,0.0,0.0,1.176,1.3985,1.5725,1.6227,1.6722,1.7101,1.7264,1.7612,1.7473,1.6712,1.5308,0.0,0.0,0.0,0.0,0.0,0.0,0.0,0.0,0.0,0.0,0.0,0.0,0.0,0.0,0.0,0.0,0.0,0.0,0.0,0.0,0.0,0.0,0.0,0.0,0.0,0.0,0.0,0.0,0.0,0.0,0.0,0.0,0.0,0.0,0.0,0.0,0.0,0.0,0.0,0.0,0.0,0.0,0.0,0.0,0.0,0.0,0.0,0.0,0.0,0.0,0.0,0.0,0.0,-0.5305,-0.4213,-0.2211,-0.1716,0.0057,0.2934,0.7228,0.9255,0.928,0.6334,0.0,0.0,0.0,0.0,0.0,0.0,0.0,0.0,0.0,0.0,0.0,0.0,0.0,0.0,0.0,0.0,0.0,0.0,0.0,0.0,0.0,0.0,1.3109,1.3105,1.326,1.3059,1.1786,0.0,0.0,0.0,0.0,0.0,0.0,0.0,0.0,0.0,0.0,0.0,1.2192,1.4627,1.6421,1.6763,1.7101,1.7415,1.7681,1.7766,1.7811,1.7811,1.6082,1.495,0.0,0.0,0.0,0.0,0.0,0.0,0.0,0.0,0.0,0.0,0.0,0.0,0.0,0.0,0.0,0.0,0.0,0.0,0.0,0.0,0.0,0.0,0.0,0.0,0.0,0.0,0.0,0.0,0.0,0.0,0.0,0.0,-1.1173,-1.2198,0.0,0.0,0.0,0.0,0.0,0.0,0.0,0.0,0.0,0.0,0.0,0.0,0.0,-0.8437,-0.7167,-0.6996,-0.6383,-0.5312,-0.5289,-0.3555,-0.0354,-0.0285,0.0846,0.2826,0.4985,0.0,0.7861,0.6022,0.0,0.0,0.0,0.0,0.0,0.0,0.0,0.0,0.0,0.0,0.0,0.0,0.0,0.0,0.0,0.0,0.0,0.0,0.0,0.0,0.0,0.0,1.2015,1.2015,1.2708,1.3345,1.3127,1.3042,1.2728,1.1806,1.0915,0.994,0.0,0.0,0.0,0.0,0.0,0.0,1.3768,1.5325,1.6421,1.6763,1.7101,1.732,1.7368,1.7618,1.7811,1.7811,1.754,1.6796,1.5511,1.4527,0.0,0.0,0.0,0.0,0.0,0.0,0.0,0.0,0.0,0.0,0.0,0.0,0.0,0.0,0.0,0.0,0.0,0.0,0.0,0.0,0.0,0.0,0.0,0.0,0.0,0.0,0.0,0.0,0.0,-0.3062,-0.872,-1.2837,-1.3645,-1.3348,0.0,0.0,0.0,0.0,0.0,0.0,0.0,0.0,0.0,-1.0409,-1.1363,-1.0915,-0.896,-0.81,-0.7338,-0.6614,-0.3717,-0.0452,0.2957,0.1964,0.2971,0.55,0.5349,0.571,0.6303,0.5577,0.3511,0.0677,0.0,0.0,0.0,0.0,0.615,1.0229,1.1126,1.2506,1.3825,1.3522,0.0,0.0,0.0,0.0,0.0,0.0,0.0,1.0091,1.0102,1.0944,1.1804,1.1803,1.2162,1.2488,1.2494,1.3674,1.4523,1.375,1.3224,1.2255,1.0095,1.051,0.0,0.0,0.0,1.3264,1.4194,1.5637,1.6712,1.7052,1.7368,1.7572,1.7572,1.7704,1.7811,1.7811,1.7811,1.7523,1.6864,1.5731,1.4273,0.0,0.0,0.0,0.0,0.0,0.0,0.0,0.0,0.0,0.0,0.0,0.0,0.0,0.0,0.0,0.0,0.0,0.0,0.0,0.0,0.0,0.0,0.0,0.0,0.0,0.0,0.0,0.0,-0.6212,-0.8811,-1.369,-1.5,-1.5184,0.0,0.0,0.0,0.0,0.0,0.0,-1.1872,-1.2789,-1.3407,-1.3412,-1.2811,-1.1672,-0.9923,-0.8822,-0.7403,-0.5679,-0.183,0.1855,0.5272,0.4384,0.535,0.7671,0.6829,0.6263,0.5838,0.498,0.28,-0.0091,-0.0989,-0.0788,0.0163,0.1532,0.5724,1.0973,1.2463,1.3168,1.3396,1.3403,1.3405,1.326,1.244,0.0,0.0,0.0,0.0,1.1796,1.1808,1.18,1.1862,1.2128,1.1997,1.1975,1.2697,1.4386,1.5681,1.5209,1.528,1.4503,1.1731,1.21,0.0,1.1092,1.2553,1.4091,1.4851,1.6035,1.6968,1.7368,1.7658,1.7811,1.7811,1.7811,1.7811,1.7811,1.7811,1.7811,1.7811,1.6745,1.5694,1.4727,0.0,0.0,0.0,0.0,0.0,0.0,0.0,0.0,0.0,0.0,0.0,0.0,0.0,0.0,0.0,0.0,0.0,0.0,0.0,0.0,0.0,0.0,0.0,0.0,0.0,0.0,0.0,0.0,0.0,-1.5458,-1.5037,0.0,0.0,0.0,0.0,-1.4311,-1.4997,-1.533,-1.5152,-1.404,-1.3406,-1.3405,-1.1237,-1.0025,-0.9912,-0.9827,-0.6629,-0.0376,-0.0112,0.1864,0.5335,0.6804,0.753,0.7772,0.9095,0.8861,0.7317,0.4139,0.1718,-0.0,-0.0061,-0.0059,0.0221,0.2003,0.4892,0.8284,1.0958,1.2554,1.3389,1.3413,1.3396,1.3376,1.335,1.2521,0.0,0.0,1.1693,1.1806,1.1788,1.179,1.2043,1.3089,1.2544,1.2488,1.5043,1.5701,1.5779,1.5762,1.6269,1.5938,1.3505,0.0,1.3275,1.3575,1.3735,1.4501,1.6441,1.6741,1.7043,1.7721,1.7789,1.7811,1.7811,1.7811,1.7811,1.7811,1.7811,1.7811,1.7811,1.7743,1.7016,1.5578,1.4744,0.0,0.0,0.0,0.0,0.0,0.0,0.0,0.0,0.0,0.0,0.0,0.0,0.0,0.0,0.0,0.0,0.0,0.0,0.0,0.0,0.0,0.0,0.0,0.0,0.0,0.0,0.0,0.0,-1.5401,-1.4961,0.0,-1.5075,-1.5062,-1.4834,-1.4305,-1.4216,-1.4538,-1.5361,-1.4952,-1.4683,-1.4695,-1.1567,-0.9908,-0.9898,-0.5656,0.0215,0.757,0.5805,0.6539,0.943,0.8246,0.8664,1.0337,1.0034,0.906,0.7606,0.6415,0.426,0.161,0.0465,0.0705,0.1827,0.2463,0.4825,0.8094,1.085,1.2494,1.339,1.3389,1.3403,1.327,1.2577,1.2113,1.1807,1.179,1.2312,1.2832,1.2827,1.2832,1.3193,1.4611,1.5298,1.5938,1.687,1.6413,1.5805,1.5796,1.5993,1.5953,1.5366,1.5207,1.4873,1.395,1.4528,1.5491,1.6648,1.6789,1.7068,1.7743,1.7811,1.7811,1.7811,1.7811,1.7811,1.7811,1.7811,1.7811,1.7811,1.7811,1.7557,1.7033,1.6741,1.5095,0.0,0.0,0.0,0.0,0.0,0.0,0.0,0.0,0.0,0.0,0.0,0.0,0.0,0.0,0.0,0.0,0.0,0.0,0.0,0.0,0.0,0.0,0.0,0.0,0.0,-1.146,-1.2075,-1.2839,-1.3029,-1.3131,-1.3259,-1.3812,-1.3926,-1.3406,-1.3196,-1.3489,-1.4419,-1.4669,-1.4608,-1.4206,-1.2611,-0.842,-0.1436,0.2189,0.6601,1.1783,0.9957,1.0033,1.1746,0.9926,1.0081,1.1742,1.0908,0.9742,0.8402,0.7893,0.639,0.427,0.3077,0.3339,0.4387,0.4391,0.6376,0.9342,1.1162,1.251,1.3338,1.2986,1.2855,1.2726,1.2019,1.1789,1.18,1.1785,1.2302,1.2943,1.3308,1.4145,1.5143,1.6217,1.7159,1.7792,1.7811,1.7093,1.6481,1.6481,1.6103,1.5875,1.6149,1.6164,1.5686,1.433,1.5109,1.5948,1.6403,1.6655,1.7068,1.7743,1.7811,1.7811,1.7811,1.7354,1.727,1.7777,1.7337,1.7287,1.7794,1.732,1.7067,1.7067,1.7067,1.5691,1.2908,0.0,0.0,0.0,0.0,0.0,0.0,0.0,0.0,0.0,0.0,0.0,0.0,0.0,0.0,0.0,0.0,0.0,0.0,0.0,0.0,0.0,0.0,0.0,-0.6597,-0.9477,-1.0669,-0.8005,-0.9316,-1.0613,-1.0996,-1.1418,-1.1649,-1.1685,-1.1968,-1.2305,-1.2553,-1.3063,-1.2781,-1.1466,-1.3707,-0.5112,1.536,1.3141,1.1938,1.2005,1.1874,1.1837,1.179,1.1822,1.1864,1.1844,1.1859,1.1127,0.9844,0.8424,0.7831,0.7824,0.7736,0.7754,0.7841,0.7833,0.9542,1.185,1.1882,1.2539,1.3235,1.2191,1.1861,1.1841,1.1817,1.1835,1.1856,1.1857,1.1851,1.2113,1.3227,1.5688,1.7847,1.786,1.7866,1.7836,1.7813,1.7794,1.7812,1.7771,1.6733,1.5827,1.5827,1.5799,1.5589,1.4944,1.5394,0.0,1.5815,1.6408,1.7052,1.771,1.7777,1.7777,1.7777,1.6458,1.6255,1.771,1.6458,1.6306,1.7738,1.6424,1.5663,1.5663,1.5612,1.5257,1.4528,0.0,0.0,0.0,0.0,0.0,0.0,0.0,0.0,0.0,0.0,0.0,0.0,0.0,0.0,0.0,0.0,0.0,0.0,0.0,0.0,0.0,-0.6585,-0.6504,-0.6504,-0.7551,-0.8039,-0.728,-0.8563,-0.9528,-0.9635,-1.023,-1.0763,-1.1163,-0.998,-1.0055,-1.1928,-0.947,-0.6547,-0.335,-0.39,0.3293,1.9027,1.6005,1.4999,1.6121,1.3994,1.2546,1.1831,1.2613,1.2964,1.2967,1.2963,1.2327,1.1244,1.0848,1.0661,1.0469,0.8481,0.8926,1.0674,1.0661,1.1652,1.3035,1.3562,1.3614,1.3353,1.3058,1.2949,1.2819,1.2036,1.2341,1.2967,1.2971,1.297,1.3518,1.5957,1.7726,1.8873,1.8894,1.8902,1.8682,1.7956,1.7808,1.7692,1.7368,1.6991,1.6627,1.6292,1.5998,1.5739,1.5559,1.589,1.6251,1.6492,1.6913,1.7122,1.7028,1.6982,1.7088,1.7277,1.6755,1.6884,1.801,1.7531,1.7388,1.7794,1.7422,1.7202,1.7202,1.6136,1.5435,0.0,0.0,0.0,0.0,0.0,0.0,0.0,0.0,0.0,0.0,0.0,0.0,0.0,0.0,0.0,0.0,0.0,0.0,0.0,0.0,0.0,0.0,-0.5483,-0.5568,-0.5726,-0.5664,-0.5762,-0.6236,-0.7008,-0.7527,-0.7534,-0.7932,-0.8194,-0.8257,-0.7861,-0.7852,-0.8449,-0.8007,-0.4044,0.4044,0.1521,0.3839,1.1889,1.5696,1.8043,1.8954,1.7244,1.5905,1.4963,1.5585,1.5871,1.5865,1.5871,1.5292,1.4316,1.4311,1.4312,1.3988,0.0,0.0,0.0,0.0,1.3341,1.387,1.3998,1.3763,1.3395,1.3405,1.3615,1.3683,1.2757,1.2924,1.3386,1.34,1.4279,1.5731,1.7878,1.8861,1.9289,1.929,1.9309,1.9141,1.8547,1.8099,1.7757,1.7631,1.7496,0.0,1.6847,1.6463,1.6111,1.5845,1.6207,1.6522,1.6572,1.7019,1.7249,1.718,1.7258,1.7387,1.755,1.6844,0.0,0.0,0.0,1.6881,1.6881,1.6881,0.0,0.0,0.0,1.6467,1.7266,1.683,0.0,0.0,1.442,1.4285,0.0,0.0,0.0,0.0,0.0,0.0,0.0,0.0,0.0,0.0,0.0,0.0,0.0,0.0,0.0,0.0,-0.4678,-0.4578,-0.4578,-0.4004,-0.4013,-0.5164,-0.5276,-0.5202,-0.52,-0.5262,-0.5097,-0.4684,-0.5705,-0.585,-0.4674,-0.7509,0.0,0.0,0.0,0.1248,0.148,1.3644,1.9995,2.0451,2.0542,2.0201,1.9444,1.9449,1.9452,1.9445,1.9419,1.8907,1.8077,1.8084,1.8082,1.7727,1.407,1.3225,1.4136,1.4796,1.4812,1.4403,1.3739,0.0,0.0,1.3521,1.3971,1.4375,1.3733,1.3522,1.3609,1.3963,1.5627,1.7633,1.9047,1.9362,1.9295,1.9295,1.9303,1.9308,1.929,1.8592,1.8048,1.8307,1.8117,1.7805,1.7492,1.7101,1.6591,1.5984,1.6449,1.6766,1.6446,1.6971,1.7446,1.7676,1.7941,0.0,1.8128,1.6877,1.6721,1.8121,1.6724,1.5849,1.5849,1.5933,1.6272,1.6936,1.7037,1.8031,2.0002,2.0086,1.9747,1.8943,1.6269,1.549,0.0,0.0,0.0,0.0,0.0,0.0,0.0,0.0,0.0,0.0,0.0,0.0,0.0,0.0,0.0,-0.4483,-0.4117,-0.3799,-0.3799,-0.367,-0.4006,-0.5164,-0.4993,-0.4544,-0.3925,-0.4329,-0.4853,-0.5492,-0.4069,-0.4909,-0.8865,-0.4582,0.1795,1.0045,0.9015,0.9071,1.0643,1.3298,1.6298,1.9555,2.0268,0.0,2.0345,2.0347,2.0349,2.0344,2.0183,2.0004,1.982,1.9826,1.9817,1.9694,1.8361,1.7994,1.8177,1.8324,1.6725,1.4468,1.4344,1.4302,1.4278,1.4297,1.4377,1.4471,1.4333,1.4288,0.0,1.743,1.6269,1.5161,1.9096,1.9704,1.9294,1.9301,1.9298,1.9294,1.9304,1.9146,1.895,1.8746,1.8649,1.8538,1.8391,1.7499,1.6767,1.6623,1.6946,1.7174,1.7122,1.7466,1.7579,1.728,1.7272,1.7389,1.763,1.7183,1.7257,1.8156,1.7676,1.7371,1.7371,1.7946,1.8318,1.8471,1.9063,1.9562,2.0002,2.0653,2.0545,1.9698,1.9126,1.8594,0.0,0.0,0.0,0.0,0.0,0.0,0.0,0.0,0.0,0.0,0.0,-0.4805,-0.4656,0.0,-0.4158,-0.4037,-0.3796,-0.3581,-0.3581,-0.3609,-0.3825,-0.4376,-0.4252,-0.3974,-0.3595,-0.3278,-0.3046,-0.2906,-0.1814,-0.23,-0.5001,0.1414,0.6751,1.0185,1.1244,1.2212,1.3198,1.3218,1.5015,1.8543,1.8996,1.9649,2.0448,2.0441,2.0448,2.0453,2.0452,2.0446,2.0437,2.0346,2.0304,2.0264,1.9939,1.9805,1.9757,1.943,1.8286,1.6897,1.6892,1.6904,1.6903,1.691,1.6904,1.6897,1.6906,1.7137,1.7746,1.9351,1.838,1.7379,1.9694,1.9795,1.93,1.9295,1.9294,1.9306,1.9305,1.9294,1.9228,1.895,1.886,1.8752,1.8623,1.8094,1.7659,1.7516,1.7631,1.7693,1.7572,1.7704,1.7769,1.7651,1.7774,1.7965,1.8234,1.8002,1.7892,1.798,1.7861,1.7811,1.7811,1.8504,1.9063,1.9452,2.0213,2.0788,2.1133,2.1549,2.1394,2.0756,2.0541,1.9999,0.0,0.0,0.0,0.0,0.0,0.0,0.0,-0.5389,-0.5582,-0.4819,-0.4886,-0.4957,-0.4347,-0.4347,-0.422,-0.3667,-0.3581,-0.3581,-0.3581,-0.3619,-0.3619,-0.3581,-0.3602,-0.3598,-0.3595,-0.2499,-0.129,-0.0089,0.0,0.0586,0.192,0.7287,1.049,1.086,1.2384,1.35,1.4098,1.4097,1.5349,1.7789,1.8,1.8749,1.9983,2.0209,2.0288,2.0308,2.0516,2.0605,2.0588,2.0439,2.036,2.036,2.036,2.0354,2.0289,1.9716,1.9503,1.9479,1.9485,1.9487,1.9497,1.9487,1.9497,1.9497,1.9488,1.9868,2.0304,2.0306,2.0298,2.0299,2.0299,1.9903,1.9485,1.9495,1.9391,1.9305,1.9306,1.935,1.9341,1.9152,1.903,1.8925,1.8807,1.8753,1.8624,1.833,1.8229,1.8125,1.7922,1.7883,1.7992,1.8249,1.8508,1.877,1.8966,1.8715,1.833,1.7922,1.7883,1.7839,1.7811,1.8657,1.9401,1.9985,2.0923,2.1701,2.231,2.231,2.2061,2.1582,2.1181,2.0565,-1.42,-1.2617,-1.038,-0.8381,-0.6732,-0.5539,0.0,-0.453,-0.3854,-0.3778,-0.4168,-0.4351,-0.3796,-0.4092,-0.422,-0.3667,-0.3581,-0.3581,-0.3581,-0.3598,-0.3588,-0.3622,-0.3622,-0.3581,-0.3595,-0.2504,-0.129,-0.0089,0.0,0.266,0.8832,0.9864,1.1092,1.2827,1.3074,1.4527,1.7258,1.7275,1.7464,1.7798,1.8718,1.9006,1.8826,1.9844,2.0298,2.0306,2.0515,2.0599,2.0607,2.0586,2.0562,2.0562,2.0562,2.056,2.0549,2.027,2.0194,2.0183,2.0195,2.0176,2.0199,2.018,2.0191,2.0202,2.0193,2.0241,2.0299,2.0293,2.0307,2.031,2.0299,2.0241,2.0193,2.0195,1.9732,1.9295,1.93,1.9536,1.9699,1.956,1.9527,1.9509,1.9481,1.9335,1.9064,1.8623,1.8351,1.8187,1.8146,1.8146,1.8249,1.8528,1.8789,1.8966,1.9002,1.8528,1.8208,1.8146,1.8146,1.8057,1.7811,1.914,1.9917,2.0002,2.1448,2.2226,2.231,2.231,2.2061,2.1582,2.1181,2.0715,-1.1206,-1.0123,-0.8553,-0.6816,-0.5657,-0.4844,-0.4428,-0.3995,-0.368,-0.3598,-0.3796,-0.388,-0.3622,-0.3796,-0.388,-0.3622,-0.3306,-0.3078,-0.3078,-0.2758,-0.2622,-0.286,-0.3315,-0.3043,-0.1646,-0.1062,0.0044,0.1945,0.3324,0.535,0.8201,0.9614,1.1191,1.3155,1.3192,1.4319,1.6608,1.6647,1.6825,1.7224,1.8053,1.8494,1.8626,1.9081,1.9663,2.0298,2.0392,2.0421,2.0427,2.0425,2.0439,2.0439,2.0439,2.0439,2.0434,2.0455,2.0471,2.047,2.0475,2.0467,2.0467,2.0476,2.0404,2.0305,2.0304,2.0304,2.0293,2.0296,2.0312,2.0296,2.0301,2.0304,2.0296,2.0297,2.0099,1.9821,1.9632,1.9701,1.9788,1.9732,1.9643,1.9614,1.9614,1.9423,1.9243,1.9031,1.8825,1.8604,1.845,1.843,1.8528,1.8807,1.9034,1.9117,1.9001,1.8789,1.8528,1.8208,1.8351,1.831,1.804,1.9452,2.0216,2.0216,2.1596,2.231,2.231,2.231,2.2209,2.2003,2.1538,2.1118,-0.8465,-0.7802,-0.6868,-0.5433,-0.469,-0.4183,-0.352,-0.3277,-0.3301,-0.3389,-0.3494,-0.3581,-0.3629,-0.3602,-0.3527,-0.3394,-0.2719,-0.2222,-0.2222,-0.169,-0.1424,-0.1693,-0.2546,-0.2273,-0.0221,0.0617,0.1978,0.4355,0.6054,0.7285,0.7863,0.9439,1.1187,1.3142,1.3683,1.4287,1.5081,1.5567,1.6222,1.7084,1.7568,1.8005,1.8385,1.8662,1.9247,2.0009,2.0012,2.0131,2.0305,2.0307,2.0296,2.0291,2.0296,2.0312,2.0318,2.0465,2.0547,2.0601,2.0593,2.0609,2.0607,2.0589,2.05,2.0371,2.0386,2.0372,2.0378,2.0327,2.0312,2.0312,2.0312,2.0312,2.0288,2.0296,2.0298,2.0232,1.999,1.9947,1.9915,1.9877,1.9786,1.972,1.972,1.9536,1.938,1.938,1.9261,1.9051,1.8752,1.8715,1.8807,1.9069,1.9366,1.951,1.9429,1.9559,1.9398,1.8786,1.9137,1.9135,1.8665,1.9998,2.0725,2.0725,2.1752,2.231,2.231,2.231,2.231,2.2282,2.1823,2.1368,-0.6972,-0.6422,-0.5731,-0.4671,-0.399,-0.3378,-0.2864,-0.2283,-0.2062,-0.2783,-0.3242,-0.3547,-0.3754,-0.3653,-0.3328,-0.2804,-0.1731,-0.0975,-0.0975,-0.0443,-0.0044,-0.0089,-0.1108,-0.1375,-0.0133,0.2121,0.4443,0.6712,0.694,0.7927,1.0112,1.0263,1.1191,1.3131,1.4856,1.492,1.331,1.4965,1.6468,1.7771,1.7788,1.7812,1.7873,1.8837,1.9302,1.9335,1.9328,1.9694,2.0293,2.0305,2.0293,2.0308,2.0291,2.0312,2.0292,2.0308,2.0423,2.0593,2.0593,2.0593,2.061,2.0603,2.0605,2.0583,2.0591,2.0581,2.0555,2.0345,2.0312,2.0312,2.0312,2.0312,2.0304,2.0304,2.0304,2.0304,2.0296,2.0277,2.0222,2.0022,1.9984,1.9993,1.9993,1.9774,1.9582,1.9582,1.9601,1.9442,1.9035,1.9002,1.9069,1.9259,1.9825,2.0245,2.045,2.0989,2.0987,2.0192,2.0897,2.0837,1.9777,2.0923,2.1576,2.1576,2.2034,2.231,2.231,2.231,2.231,2.2282,2.1823,2.1368,-0.404,-0.3072,-0.1869,-0.2028,-0.151,-0.088,-0.0694,-0.0493,-0.054,-0.1297,-0.1567,-0.1834,-0.2358,-0.2431,-0.2177,-0.1618,-0.0814,-0.0178,0.0222,0.0799,0.1202,0.1202,0.084,0.0748,0.1145,0.2641,0.4557,0.6829,0.6987,0.7962,1.0191,1.0308,1.118,1.3146,1.376,1.3779,1.3219,1.5801,1.7357,1.7795,1.7806,1.7811,1.7831,1.8829,1.9291,1.9303,1.93,1.9686,2.0277,1.982,1.9912,2.031,2.0299,2.0307,2.0296,2.0307,2.033,2.0405,2.0405,2.0405,2.0399,2.0394,2.0486,2.0605,2.0599,2.0597,2.0594,2.0519,2.0508,2.0501,2.0501,2.0501,2.0501,2.0501,2.0501,2.046,2.0335,2.0326,2.034,2.0216,2.0078,1.9993,1.9993,1.9847,1.9726,1.9726,1.9532,1.9413,1.9398,1.9753,2.0034,2.0081,2.0801,2.1295,2.1363,2.155,2.1462,2.1024,2.1407,2.1407,2.0874,2.1718,2.21,2.1873,2.2323,2.249,2.231,2.231,2.231,2.231,2.2135,2.184,-0.1478,-0.0389,0.0868,0.0401,0.0709,0.1169,0.1391,0.123,0.0817,0.0104,-0.0204,-0.0502,-0.1019,-0.1092,-0.0826,-0.0147,0.0674,0.1274,0.1628,0.2187,0.2534,0.2453,0.2429,0.2461,0.2456,0.3865,0.5427,0.6894,0.6997,0.7958,1.0175,1.0966,1.189,1.3154,1.3187,1.3517,1.4112,1.6083,1.7101,1.7087,1.7568,1.7789,1.7831,1.8457,1.8759,1.8768,1.9141,1.9527,1.9908,1.9476,1.9555,1.9938,1.9936,2.0095,2.0297,2.0296,2.0293,2.0301,2.0296,2.0312,2.0312,2.0312,2.0444,2.0597,2.0605,2.0605,2.0605,2.0605,2.0598,2.0592,2.0592,2.0592,2.0592,2.0592,2.0592,2.0561,2.0434,2.0424,2.0408,2.0331,2.0197,2.0115,2.0115,2.023,2.0448,2.0751,2.0564,2.0294,2.0066,2.063,2.1021,2.096,2.1712,2.2226,2.2226,2.2483,2.2447,2.2008,2.2392,2.2447,2.1989,2.2598,2.283,2.2616,2.2799,2.2789,2.2624,2.249,2.2436,2.2436,2.2349,2.2032,0.0805,0.159,0.2605,0.2652,0.2622,0.27,0.3291,0.2871,0.2086,0.1378,0.0739,0.0306,0.0315,0.0257,0.0559,0.152,0.2582,0.3234,0.3182,0.3667,0.3949,0.3633,0.3639,0.3672,0.3601,0.5658,0.7009,0.7007,0.7093,0.8071,1.0186,1.2155,1.3192,1.3201,1.3196,1.4046,1.5786,1.5801,1.5837,1.5919,1.718,1.7798,1.779,1.779,1.7807,1.786,1.8859,1.9292,1.9286,1.9288,1.9307,1.9308,1.9307,1.9684,2.0252,2.024,2.027,2.0298,2.0299,2.0312,2.0312,2.0312,2.0437,2.06,2.0601,2.0605,2.0605,2.0605,2.0605,2.0605,2.0605,2.0605,2.0605,2.0605,2.0605,2.0605,2.0605,2.0597,2.0558,2.0416,2.0408,2.0427,2.0427,2.0947,2.1663,2.2494,2.2498,2.2035,2.1031,2.1581,2.2009,2.1892,2.2592,2.3088,2.3088,2.3786,2.3897,2.3125,2.3768,2.3859,2.3107,2.3497,2.3714,2.3692,2.3392,2.323,2.3189,2.2873,2.2695,2.2695,2.2426,2.2061,0.4404,0.4794,0.5477,0.6014,0.5408,0.4761,0.4914,0.4412,0.3692,0.2888,0.2196,0.1688,0.1701,0.123,0.1258,0.2538,0.2953,0.3301,0.3723,0.4359,0.456,0.3914,0.4451,0.4517,0.3685,0.566,0.7011,0.7012,0.851,0.9698,1.0283,1.2155,1.3192,1.3201,1.3196,1.403,1.5773,1.5799,1.6316,1.7286,1.7632,1.7792,1.7793,1.7793,1.7813,1.7857,1.8858,1.929,1.9299,1.9298,1.9298,1.9306,1.9308,1.9395,1.9545,1.9563,1.9868,2.0299,2.0304,2.0312,2.0312,2.0312,2.045,2.0594,2.0607,2.06,2.0592,2.0604,2.0605,2.0605,2.0605,2.0605,2.0605,2.0605,2.0605,2.0605,2.0605,2.1253,2.1798,2.1675,2.1914,2.2158,2.2158,2.2295,2.2488,2.2719,2.3247,2.3282,2.227,2.2619,2.2967,2.2922,2.3646,2.4112,2.4112,2.4298,2.4335,2.4131,2.4174,2.4116,2.3896,2.4022,2.3955,2.3692,2.3628,2.3437,2.3189,2.2873,2.2695,2.2695,2.2426,2.2237,0.5802,0.6268,0.6954,0.7326,0.6874,0.6327,0.6327,0.5395,0.4349,0.3901,0.3514,0.3169,0.312,0.2555,0.2439,0.3525,0.3785,0.3915,0.417,0.4825,0.5166,0.4939,0.5374,0.5735,0.5874,0.7031,0.7954,0.8409,0.9593,1.0292,1.0316,1.1339,1.2328,1.3161,1.3192,1.4049,1.5761,1.5818,1.646,1.7801,1.7797,1.7799,1.7811,1.7811,1.7803,1.7831,1.8406,1.8892,1.9288,1.9297,1.9301,1.9305,1.9298,1.9291,1.9343,1.9625,1.9987,2.0291,2.0304,2.0298,2.0298,2.0299,2.0383,2.0463,2.0474,2.046,2.0477,2.0469,2.0472,2.0497,2.0585,2.0605,2.0605,2.0605,2.1152,2.1504,2.0762,2.1509,2.2419,2.2815,2.2866,2.2976,2.336,2.3398,2.3485,2.3832,2.4312,2.4428,2.3859,2.3948,2.4015,2.3945,2.4376,2.4623,2.4623,2.4623,2.4591,2.4512,2.4393,2.4284,2.419,2.419,2.4113,2.3917,2.3917,2.3816,2.3649,2.33,2.3069,2.2923,2.2616,2.2398,0.6279,0.694,0.7605,0.7605,0.7597,0.7535,0.7356,0.585,0.4519,0.4519,0.4473,0.4491,0.4407,0.3932,0.3788,0.4512,0.4798,0.4894,0.4643,0.5273,0.5903,0.6211,0.6428,0.7115,0.8642,0.8805,0.9314,1.0538,1.0667,1.0548,1.0321,1.0528,1.1446,1.3156,1.3183,1.4057,1.5765,1.5786,1.646,1.7805,1.7804,1.7799,1.7788,1.7788,1.78,1.7808,1.7795,1.8281,1.9112,1.9237,1.9302,1.9285,1.9298,1.9292,1.936,1.9937,2.0447,2.0821,2.0824,2.0816,2.0769,2.0411,2.0307,2.0296,2.0296,2.0296,2.04,2.0839,2.0953,2.0955,2.0902,2.1072,2.1289,2.1289,2.2383,2.3047,2.1582,2.2051,2.3034,2.3956,2.3645,2.3493,2.4245,2.4322,2.4505,2.5207,2.5303,2.5303,2.5303,2.5111,2.4949,2.4842,2.4832,2.4832,2.4832,2.4832,2.4741,2.4591,2.451,2.4409,2.4247,2.4209,2.419,2.419,2.419,2.419,2.419,2.3858,2.3544,2.3259,2.2923,2.2599,0.8309,0.8406,0.8558,0.8558,0.8533,0.8257,0.7007,0.5589,0.4477,0.4477,0.4477,0.4688,0.5183,0.4692,0.4488,0.521,0.585,0.6028,0.5441,0.6352,0.6956,0.6586,0.7605,0.8456,0.8748,0.8813,0.9827,1.2279,1.2469,1.183,1.0399,1.1798,1.2867,1.3204,1.3201,1.405,1.5778,1.5792,1.6471,1.7808,1.7786,1.7808,1.7782,1.7782,1.779,1.779,1.7806,1.7895,1.8126,1.8964,1.9305,1.9307,1.9307,1.9312,1.9311,1.9433,2.1198,2.3515,2.3517,2.3511,2.316,2.0999,2.0308,2.0304,2.0304,2.0304,2.0886,2.3653,2.4428,2.4123,2.2762,2.3614,2.4824,2.4824,2.5039,2.5176,2.4883,2.4961,2.5175,2.5343,2.5192,2.5098,2.5254,2.5216,2.5216,2.537,2.5341,2.5303,2.5303,2.5111,2.4998,2.4974,2.4962,2.4962,2.4962,2.4962,2.4949,2.4924,2.4648,2.4478,2.4444,2.4284,2.419,2.419,2.419,2.419,2.419,2.3858,2.3671,2.3628,2.3259,2.2947,0.8776,0.8811,0.8438,0.6924,0.7709,0.8642,0.7911,0.4853,0.2832,0.5132,0.5584,0.5655,0.5903,0.5739,0.5662,0.5947,0.6348,0.6475,0.6145,0.6854,0.7184,0.6665,0.7884,0.8779,0.8776,1.0095,1.1452,1.2803,1.2904,1.2521,1.1704,1.3744,1.4913,1.4911,1.6005,1.6979,1.7836,1.7832,1.816,1.8803,1.971,2.015,2.015,2.0145,2.0128,2.0154,2.0135,2.0137,2.0177,2.065,2.1265,2.1858,2.1843,2.1854,2.1847,2.1835,2.2854,2.4185,2.4192,2.4448,2.4568,2.3296,2.2893,2.2898,2.2898,2.2898,2.3234,2.4846,2.5299,2.4982,2.358,2.3695,2.4444,2.5467,2.5703,2.5703,2.5703,2.5703,2.5703,2.5703,2.5658,2.5593,2.5565,2.5492,2.5453,2.5447,2.539,2.5341,2.5341,2.5233,2.5152,2.5152,2.5152,2.5152,2.5152,2.5152,2.5111,2.501,2.4858,2.4723,2.4654,2.4461,2.4357,2.4357,2.4247,2.419,2.419,2.4036,2.3876,2.3692,2.3544,2.3277,0.882,0.8791,0.8104,0.5242,0.5701,0.6918,0.6918,0.3831,0.2046,0.5841,0.6872,0.6966,0.6733,0.6887,0.6951,0.6717,0.6998,0.7171,0.6799,0.7476,0.778,0.7147,0.8608,0.9663,0.9683,1.1616,1.3086,1.3638,1.3658,1.3691,1.3682,1.5454,1.6504,1.6501,1.8579,1.9713,1.9684,1.9698,1.9688,1.9735,2.1097,2.1939,2.2313,2.2297,2.2315,2.2315,2.2315,2.2288,2.2297,2.2299,2.3042,2.421,2.4192,2.4192,2.4192,2.4192,2.4192,2.4192,2.4192,2.4578,2.5045,2.5062,2.517,2.5303,2.5302,2.5292,2.5292,2.5292,2.5292,2.509,2.4206,2.364,2.3752,2.533,2.5702,2.5703,2.5703,2.5703,2.5703,2.5703,2.5703,2.5684,2.5625,2.5568,2.5517,2.5522,2.5459,2.5427,2.5409,2.537,2.5322,2.5322,2.5303,2.5303,2.5303,2.5303,2.5224,2.5057,2.5022,2.4949,2.4842,2.467,2.4526,2.4495,2.4339,2.4247,2.419,2.419,2.4074,2.3816,2.3816,2.3628,0.8822,0.8805,0.8118,0.5241,0.2646,0.0831,0.0831,0.2487,0.4542,0.6256,0.7683,0.8394,0.7711,0.81,0.8317,0.7682,0.8646,0.902,0.7534,0.8823,0.9592,0.8696,1.092,1.2525,1.2504,1.2735,1.3824,1.5997,1.6178,1.6183,1.6186,1.6397,1.649,1.6507,1.8579,1.9694,1.9717,1.9707,1.9699,1.9703,1.9846,2.0756,2.2293,2.2304,2.2287,2.2287,2.2287,2.2298,2.2292,2.2289,2.3065,2.4201,2.419,2.4182,2.4205,2.4205,2.4209,2.4191,2.4189,2.4238,2.4288,2.4306,2.4739,2.5298,2.5302,2.5293,2.5293,2.5293,2.5293,2.5274,2.5168,2.5111,2.5185,2.559,2.5705,2.5703,2.5703,2.5703,2.5703,2.5703,2.5703,2.5703,2.5684,2.5644,2.5585,2.5583,2.5538,2.5499,2.5495,2.5428,2.539,2.539,2.5341,2.5303,2.5303,2.5303,2.5284,2.5274,2.5099,2.4979,2.4986,2.4855,2.4685,2.4512,2.4478,2.4375,2.419,2.419,2.417,2.4151,2.4151,2.3958,0.9256,0.7553,0.6352,0.6928,0.6173,0.4838,0.3078,0.3621,0.5175,0.7453,0.8378,0.8712,0.8403,0.8579,0.8926,0.9459,0.9336,0.9183,0.9092,0.9921,1.0404,1.0047,1.1701,1.2919,1.291,1.2918,1.3909,1.6305,1.5161,1.497,1.6426,1.6514,1.7088,1.8377,1.9262,1.9701,1.969,1.969,1.9713,1.9714,2.0747,2.1631,2.2311,2.232,2.231,2.231,2.231,2.231,2.2304,2.2297,2.2583,2.3066,2.3065,2.3522,2.4194,2.4208,2.42,2.4209,2.4211,2.421,2.421,2.4193,2.441,2.4714,2.5175,2.5294,2.5305,2.5302,2.5303,2.5303,2.5303,2.5303,2.5332,2.5429,2.5453,2.5489,2.5661,2.5703,2.5703,2.5703,2.5703,2.5703,2.5703,2.5684,2.5664,2.5664,2.56,2.5562,2.5566,2.5496,2.5449,2.5399,2.5341,2.5303,2.5303,2.5303,2.5303,2.5303,2.5224,2.5173,2.5173,2.5018,2.4872,2.4804,2.4727,2.4639,2.4559,2.4426,2.4375,2.4375,2.4266,2.4132,0.946,0.7332,0.6274,0.8315,0.905,0.8815,0.681,0.6067,0.6465,0.8904,0.9382,0.9504,0.9885,0.9794,0.9965,1.0856,1.0256,0.9857,1.0319,1.0806,1.1195,1.1388,1.2318,1.32,1.3876,1.3941,1.4653,1.6348,1.4949,1.4728,1.643,1.7111,1.8125,1.9662,1.9695,1.9701,1.969,1.969,1.9717,1.9697,2.0949,2.1811,2.2292,2.2308,2.2293,2.231,2.231,2.231,2.2293,2.2293,2.2314,2.2306,2.2297,2.2845,2.3678,2.4052,2.4198,2.419,2.419,2.419,2.4209,2.4191,2.4204,2.4302,2.4826,2.5139,2.531,2.5297,2.5302,2.5303,2.5303,2.5303,2.5303,2.5303,2.5303,2.5374,2.5645,2.5633,2.5597,2.5636,2.5662,2.5664,2.5664,2.5684,2.5703,2.5703,2.5664,2.5625,2.5625,2.5573,2.5511,2.5457,2.5409,2.5341,2.5303,2.5303,2.5303,2.5303,2.5303,2.5303,2.5303,2.5163,2.5057,2.501,2.4904,2.4842,2.4804,2.4654,2.4575,2.4594,2.4444,2.4358,0.9176,0.879,0.8757,0.8769,0.9688,1.0636,1.0685,0.9695,0.9119,1.0506,1.0769,1.1141,1.2447,1.2175,1.1679,1.1411,1.1603,1.1557,1.0914,1.1366,1.2067,1.278,1.287,1.3836,1.6221,1.6478,1.646,1.6491,1.6466,1.6466,1.6509,1.8522,1.9676,1.9683,1.9706,1.9701,1.969,1.969,1.9718,1.9706,1.9706,2.062,2.2305,2.2305,2.2304,2.231,2.231,2.231,2.231,2.231,2.231,2.2298,2.2293,2.23,2.2464,2.3735,2.4208,2.419,2.419,2.419,2.419,2.419,2.421,2.4195,2.4212,2.4728,2.531,2.5298,2.5305,2.5303,2.5303,2.5303,2.5303,2.5303,2.5303,2.537,2.564,2.5496,2.5338,2.5474,2.5566,2.5605,2.5605,2.5664,2.5703,2.5703,2.5703,2.5703,2.5703,2.5632,2.5589,2.5592,2.5543,2.5447,2.5303,2.5303,2.5303,2.5303,2.5303,2.5303,2.5303,2.5303,2.5203,2.4991,2.501,2.4924,2.4804,2.4804,2.4804,2.4804,2.479,2.4685,0.9408,0.8806,0.9022,0.9911,1.0265,1.0379,1.0677,1.0454,1.0812,1.2993,1.4143,1.4564,1.4132,1.3888,1.3679,1.3303,1.2871,1.2615,1.2757,1.3135,1.345,1.3714,1.47,1.566,1.6429,1.65,1.6516,1.6491,1.6522,1.6476,1.651,1.7128,1.7516,1.7497,1.8948,1.9692,1.969,1.969,1.9702,1.9682,1.97,1.9986,2.0559,2.1777,2.231,2.231,2.231,2.231,2.231,2.231,2.231,2.2293,2.23,2.2832,2.3638,2.4046,2.4203,2.419,2.419,2.419,2.419,2.419,2.421,2.4284,2.48,2.476,2.4645,2.5152,2.5292,2.5303,2.5303,2.5303,2.5303,2.5303,2.5303,2.5322,2.5416,2.5365,2.5343,2.5468,2.5515,2.5537,2.5531,2.5542,2.5561,2.5561,2.5597,2.5625,2.5625,2.5641,2.5648,2.5606,2.5575,2.5505,2.539,2.537,2.5341,2.5303,2.5303,2.5303,2.5303,2.5303,2.5264,2.5214,2.5203,2.5182,2.5138,2.5005,2.4891,2.4804,2.4804,2.476,1.0864,1.034,1.0474,1.0919,1.099,1.097,1.1065,1.1191,1.1959,1.444,1.5303,1.5567,1.5407,1.4818,1.4301,1.4148,1.3407,1.3027,1.3362,1.3547,1.3842,1.4244,1.5613,1.6504,1.6504,1.6479,1.6517,1.6479,1.6522,1.6489,1.6494,1.6485,1.6484,1.652,1.8565,1.9701,1.969,1.969,1.9702,1.9688,1.97,2.0034,2.0733,2.1811,2.2298,2.231,2.231,2.231,0.0,2.231,2.231,2.2293,2.2286,2.2773,2.3525,2.4032,2.4215,2.419,2.419,2.419,2.419,2.419,2.4192,2.4302,2.4761,2.4751,2.4712,2.5175,2.5294,2.531,2.5293,2.5303,2.5303,2.5303,2.5303,2.5303,2.5303,2.5303,2.5322,2.5409,2.5428,2.5437,2.5459,2.5479,2.5499,2.5499,2.5542,2.5573,2.5605,2.5644,2.5664,2.5644,2.5648,2.5583,2.5472,2.5446,2.5428,2.539,2.539,2.539,2.539,2.539,2.539,2.539,2.5341,2.5341,2.5341,2.5192,2.5072,2.4994,2.491,2.4883,0.0,1.2836,1.2632,1.1802,1.1835,1.2035,1.1972,1.2094,0.0,1.492,1.4758,1.4729,1.628,1.5062,1.3946,1.4218,1.3515,1.293,1.293,1.2988,1.3488,1.4686,1.5835,1.6516,1.6485,1.6491,1.6522,1.6522,1.6522,1.6577,1.6713,1.6565,1.6586,1.6705,1.8672,1.9686,1.969,1.969,1.9718,1.9706,1.971,2.0621,2.2305,2.2319,2.2316,2.231,2.231,2.231,2.231,2.231,2.231,2.2304,2.2287,2.2295,2.2453,2.3728,2.419,2.4207,2.4208,2.419,2.419,2.419,2.421,2.4197,2.42,2.4692,2.5225,2.5209,2.5264,2.5302,2.5301,2.5293,2.5293,2.5303,2.5303,2.5303,2.5303,2.5303,2.5303,2.5303,2.5303,2.5322,2.539,2.5447,2.5486,2.5486,2.5486,2.5526,2.5577,2.5585,2.5625,2.5684,2.5684,2.5677,2.5613,2.5541,2.5514,2.5495,2.5495,2.5495,2.5495,2.5495,2.5495,2.5495,2.5438,2.5409,2.5409,2.5322,2.5303,2.5303,2.5099,2.5022,1.2598,0.0,1.1945,1.2454,1.2214,1.2109,0.0,1.3484,1.3967,1.5278,1.576,1.6178,1.7015,1.5693,1.4758,1.5575,1.4385,1.3359,1.3359,1.3876,1.4695,1.5911,1.6316,1.6498,1.652,1.6498,1.6522,1.6522,1.6522,1.7209,1.8865,1.7407,1.725,1.8879,1.9435,1.9685,1.969,1.969,1.9718,1.9691,1.971,2.0623,2.2288,2.2295,2.2304,2.231,2.231,2.231,2.231,2.231,2.231,2.231,2.2309,2.2304,2.2442,2.3726,2.419,2.4208,2.4205,2.419,2.419,2.419,2.4191,2.4192,2.4192,2.4325,2.4452,2.4459,2.4851,2.5289,2.5302,2.5298,2.5302,2.5302,2.5303,2.5303,2.5303,2.5303,2.5303,2.5303,2.5303,2.5303,2.5322,2.5341,2.5341,2.5341,2.539,2.5428,2.5441,2.5493,2.5556,2.5625,2.5625,2.5644,2.5679,2.5611,2.5558,2.5504,2.5498,2.5498,2.5498,2.5498,2.5498,2.5498,2.5423,2.5409,2.5409,2.5322,2.5303,2.5303,2.5253,2.5224,1.2145,1.171,1.1933,1.2559,1.2369,1.2406,1.3782,1.4005,1.4288,1.5386,1.5864,1.6193,1.65,1.5531,1.4851,1.5312,1.4173,1.3281,1.3477,1.4302,1.5097,1.5625,1.6085,1.6406,1.6478,1.6492,1.6522,1.6522,1.6522,1.7008,1.818,1.8045,1.8486,1.9669,1.9701,1.9678,1.969,1.969,1.9718,1.9706,2.0518,2.1392,2.2288,2.2304,2.2315,2.231,2.231,2.231,2.231,2.231,2.231,2.231,2.231,2.2317,2.2367,2.307,2.3708,2.4194,2.4192,2.4203,2.419,2.419,2.419,2.419,2.419,2.421,2.4211,2.4198,2.4504,2.4791,2.4807,2.5057,2.5302,2.5305,2.5301,2.5303,2.5303,2.5303,2.5303,2.5303,2.5303,2.5303,2.5303,2.5303,2.5303,2.5303,2.5322,2.539,2.5447,2.5487,2.5531,2.5634,2.565,2.5664,2.5703,2.5664,2.5623,2.5601,2.5598,2.5598,2.5598,2.5598,2.5579,2.5559,2.5507,2.5473,2.5447,2.539,2.5341,2.5341,2.5303,2.5303,1.1563,1.1566,1.193,1.2313,1.2357,1.2626,1.401,1.4041,1.4133,1.5219,1.5454,1.5478,1.556,1.5074,1.4639,1.4521,1.367,1.3145,1.3599,1.4471,1.4999,1.4908,1.5706,1.6305,1.6492,1.6504,1.6522,1.6522,1.6522,1.6494,1.652,1.8545,1.9715,1.9683,1.9715,1.969,1.969,1.969,1.9718,1.9706,2.1185,2.1892,2.1903,2.2172,2.23,2.231,2.231,2.231,2.231,2.231,2.231,2.231,2.231,2.2307,2.2306,2.2298,2.2981,2.3945,2.4142,2.4196,2.419,2.419,2.419,2.419,2.419,2.419,2.4191,2.4207,2.4204,2.4199,2.42,2.4652,2.5158,2.526,2.5298,2.531,2.531,2.5301,2.5302,2.5302,2.5293,2.5303,2.5303,2.5303,2.5303,2.5303,2.5303,2.5341,2.5447,2.5466,2.5524,2.5658,2.5675,2.5683,2.5703,2.5703,2.5703,2.5703,2.5703,2.5703,2.5703,2.5703,2.5664,2.5625,2.5605,2.5573,2.5517,2.5444,2.5408,2.5409,2.5341,2.5303,1.074,1.0516,1.0769,1.1692,1.2133,1.2562,1.3669,1.3821,1.4003,1.4698,1.4835,1.4971,1.5425,1.4919,1.4581,1.5005,1.4124,1.362,1.4202,1.4564,1.5012,1.5707,1.6203,1.646,1.6524,1.6511,1.6522,1.6522,1.6522,1.6494,1.652,1.8545,1.9715,1.9683,1.9715,1.969,1.969,1.969,1.9718,1.9691,1.9981,2.0099,2.015,2.1632,2.2288,2.231,2.231,2.231,2.231,2.231,2.231,2.231,2.231,2.2304,2.2292,2.2288,2.2429,2.2739,2.3844,2.4207,2.419,2.419,2.419,2.419,2.419,2.419,2.4209,2.4191,2.4192,2.4211,2.42,2.4281,2.4529,2.5154,2.5305,2.5313,2.5313,2.5304,2.5306,2.5306,2.5299,2.5303,2.5303,2.5303,2.5303,2.5303,2.5303,2.5303,2.5322,2.5322,2.5367,2.5523,2.5537,2.559,2.5683,2.5703,2.5703,2.5703,2.5703,2.5703,2.5703,2.5703,2.5703,2.5684,2.5625,2.5585,2.5577,2.5511,2.5459,2.5409,2.539,2.5341,1.0151,0.9857,0.9962,1.1006,1.1507,1.2157,1.3777,1.3947,1.4031,1.4846,1.4842,1.4751,1.4903,1.4446,1.4059,1.3991,1.3868,1.3864,1.3912,1.4503,1.5213,1.5913,1.6136,1.6284,1.6485,1.6523,1.6522,1.6522,1.6522,1.7028,1.818,1.8623,1.9094,1.9686,1.9713,1.969,1.969,1.969,1.9687,1.9693,1.9695,2.0195,2.1135,2.1915,2.2315,2.2283,2.2293,2.231,2.231,2.231,2.231,2.231,2.231,2.231,2.2304,2.2306,2.2745,2.3411,2.3988,2.4194,2.4196,2.4188,2.419,2.419,2.419,2.419,2.419,2.419,2.419,2.419,2.4192,2.4206,2.4288,2.4626,2.471,2.4714,2.4714,2.5022,2.5297,2.5297,2.5311,2.5303,2.5303,2.5303,2.5303,2.5303,2.5303,2.5303,2.5341,2.5341,2.5389,2.548,2.5526,2.5576,2.5644,2.5684,2.5703,2.5703,2.5703,2.5703,2.5703,2.5703,2.5703,2.5703,2.5664,2.5644,2.5644,2.5597,2.5548,2.5517,2.5468,2.5428,0.9597,0.9482,0.9573,1.0633,1.1099,1.1756,1.3621,1.379,1.3788,1.4559,1.4497,1.4247,1.4179,1.4016,1.3726,1.3273,1.3633,1.3838,1.3418,1.4185,1.5017,1.5612,1.5939,1.6224,1.6492,1.6504,1.6522,1.6522,1.6522,1.7203,1.8848,1.8474,1.8592,1.9428,1.9617,1.969,1.969,1.969,1.969,1.969,1.9682,2.0381,2.1708,2.1681,2.1911,2.2308,2.231,2.231,2.231,2.231,2.231,2.231,2.231,2.231,2.2304,2.2306,2.292,2.3743,2.3759,2.3754,2.3793,2.4099,2.4196,2.4198,2.4184,2.4203,2.4205,2.4189,2.419,2.419,2.419,2.4192,2.4188,2.4188,2.4192,2.4241,2.4425,2.491,2.5297,2.5297,2.5301,2.5303,2.5303,2.5303,2.5303,2.5303,2.5303,2.5322,2.537,2.539,2.5409,2.5447,2.5507,2.5554,2.5625,2.5662,2.5675,2.5683,2.5681,2.5703,2.5703,2.5703,2.5703,2.5703,2.5703,2.5703,2.5703,2.5644,2.5625,2.5605,2.5556,2.5484,0.8967,0.9496,1.0015,1.0987,1.1288,1.1599,1.2752,1.2998,1.2988,1.3056,1.3036,1.3145,1.3478,1.3851,1.4033,1.4043,1.3769,1.3408,1.2988,1.3491,1.4116,1.473,1.5762,1.647,1.649,1.6492,1.6522,1.6522,1.6522,1.6577,1.6731,1.7909,1.8604,1.8697,1.9332,1.969,1.969,1.969,1.969,1.9711,1.9685,1.9764,1.9892,1.9906,2.0787,2.2316,2.2299,2.231,2.231,2.231,2.231,2.231,2.231,2.231,2.2304,2.2306,2.2341,2.2452,2.2428,2.2459,2.2623,2.3815,2.4206,2.4198,2.4205,2.4197,2.4203,2.4205,2.419,2.419,2.419,2.4209,2.419,2.419,2.421,2.4376,2.506,2.526,2.531,2.531,2.5294,2.5303,2.5303,2.5303,2.5303,2.5303,2.5303,2.5303,2.5303,2.5303,2.5303,2.5303,2.5322,2.5421,2.5663,2.5634,2.5607,2.5609,2.5675,2.5703,2.5703,2.5703,2.5703,2.5703,2.5703,2.5703,2.5703,2.5703,2.5664,2.5605,2.5604,2.5564,0.8784,0.9259,0.9791,1.0732,1.1514,1.2244,1.3099,1.3271,1.3496,1.4287,1.4033,1.3711,1.3867,1.397,1.4077,1.4077,1.3951,1.3848,1.3682,1.4206,1.4324,1.3639,1.4623,1.6209,1.8354,1.8539,1.828,1.7634,1.7564,1.7842,1.8511,1.9582,2.0159,2.0084,2.0372,2.0262,1.9701,2.054,2.054,1.971,1.9702,1.971,1.9745,2.0815,2.1685,2.2297,2.232,2.231,2.231,2.231,2.231,2.231,2.231,2.231,2.2293,2.2286,2.2289,2.231,2.2306,2.2449,2.2723,2.2935,2.327,2.3526,2.3135,2.356,2.4202,2.4207,2.419,2.419,2.419,2.419,2.419,2.419,2.4192,2.4282,2.4559,2.4626,2.4747,2.521,2.5289,2.5291,2.5291,2.5302,2.5297,2.5293,2.5303,2.5303,2.5303,2.5303,2.5303,2.5303,2.5303,2.5367,2.5557,2.5629,2.5622,2.5544,2.556,2.5588,2.5644,2.5644,2.5664,2.5703,2.5703,2.5703,2.5703,2.5703,2.5684,2.5664,2.5664,2.5623,0.8586,0.9082,0.9761,1.0751,1.1766,1.2727,1.3681,1.3799,1.3955,1.4824,1.4648,1.4336,1.4336,1.4336,1.4336,1.4336,1.4228,1.4077,1.4077,1.4503,1.4417,1.3406,1.4647,1.6674,1.9512,1.979,1.9525,1.8776,1.8472,1.8661,1.941,2.0093,2.0496,2.067,2.1155,2.1138,2.0552,2.1695,2.1864,2.0931,2.0933,2.0489,1.9737,2.0946,2.1795,2.2281,2.2302,2.2308,2.2358,2.3328,2.3134,2.2308,2.2308,2.2308,2.2421,2.3345,2.3704,2.3636,2.3344,2.3409,2.3532,2.2946,2.2848,2.2915,2.29,2.3508,2.4215,2.4205,2.4198,2.4206,2.4203,2.4206,2.419,2.419,2.4211,2.4207,2.4207,2.4209,2.4347,2.4847,2.4945,2.4941,2.4949,2.5158,2.5306,2.5299,2.5302,2.5303,2.5303,2.5303,2.5303,2.5303,2.5303,2.5341,2.5428,2.5519,2.5561,2.5495,2.5461,2.5488,2.5564,2.5581,2.5625,2.5664,2.5684,2.5703,2.5703,2.5703,2.5703,2.5703,2.5703,2.5684,0.8292,0.9075,1.0089,1.1223,1.2018,1.2883,1.4479,1.4453,1.4087,1.4097,1.4492,1.4795,1.4795,1.4795,1.4795,1.4795,1.4434,1.4087,1.4087,1.4087,1.4116,1.4089,1.6136,1.8127,1.9626,1.9786,1.9811,1.9811,1.9132,1.8716,1.8716,1.8923,1.9293,1.9915,2.1468,2.2312,2.2309,2.3185,2.3621,2.3621,2.3621,2.223,1.9759,1.9741,2.0679,2.2361,2.2325,2.2349,2.2576,2.5487,2.4972,2.2349,2.2349,2.2349,2.269,2.5603,2.6692,2.6557,2.5552,2.5186,2.5036,2.4096,2.3129,2.2571,2.3835,2.4212,2.4233,2.4235,2.4248,2.4233,2.4221,2.4235,2.4226,2.4208,2.4208,2.4208,2.4208,2.421,2.42,2.42,2.4211,2.4199,2.4214,2.4809,2.5278,2.5309,2.5308,2.5303,2.5303,2.5303,2.5303,2.5303,2.5303,2.5303,2.5303,2.5303,2.537,2.5486,2.537,2.537,2.5486,2.5554,2.5605,2.5605,2.5664,2.5703,2.5703,2.5703,2.5703,2.5703,2.5703,2.5703,0.8387,0.9211,1.0292,1.1262,1.241,1.3571,1.4559,1.4912,1.5117,1.543,1.5596,1.5586,1.5283,1.5225,1.5225,1.5225,1.5117,1.5029,1.5029,1.5029,1.5008,1.5024,1.6863,1.8549,1.9718,1.9826,1.9775,1.9775,1.9598,1.9485,1.9485,2.0377,2.0986,2.1172,2.2483,2.3221,2.323,2.3465,2.3583,2.3583,2.3583,2.3182,2.2415,2.244,2.3543,2.5375,2.5404,2.5401,2.5453,2.6354,2.6186,2.5401,2.5401,2.5401,2.5487,2.6371,2.6692,2.6557,2.5552,2.4972,2.4655,2.4391,2.4326,2.435,2.4385,2.5143,2.6189,2.7269,2.7586,2.7077,2.4792,2.587,2.7013,2.4746,2.421,2.421,2.421,2.4196,2.4202,2.4202,2.4206,2.4192,2.4208,2.4383,2.4714,2.5219,2.5292,2.5294,2.5292,2.5293,2.5303,2.5302,2.5293,2.5303,2.5303,2.5303,2.5322,2.537,2.5322,2.5341,2.5428,2.5445,2.5493,2.5605,2.5625,2.5644,2.5703,2.5703,2.5703,2.5703,2.5703,2.5703,0.8626,0.9268,1.0302,1.16,1.2595,1.3593,1.4975,1.5352,1.5488,1.5752,1.5801,1.5723,1.5459,1.541,1.541,1.541,1.541,1.541,1.541,1.541,1.5418,1.5405,1.6817,1.8336,1.9658,1.9795,1.9798,1.9798,1.9798,1.9798,1.9798,2.0521,2.1086,2.1342,2.2317,2.298,2.3246,2.3465,2.3595,2.3595,2.3595,2.3601,2.3616,2.3592,2.474,2.67,2.669,2.6696,2.6696,2.6696,2.6696,2.6696,2.6696,2.6696,2.6696,2.6696,2.6696,2.6627,2.6007,2.5605,2.5355,2.5355,2.5578,2.5747,2.5449,2.5987,2.6908,2.7837,2.811,2.7774,2.6446,2.7551,2.8513,2.6573,2.6109,2.6109,2.6109,2.6109,2.6109,2.6109,2.6109,2.6114,2.611,2.6098,2.5818,2.4995,2.5103,2.5297,2.5294,2.6485,2.6806,2.5444,2.5311,2.5302,2.5302,2.5302,2.5302,2.5302,2.5956,2.6245,2.6033,2.563,2.56,2.6022,2.6086,2.6191,2.6348,2.6602,2.6602,2.6387,2.6621,2.6738,0.8878,0.9342,1.0321,1.2149,1.273,1.3403,1.5581,1.5693,1.542,1.5459,1.5439,1.541,1.541,1.541,1.541,1.541,1.541,1.541,1.541,1.541,1.5426,1.5401,1.6382,1.777,1.9604,1.9811,1.9798,1.9798,1.9798,1.9798,1.9798,1.985,2.0207,2.0845,2.1472,2.21,2.2785,2.3334,2.3595,2.3595,2.3595,2.3595,2.358,2.3614,2.4697,2.6586,2.6582,2.6607,2.659,2.6691,2.6691,2.6691,2.6691,2.6691,2.6691,2.6691,2.6691,2.6691,2.6691,2.6691,2.6691,2.6691,2.6691,2.6691,2.6691,2.6702,2.6716,2.6713,2.6803,2.7245,2.8652,2.9004,2.9008,2.9,2.9003,2.9003,2.9003,2.9003,2.9003,2.9003,2.9003,2.9003,2.9003,2.9001,2.8016,2.5078,2.5222,2.5643,2.5646,2.8431,2.9212,2.6098,2.5757,2.5768,2.5768,2.5759,2.577,2.577,2.7253,2.7871,2.7341,2.6226,2.5995,2.6802,2.6942,2.7106,2.7304,2.7968,2.8027,2.7578,2.8066,2.8281,0.8923,1.0028,1.1486,1.2381,1.3687,1.4906,1.5449,1.5478,1.5508,1.585,1.5654,1.541,1.541,1.541,1.541,1.541,1.541,1.541,1.541,1.541,1.537,1.5409,1.7003,1.8538,1.9679,1.982,1.9798,1.9798,1.9798,1.9798,1.9798,2.0295,2.0881,2.1472,2.2161,2.277,2.3421,2.3551,2.3595,2.3595,2.3595,2.3595,2.358,2.3614,2.4302,2.5545,2.5786,2.5919,2.5955,2.6471,2.6691,2.6691,2.6691,2.6691,2.6691,2.6691,2.6691,2.6691,2.6691,2.6691,2.6691,2.6691,2.6691,2.6691,2.6691,2.6707,2.6687,2.6719,2.7561,2.8577,2.8907,2.901,2.9003,2.9007,2.9007,2.9007,2.9007,2.9007,2.9007,2.9007,2.9007,2.9007,2.9007,2.9008,2.8769,2.8072,2.811,2.8201,2.8202,2.9485,3.0117,2.9383,2.9298,2.9296,2.9296,2.9291,2.93,2.93,2.9657,2.9792,2.9676,2.8181,2.7477,2.7708,2.7759,2.7605,2.7298,2.7868,2.8366,2.8809,2.8418,2.8242,0.9821,1.0643,1.1789,1.3041,1.4412,1.541,1.541,1.541,1.5478,1.5703,1.5566,1.541,1.541,1.541,1.541,1.541,1.541,1.541,1.541,1.541,1.54,1.5422,1.7556,1.9088,1.9107,1.9537,1.9798,1.9798,1.9798,1.9798,1.9798,2.0156,2.0584,2.1245,2.1866,2.2529,2.3143,2.3465,2.3595,2.3595,2.3595,2.3595,2.358,2.3614,2.4082,2.4984,2.5575,2.5969,2.6232,2.6556,2.6691,2.6691,2.6691,2.6691,2.6691,2.6691,2.6691,2.6691,2.6691,2.6691,2.6691,2.6691,2.6691,2.6691,2.6691,2.6691,2.6691,2.6702,2.7286,2.7988,2.8362,2.8558,2.8688,2.8931,2.8991,2.8994,2.8994,2.8994,2.8994,2.8994,2.8994,2.8994,2.8994,2.8984,2.9005,2.9008,2.8992,2.9,2.8989,2.942,2.9718,2.9731,2.9731,2.9916,3.0357,3.04,3.0412,3.0406,3.0406,3.0406,3.0406,2.9555,2.8909,2.8536,2.8563,2.8636,2.8788,2.9165,2.9501,2.9775,2.9503,2.9406,1.0692,1.1218,1.2118,1.3927,1.4932,1.541,1.541,1.541,1.541,1.541,1.541,1.541,1.541,1.541,1.541,1.541,1.541,1.541,1.541,1.541,1.54,1.5422,1.779,1.9166,1.8496,1.927,1.9798,1.9798,1.9798,1.9798,1.9798,1.9798,2.0144,2.093,2.1424,2.2086,2.283,2.3334,2.3595,2.3595,2.3595,2.3595,2.3595,2.3591,2.3952,2.4563,2.5459,2.6068,2.6454,2.6624,2.6691,2.6691,2.6691,2.6691,2.6691,2.6691,2.6691,2.6691,2.6691,2.6691,2.6691,2.6691,2.6691,2.6691,2.6691,2.6691,2.6708,2.669,2.6698,2.6895,2.7739,2.8081,2.834,2.8778,2.8931,2.8994,2.8994,2.8994,2.8994,2.8994,2.8994,2.8994,2.8994,2.8994,2.8994,2.8994,2.8994,2.8993,2.8989,2.9013,2.9001,2.9007,2.8985,2.9311,3.0094,3.0309,3.0393,3.0398,3.0398,3.0398,3.0398,3.0398,3.0063,2.9333,2.9371,2.9737,3.0398,3.0564,3.0564,3.041,3.0574,3.0639,1.0203,1.1832,1.3602,1.4887,1.5294,1.541,1.541,1.541,1.541,1.541,1.541,1.541,1.541,1.541,1.541,1.541,1.541,1.541,1.541,1.541,1.54,1.5422,1.6892,1.8007,1.8354,1.927,1.9798,1.9798,1.9798,1.9798,1.9798,1.9798,2.0333,2.1568,2.1663,2.2271,2.3465,2.3551,2.3595,2.3595,2.3595,2.3595,2.3595,2.3593,2.3664,2.3791,2.4855,2.5335,2.5486,2.635,2.6691,2.6691,2.6691,2.6691,2.6691,2.6691,2.6691,2.6691,2.6691,2.6691,2.6691,2.6691,2.6691,2.6691,2.6691,2.6691,2.669,2.6693,2.6699,2.6931,2.7897,2.8288,2.8358,2.8322,2.8646,2.8994,2.8994,2.8994,2.8994,2.8994,2.8994,2.8994,2.8994,2.8994,2.8994,2.8994,2.8994,2.8998,2.9007,2.9007,2.9008,2.9001,2.9008,2.9049,2.9178,2.9928,3.0405,3.0398,3.0398,3.0398,3.0398,3.0398,3.034,3.0237,3.0237,3.0294,3.0398,3.0417,3.0417,3.041,3.0425,3.0505,1.1083,1.2741,1.4478,1.5187,1.541,1.5478,1.5723,1.5781,1.585,1.6103,1.6152,1.5996,1.5508,1.541,1.5498,1.5732,1.5781,1.585,1.5882,1.56,1.5543,1.5846,1.7477,1.8645,1.876,1.9982,2.074,2.074,2.074,2.0614,2.03,2.0577,2.1002,2.1609,2.1991,2.2836,2.4075,2.3762,2.3615,2.3582,2.3582,2.4402,2.5834,2.5063,2.4739,2.4804,2.5075,2.5524,2.6087,2.6505,2.6691,2.6691,2.6691,2.6691,2.6691,2.6691,2.6691,2.6691,2.6691,2.6691,2.6691,2.6691,2.6691,2.6691,2.6691,2.6691,2.6691,2.6703,2.6702,2.6798,2.7226,2.7578,2.7759,2.7706,2.8049,2.8488,2.8925,2.9009,2.8994,2.8994,2.8994,2.8994,2.8994,2.8994,2.8994,2.8994,2.8994,2.8994,2.8994,2.8994,2.8984,2.9008,2.9455,2.9772,2.9775,3.016,3.0408,3.0403,3.0403,3.039,3.0406,3.0406,3.0407,3.0398,3.0398,3.0398,3.0398,3.0398,3.0398,3.0398,3.0398,3.0417,1.1993,1.3396,1.4746,1.5283,1.5498,1.5693,1.6133,1.623,1.6328,1.667,1.6665,1.6533,1.5869,1.5742,1.585,1.6182,1.623,1.6266,1.6369,1.5996,1.5987,1.6655,1.8437,1.9474,1.9123,2.0538,2.1493,2.1493,2.1493,2.1305,2.0891,2.1267,2.161,2.1799,2.2495,2.3406,2.4468,2.4253,2.3948,2.3591,2.4297,2.5644,2.755,2.6563,2.6026,2.5871,2.5592,2.5944,2.6634,2.6759,2.6918,2.7041,2.7041,2.7028,2.6979,2.6979,2.686,2.6725,2.6911,2.686,2.6725,2.6911,2.6843,2.6691,2.6691,2.6691,2.6691,2.6691,2.6691,2.6725,2.6825,2.7083,2.7303,2.7303,2.7617,2.8092,2.8837,2.9004,2.8994,2.8994,2.8994,2.8994,2.8994,2.8994,2.8994,2.8994,2.8994,2.8994,2.8994,2.8994,2.898,2.8997,2.9636,3.0049,3.0036,3.0037,3.0039,3.0034,3.0052,3.0045,3.0038,3.0262,3.0405,3.0394,3.0407,3.04,3.0398,3.0398,3.0398,3.0398,3.0398,3.0398,1.2364,1.3302,1.4365,1.5205,1.5723,1.6143,1.6592,1.6699,1.6636,1.6728,1.6665,1.6719,1.6607,1.6597,1.667,1.6626,1.6699,1.6636,1.6655,1.6655,1.6924,1.7777,1.9427,2.0191,1.9205,2.0538,2.1493,2.1493,2.1493,2.1481,2.1443,2.1468,2.1733,2.2323,2.3119,2.3853,2.4482,2.5147,2.484,2.3652,2.618,2.7488,2.7612,2.7519,2.7072,2.6373,2.6357,2.6357,2.6445,2.6947,2.7502,2.8036,2.8036,2.7927,2.7722,2.7722,2.73,2.6793,2.752,2.73,2.681,2.7537,2.7283,2.6691,2.6691,2.6691,2.6691,2.6691,2.6691,2.6791,2.7178,2.7286,2.7303,2.7303,2.7619,2.8102,2.8834,2.8994,2.8994,2.8994,2.8994,2.8994,2.8994,2.8994,2.8994,2.8994,2.8994,2.8994,2.8994,2.8994,2.8997,2.9015,2.9035,2.9061,2.9079,2.9078,2.9059,2.9077,2.9077,2.9058,2.9075,2.992,3.0395,3.039,3.0405,3.0398,3.0398,3.0398,3.0398,3.0398,3.0398,3.0398,1.2428,1.3086,1.3867,1.4389,1.5127,1.5762,1.6201,1.6748,1.7227,1.749,1.7549,1.7549,1.7549,1.7109,1.6826,1.7109,1.7148,1.7246,1.7519,1.7549,1.8091,1.95,2.0217,2.0699,2.0892,2.1872,2.2548,2.2548,2.2548,2.2397,2.2033,2.2347,2.2488,2.2349,2.3514,2.446,2.5214,2.6332,2.6624,2.616,2.712,2.7588,2.7588,2.7588,2.7421,2.7182,2.7182,2.7057,2.693,2.7116,2.7326,2.7574,2.7938,2.8064,2.804,2.8443,2.8399,2.8197,2.8467,2.8399,2.8213,2.8467,2.8383,2.8163,2.8163,2.8163,2.8163,2.8163,2.8163,2.8198,2.8356,2.8391,2.8152,2.7156,2.7016,2.7327,2.8139,2.8651,2.8994,2.8994,2.8994,2.8994,2.8994,2.8994,2.8994,2.8994,2.8994,2.8994,2.8994,2.8994,2.9003,2.8983,2.9005,2.9012,2.9005,2.8987,2.8987,2.8987,2.8987,2.8996,2.9007,2.9326,2.9513,2.9496,3.0094,3.0399,3.0398,3.0398,3.0398,3.0398,3.0398,3.0398,1.2429,1.2928,1.3682,1.4385,1.4883,1.5469,1.6484,1.6953,1.7324,1.7891,1.8008,1.8008,1.8008,1.7549,1.7256,1.7549,1.7598,1.7686,1.7969,1.8008,1.8464,1.9607,2.074,2.1446,2.1451,2.2445,2.3078,2.3078,2.3078,2.2915,2.2611,2.2937,2.3103,2.3096,2.3985,2.5047,2.6234,2.7166,2.7625,2.7625,2.7625,2.7625,2.7625,2.7625,2.7625,2.7625,2.7625,2.7491,2.7328,2.7328,2.7462,2.7683,2.8311,2.851,2.8537,2.9143,2.9194,2.9062,2.9262,2.9194,2.9025,2.9279,2.9194,2.9011,2.9011,2.9011,2.9011,2.9011,2.9011,2.9011,2.9011,2.9011,2.874,2.7726,2.7331,2.7365,2.7884,2.8542,2.9004,2.9004,2.9002,2.8994,2.8994,2.8994,2.8994,2.8994,2.8994,2.8994,2.8994,2.8994,2.8994,2.8994,2.8994,2.8994,2.8994,2.8994,2.8994,2.8994,2.8994,2.8993,2.9003,2.9005,2.8998,2.9008,2.9607,2.9933,2.9931,3.026,3.0388,3.0398,3.0398,3.0398,0.0,0.0,0.0,1.5029,1.5049,1.5312,1.7412,1.7275,1.6934,1.7793,1.7969,1.7978,1.8008,1.8008,1.8008,1.8008,1.8008,1.8008,1.8008,1.8008,1.8008,1.7988,2.0896,2.2344,2.0828,2.2125,2.3078,2.3078,2.3078,2.3078,2.3078,2.3078,2.3533,2.4584,2.4584,2.557,2.759,2.759,2.7575,2.7625,2.7625,2.7625,2.7625,2.7625,2.7625,2.7625,2.7625,2.7625,2.7625,2.7625,2.7959,2.8559,2.9134,2.9324,2.9279,2.9916,2.9685,2.9144,2.9888,2.9651,2.9161,2.9905,2.9651,2.9042,2.9042,2.9042,2.9042,2.9042,2.9042,2.9042,2.9042,2.9025,2.9008,2.9008,2.8628,2.8203,2.8203,2.8629,2.9032,2.8995,2.8986,2.8994,2.8994,2.909,2.9127,2.9012,2.8994,2.8994,2.8994,2.8994,2.8994,2.8994,2.8994,2.8994,2.8994,2.8994,2.8994,2.8994,2.8994,2.8994,2.8994,2.8994,2.9001,2.8998,2.8998,2.8987,2.9003,2.9931,3.0404,3.0405,3.0398,3.0398,1.2083,0.0,0.0,0.0,0.0,0.0,1.5011,1.5498,1.5955,1.6654,1.6754,1.7021,1.7823,1.8008,1.8008,1.8008,1.8008,1.8008,1.8008,1.8008,1.8006,1.8016,1.8847,2.0172,2.2212,2.2823,2.3078,2.3078,2.3078,2.3078,2.3078,2.3078,2.3505,2.4359,2.4886,2.5939,2.7579,2.7594,2.7602,2.7625,2.7625,2.7625,2.7625,2.7625,2.7625,2.7625,2.7625,2.7625,2.7625,2.7625,2.771,2.7944,2.8996,2.9367,2.947,3.0496,3.0768,3.0615,3.0818,3.0751,3.0615,3.0818,3.0751,3.0581,3.0581,3.0581,3.0581,3.0581,3.0581,3.0581,3.0581,3.0192,2.9803,2.9803,2.9248,2.8778,2.8778,2.9177,2.9409,2.9058,2.8995,2.8986,2.8986,3.0931,3.1667,2.9345,2.8986,2.8986,2.8986,2.9004,2.8991,2.8991,2.9007,2.8994,2.8994,2.8994,2.8994,2.8994,2.8994,2.8994,2.8994,2.8994,2.9003,2.8997,2.8997,2.8981,2.9006,2.9941,3.0395,3.0386,3.0405,3.0414,1.1814,1.2402,1.2969,1.3311,0.0,0.0,1.4914,1.51,1.5219,1.5827,1.6496,1.7242,1.791,1.8008,1.8008,1.8008,1.8008,1.8008,1.8008,1.8008,1.8035,1.7985,1.9286,2.0887,2.2911,2.3106,2.3078,2.3078,2.3078,2.3078,2.3078,2.3078,2.3289,2.378,2.4222,2.4831,2.5724,2.6966,2.7594,2.7625,2.7625,2.7625,2.7625,2.7625,2.7625,2.7625,2.7625,2.7625,2.7625,2.7625,2.7625,2.771,2.895,2.9406,2.954,3.074,3.119,3.119,3.119,3.119,3.119,3.119,3.119,3.119,3.119,3.119,3.119,3.119,3.119,3.119,3.119,3.0886,3.0565,3.0565,3.0226,2.9905,2.9905,3.024,3.0368,2.9673,3.032,3.1,3.1,3.1952,3.2349,3.1194,3.1013,3.0998,3.1004,3.0999,3.0497,2.9138,2.8998,2.9009,2.9009,2.9009,2.9009,2.9009,2.8997,2.8997,2.9009,2.8997,2.8997,2.9009,2.9009,2.8989,2.8983,2.9547,2.9811,2.9829,3.0214,3.0388,1.164,1.2292,1.3057,1.3809,1.3437,0.0,1.5781,1.531,1.4591,1.5225,1.6457,1.7531,1.7898,1.785,1.7687,1.7465,1.7678,1.7949,1.8008,1.8008,1.7988,1.7997,2.0665,2.2707,2.3035,2.3084,2.3078,2.3078,2.3078,2.3078,2.3078,2.3078,2.3106,2.307,2.3093,2.3171,2.338,2.6211,2.7622,2.7584,2.7584,2.7619,2.7625,2.7625,2.7625,2.7625,2.7625,2.7625,2.7625,2.7625,2.7625,2.771,2.8857,2.9316,2.954,3.0699,3.1151,3.119,3.119,3.119,3.119,3.119,3.119,3.119,3.119,3.119,3.119,3.119,3.119,3.119,3.119,3.119,3.119,3.119,3.119,3.119,3.119,3.147,3.1476,3.056,3.2121,3.3629,3.3647,3.235,3.1799,3.329,3.3671,3.3808,3.3781,3.3802,3.2686,2.9849,2.9532,2.9532,2.9532,2.9532,2.9532,2.9532,2.9533,2.9369,2.9028,2.9326,2.9515,2.9532,2.9532,2.9532,2.9532,2.9175,2.9045,2.919,3.0021,3.0401,1.2004,1.248,1.292,1.3086,1.2998,0.0,1.3516,1.3426,1.3652,1.5129,1.46,1.4735,1.7511,1.6859,1.5501,1.4098,1.5806,1.7445,1.7959,1.8008,1.7986,1.8031,1.856,2.0054,2.2825,2.308,2.3078,2.3078,2.3078,2.3078,2.3078,2.3078,2.31,2.3097,2.3081,2.3722,2.4959,2.6722,2.7576,2.7586,2.7586,2.758,2.7625,2.7625,2.7625,2.7625,2.7625,2.7625,2.7625,2.7625,2.7625,2.766,2.8415,2.8966,2.9496,3.0208,3.0781,3.119,3.119,3.119,3.119,3.119,3.119,3.119,3.119,3.119,3.119,3.119,3.119,3.119,3.119,3.119,3.119,3.119,3.119,3.119,3.119,3.1252,3.1261,3.104,3.1795,3.2503,3.2731,3.2311,3.1874,3.1742,3.2883,3.3796,3.3782,3.3798,3.3552,3.2923,3.287,3.2865,3.2865,3.2865,3.2865,3.2865,3.2871,3.1691,2.9119,3.1483,3.2871,3.2865,3.2865,3.2865,3.2865,3.0277,2.9388,3.0129,3.0297,3.0396,1.2206,1.2549,1.2881,1.2881,1.2881,0.0,0.0,1.3304,1.3617,1.6185,1.47,1.3438,1.511,1.4737,1.4177,1.4177,1.5732,1.7035,1.7344,1.7744,1.7978,1.7989,1.9511,2.1192,2.2922,2.3131,2.3078,2.3078,2.3078,2.3078,2.3078,2.3078,2.3078,2.3078,2.3081,2.3469,2.4266,2.5013,2.5744,2.651,2.6871,2.7239,2.7625,2.7625,2.7625,2.7625,2.7625,2.7625,2.7625,2.7625,2.7625,2.766,2.8271,2.8685,2.8996,2.9629,3.0021,3.0293,3.0293,3.0518,3.074,3.074,3.0958,3.119,3.119,3.119,3.119,3.119,3.119,3.119,3.119,3.119,3.119,3.119,3.119,3.119,3.119,3.119,3.119,3.119,3.1439,3.1705,3.1847,3.1742,3.155,3.1265,3.1941,3.2826,3.3701,3.381,3.3785,3.3785,3.3807,3.38,3.38,3.38,3.38,3.38,3.3799,3.3067,3.1456,3.2926,3.3788,3.3792,3.3792,3.3792,3.3792,3.2177,3.163,3.2067,3.0456,3.0561,1.2674,1.2852,1.3105,1.3018,1.3057,1.3283,0.0,0.0,0.0,1.6462,1.4846,1.2889,1.2889,1.295,1.3438,1.4713,1.5785,1.6455,1.6377,1.7174,1.7819,1.8012,2.0445,2.2384,2.3013,2.3106,2.3119,2.3125,2.3072,2.3119,2.3125,2.3078,2.3078,2.3078,2.3086,2.3109,2.3109,2.3101,2.3723,2.4954,2.5926,2.6765,2.7408,2.7524,2.7625,2.7625,2.7625,2.7625,2.7625,2.7625,2.7625,2.7675,2.814,2.8383,2.8559,2.9058,2.9316,2.9406,2.9406,2.9805,3.0293,3.0293,3.0699,3.119,3.119,3.119,3.119,3.119,3.119,3.119,3.119,3.119,3.119,3.119,3.119,3.119,3.119,3.119,3.119,3.119,3.119,3.1206,3.1185,3.1207,3.1214,3.122,3.1201,3.1706,3.3138,3.3293,3.3306,3.3306,3.3306,3.3306,3.3306,3.3306,3.3306,3.3306,3.3301,3.3442,3.378,3.3817,3.3813,3.3807,3.3807,3.3807,3.3807,3.3807,3.3813,3.3747,3.1126,3.1327,1.3898,1.3902,1.3896,1.3525,1.3508,1.3509,1.3155,0.0,1.2988,1.3412,0.0,1.2897,1.2897,0.0,0.0,1.3221,1.4486,1.543,1.5059,1.6059,1.7144,1.7926,1.8312,1.9783,2.2786,2.3077,2.309,2.3088,2.3122,2.3103,2.31,2.3078,2.3078,2.3078,2.31,2.3075,2.3075,2.3097,2.317,2.3397,2.5258,2.6321,2.6669,2.7306,2.7625,2.7625,2.7625,2.7625,2.7625,2.7625,2.7625,2.7625,2.7675,2.8042,2.8511,2.8559,2.8966,2.9406,2.9406,2.9805,3.0293,3.0293,3.0699,3.119,3.119,3.119,3.119,3.119,3.119,3.119,3.119,3.119,3.119,3.119,3.119,3.119,3.119,3.119,3.119,3.119,3.119,3.1173,3.1218,3.1201,3.1184,3.1189,3.1219,3.1284,3.146,3.1497,3.1507,3.1507,3.1507,3.1507,3.1507,3.1507,3.1507,3.1507,3.152,3.22,3.3743,3.3789,3.3788,3.3807,3.3807,3.3807,3.3807,3.3807,3.3813,3.3788,3.3434,3.346,1.4253,1.3993,1.3858,1.3873,1.3537,1.3178,1.2948,1.2881,1.2881,1.2881,0.0,0.0,0.0,0.0,0.0,0.0,1.4043,1.4629,1.4666,1.5686,1.6847,1.7848,1.7098,1.8247,2.2661,2.3111,2.204,1.9445,2.1634,2.3083,2.31,2.3078,2.3078,2.3078,2.3083,2.3752,2.5052,2.3752,2.3811,2.5269,2.5543,2.6118,2.696,2.7417,2.7625,2.7625,2.7625,2.7625,2.7625,2.7625,2.7625,2.7625,2.7625,2.776,2.8008,2.8008,2.8125,2.8352,2.8352,2.8764,2.9361,3.0081,3.0477,3.074,3.1095,3.119,3.119,3.119,3.119,3.119,3.119,3.119,3.119,3.119,3.119,3.119,3.119,3.119,3.119,3.119,3.119,3.119,3.119,3.119,3.119,3.119,3.121,3.1206,3.1206,3.1219,3.119,3.119,3.119,3.119,3.119,3.119,3.119,3.119,3.12,3.198,3.3713,3.38,3.3797,3.3807,3.3807,3.3807,3.3807,3.3807,3.3815,3.3805,3.3815,3.3815,1.4629,1.4322,1.4308,1.4983,1.4214,1.3167,1.2947,1.3254,1.3521,1.3273,1.3431,0.0,0.0,0.0,1.3281,1.3477,0.0,1.4174,1.4337,1.5099,1.6105,1.7148,1.6856,1.8343,2.2704,2.3107,2.1231,1.6835,2.0609,2.3098,2.3092,2.3081,2.3131,2.3096,2.3704,2.4861,2.6469,2.4659,2.4621,2.6413,2.6085,2.6399,2.73,2.7874,2.8128,2.8128,2.8128,2.8128,2.8128,2.8128,2.8128,2.8128,2.8128,2.8128,2.8083,2.776,2.7625,2.7625,2.7625,2.7993,2.8685,2.9717,3.0038,3.0123,3.0559,3.0699,3.074,3.0918,3.0958,3.1015,3.1151,3.119,3.119,3.119,3.119,3.119,3.119,3.119,3.119,3.119,3.119,3.119,3.119,3.119,3.119,3.119,3.119,3.119,3.119,3.119,3.119,3.119,3.119,3.119,3.119,3.119,3.119,3.119,3.1199,3.176,3.3037,3.355,3.3789,3.3799,3.3789,3.3807,3.3807,3.3807,3.3807,3.3807,3.3807,3.3807,1.5357,1.5359,1.5723,1.7478,1.5978,1.3863,1.3076,1.4134,1.5068,1.4256,1.4727,1.518,1.462,1.4257,1.3965,1.3574,1.3857,0.0,0.0,1.3971,1.4481,1.5363,1.7949,2.0569,2.288,2.3092,2.1277,1.6843,2.0607,2.3107,2.3096,2.312,2.3079,2.3075,2.5242,2.6414,2.6505,2.5717,2.537,2.546,2.66,2.7152,2.7284,2.8817,2.952,2.952,2.952,2.952,2.952,2.952,2.952,2.952,2.952,2.952,2.9355,2.8053,2.7625,2.7625,2.7625,2.7993,2.8606,2.9225,2.9406,2.9451,2.9451,2.9451,2.9585,3.0166,3.0351,3.0477,3.1055,3.119,3.119,3.119,3.119,3.119,3.119,3.119,3.119,3.119,3.119,3.119,3.119,3.119,3.119,3.119,3.119,3.119,3.119,3.119,3.119,3.119,3.119,3.119,3.119,3.119,3.119,3.119,3.1199,3.1214,3.1267,3.2888,3.381,3.381,3.3817,3.3807,3.3807,3.3807,3.3807,3.3807,3.3807,3.3807,1.8838,1.7726,1.6514,1.6317,1.4784,1.3316,1.3417,1.4438,1.5099,1.3939,1.462,1.5164,1.4429,1.415,1.4038,1.3945,1.3809,1.3601,0.0,1.3916,1.4906,1.6012,1.8273,1.9533,1.882,2.0054,1.9682,1.6708,2.0594,2.3106,2.3071,2.4531,2.5356,2.537,2.6089,2.649,2.649,2.5788,2.5879,2.6922,2.7135,2.7712,2.8623,2.9289,2.9579,2.9579,2.9579,2.9579,2.9579,2.9579,2.9579,2.9579,2.9579,2.9579,2.9535,2.9071,2.8906,2.8906,2.8906,2.9049,2.927,2.943,2.9468,2.9469,2.9414,2.9406,2.9451,2.9629,2.9978,3.0351,3.0559,3.0878,3.119,3.119,3.119,3.119,3.119,3.119,3.119,3.119,3.119,3.119,3.119,3.119,3.119,3.119,3.119,3.119,3.119,3.119,3.119,3.119,3.119,3.119,3.119,3.119,3.119,3.119,3.1189,3.1175,3.1214,3.176,3.2626,3.3781,3.3798,3.3793,3.3793,3.379,3.3807,3.3807,3.3807,3.3807,2.0576,1.9524,1.8176,1.7422,1.5996,1.4702,1.4619,1.5461,1.5991,1.5111,1.5507,1.6053,1.6002,1.5226,1.4639,1.4795,1.4199,1.3523,0.0,1.4305,1.5611,1.6423,1.7977,1.8955,1.8855,1.9096,1.9141,1.8849,2.1496,2.3088,2.3118,2.528,2.6529,2.6515,2.6509,2.6489,2.6489,2.6017,2.6429,2.7723,2.7781,2.8474,2.9649,3.0095,3.0283,3.0283,3.0283,3.0283,3.0283,3.0283,3.0283,3.0283,3.0283,3.0283,3.0223,2.9759,2.9579,2.9579,2.9579,2.9579,2.9612,2.9565,2.9516,2.9526,2.9461,2.9467,2.9468,2.9438,2.9874,3.0412,3.0652,3.0941,3.1321,3.154,3.1376,3.119,3.119,3.119,3.119,3.119,3.119,3.119,3.119,3.119,3.119,3.119,3.119,3.119,3.119,3.119,3.119,3.119,3.119,3.119,3.119,3.119,3.119,3.119,3.119,3.1189,3.1199,3.121,3.1723,3.286,3.2888,3.317,3.378,3.3814,3.379,3.3807,3.3807,3.3807]},{"header":{"parameterUnit":"m.s-1","parameterCategory":1,"la1":30.6,"la2":29.2853,"lo1":-89.7004,"lo2":-87.6739,"dx":0.0162,"dy":0.0183,"nx":112,"ny":82,"refTime":"2022-12-15T18:00:00:Z","depth":0,"parameterNumber":3,"parameterNumberName":"V-component_of_WINDS"},"data":[0.0,0.0,0.0,0.0,0.0,0.0,0.0,0.0,0.0,0.0,0.0,0.0,0.0,0.0,0.0,0.0,0.0,0.0,0.0,0.0,0.0,0.0,0.0,0.0,0.0,0.0,0.0,0.0,0.0,0.0,0.0,0.0,0.0,0.0,0.0,0.0,0.0,0.0,0.0,0.0,0.0,0.0,0.0,0.0,0.0,0.0,0.0,0.0,0.0,0.0,0.0,0.0,0.0,0.0,0.0,0.0,0.0,0.0,0.0,0.0,0.0,0.0,0.0,0.0,0.0,0.0,0.0,0.0,0.0,0.0,0.0,0.0,0.0,0.0,0.0,0.0,0.0,0.0,0.0,0.0,0.0,0.0,0.0,0.0,0.0,0.0,0.0,0.0,0.0,0.0,-1.2107,-1.3044,-1.3549,-1.3717,-1.3542,-1.2681,-1.1641,-1.051,0.0,0.0,0.0,0.0,0.0,0.0,0.0,0.0,0.0,0.0,0.0,0.0,0.0,0.0,0.0,0.0,0.0,0.0,0.0,0.0,0.0,0.0,0.0,0.0,0.0,0.0,0.0,0.0,0.0,0.0,0.0,0.0,0.0,0.0,0.0,0.0,0.0,0.0,0.0,0.0,0.0,0.0,0.0,0.0,0.0,0.0,0.0,0.0,0.0,0.0,0.0,0.0,0.0,0.0,0.0,0.0,0.0,0.0,0.0,0.0,0.0,0.0,0.0,0.0,0.0,0.0,0.0,0.0,0.0,0.0,0.0,0.0,0.0,0.0,0.0,0.0,0.0,0.0,0.0,0.0,0.0,0.0,0.0,0.0,0.0,0.0,0.0,0.0,0.0,0.0,0.0,0.0,0.0,0.0,0.0,0.0,0.0,0.0,0.0,0.0,0.0,0.0,0.0,0.0,-1.1761,-1.3648,-1.4068,-1.3952,-1.3324,-1.2384,-1.1364,-1.0241,0.0,0.0,0.0,0.0,0.0,0.0,0.0,0.0,0.0,0.0,0.0,0.0,0.0,0.0,0.0,0.0,0.0,0.0,0.0,0.0,0.0,0.0,0.0,0.0,0.0,0.0,0.0,0.0,0.0,0.0,0.0,0.0,0.0,0.0,0.0,0.0,0.0,0.0,0.0,0.0,0.0,0.0,0.0,0.0,0.0,0.0,0.0,0.0,0.0,0.0,0.0,0.0,0.0,0.0,0.0,0.0,0.0,0.0,0.0,0.0,0.0,0.0,0.0,0.0,0.0,0.0,0.0,0.0,0.0,0.0,0.0,0.0,0.0,0.0,0.0,0.0,0.0,0.0,0.0,0.0,0.0,0.0,0.0,0.0,0.0,0.0,0.0,0.0,0.0,0.0,0.0,0.0,0.0,0.0,0.0,0.0,0.0,0.0,0.0,0.0,0.0,0.0,0.0,-1.1795,-1.2941,-1.4495,-1.4781,-1.447,-1.3609,-1.2633,-1.1482,-1.0073,-0.994,0.0,0.0,0.0,0.0,0.0,0.0,0.0,0.0,0.0,0.0,0.0,0.0,0.0,0.0,0.0,0.0,0.0,0.0,0.0,0.0,0.0,0.0,0.0,0.0,0.0,0.0,0.0,0.0,0.0,0.0,0.0,0.0,0.0,0.0,0.0,0.0,0.0,0.0,0.0,0.0,0.0,0.0,0.0,0.0,0.0,0.0,0.0,0.0,0.0,0.0,0.0,0.0,0.0,0.0,0.0,0.0,0.0,0.0,0.0,0.0,0.0,0.0,0.0,0.0,0.0,0.0,0.0,0.0,0.0,0.0,0.0,0.0,0.0,0.0,0.0,0.0,0.0,0.0,0.0,0.0,0.0,0.0,0.0,0.0,0.0,0.0,0.0,0.0,0.0,0.0,0.0,0.0,0.0,0.0,0.0,0.0,0.0,0.0,0.0,0.0,0.0,0.0,-1.2952,-1.4046,-1.5103,-1.5082,-1.4652,-1.3763,-1.2758,-1.1454,-0.9824,-0.9475,0.0,0.0,0.0,0.0,0.0,0.0,0.0,0.0,0.0,0.0,0.0,0.0,0.0,0.0,0.0,0.0,0.0,0.0,0.0,0.0,0.0,0.0,0.0,0.0,0.0,0.0,0.0,0.0,0.0,0.0,0.0,0.0,0.0,0.0,0.0,0.0,0.0,0.0,0.0,0.0,0.0,0.0,0.0,0.0,0.0,0.0,0.0,0.0,0.0,0.0,0.0,0.0,0.0,0.0,0.0,0.0,0.0,0.0,0.0,0.0,0.0,0.0,0.0,0.0,0.0,0.0,0.0,0.0,0.0,0.0,0.0,0.0,0.0,0.0,0.0,0.0,0.0,0.0,0.0,0.0,0.0,0.0,0.0,0.0,0.0,0.0,0.0,0.0,0.0,0.0,0.0,0.0,0.0,0.0,0.0,0.0,0.0,0.0,0.0,0.0,0.0,0.0,-1.2742,-1.4157,-1.5103,-1.4587,-1.3937,-1.3368,-1.2361,-1.0997,-0.9272,-0.9141,0.0,0.0,0.0,0.0,0.0,0.0,0.0,0.0,0.0,0.0,0.0,0.0,0.0,0.0,0.0,0.0,0.0,0.0,0.0,0.0,0.0,0.0,0.0,0.0,0.0,0.0,0.0,0.0,0.0,0.0,0.0,0.0,0.0,0.0,0.0,0.0,0.0,0.0,0.0,0.0,0.0,0.0,0.0,0.0,0.0,0.0,0.0,0.0,0.0,0.0,0.0,0.0,0.0,0.0,0.0,0.0,0.0,0.0,0.0,0.0,0.0,0.0,0.0,0.0,0.0,0.0,0.0,0.0,0.0,0.0,0.0,0.0,0.0,0.0,0.0,0.0,0.0,0.0,0.0,0.0,0.0,0.0,0.0,0.0,0.0,0.0,0.0,0.0,0.0,0.0,0.0,0.0,0.0,0.0,0.0,0.0,0.0,0.0,0.0,0.0,0.0,0.0,-1.2358,-1.3487,-1.4976,-1.4671,-1.395,-1.3009,-1.2348,-1.1183,-0.9219,0.0,0.0,0.0,0.0,0.0,0.0,0.0,0.0,0.0,0.0,0.0,0.0,0.0,0.0,0.0,0.0,0.0,0.0,0.0,0.0,0.0,0.0,0.0,0.0,0.0,0.0,0.0,0.0,0.0,0.0,0.0,0.0,0.0,0.0,0.0,0.0,0.0,0.0,0.0,0.0,0.0,0.0,0.0,0.0,0.0,0.0,0.0,0.0,0.0,0.0,0.0,0.0,0.0,0.0,0.0,0.0,0.0,0.0,0.0,0.0,0.0,0.0,0.0,0.0,0.0,0.0,0.0,0.0,0.0,0.0,0.0,0.0,0.0,0.0,0.0,0.0,0.0,0.0,0.0,0.0,0.0,0.0,0.0,0.0,0.0,0.0,0.0,0.0,0.0,0.0,0.0,0.0,0.0,0.0,0.0,0.0,0.0,0.0,0.0,0.0,0.0,0.0,-1.1502,-1.2158,-1.3152,-1.4917,-1.4627,-1.3839,-1.2676,-1.2245,-1.1095,-0.9013,0.0,0.0,0.0,0.0,0.0,0.0,0.0,0.0,0.0,0.0,0.0,0.0,0.0,0.0,0.0,0.0,0.0,0.0,0.0,0.0,0.0,0.0,0.0,0.0,0.0,0.0,0.0,0.0,0.0,0.0,0.0,0.0,0.0,0.0,0.0,0.0,0.0,0.0,0.0,0.0,0.0,0.0,0.0,0.0,0.0,0.0,0.0,0.0,0.0,0.0,0.0,0.0,0.0,0.0,0.0,0.0,0.0,0.0,0.0,0.0,0.0,0.0,0.0,0.0,0.0,0.0,0.0,0.0,0.0,0.0,0.0,0.0,0.0,0.0,0.0,0.0,0.0,0.0,0.0,0.0,0.0,0.0,0.0,0.0,0.0,0.0,0.0,0.0,0.0,0.0,0.0,0.0,0.0,0.0,0.0,0.0,0.0,0.0,0.0,0.0,0.0,0.0,-1.1307,-1.219,-1.3304,-1.49,-1.4374,-1.3454,-1.2366,-1.1876,-1.0685,0.0,0.0,0.0,0.0,0.0,0.0,0.0,0.0,0.0,0.0,0.0,0.0,0.0,0.0,0.0,0.0,0.0,0.0,0.0,0.0,0.0,0.0,0.0,0.0,0.0,0.0,0.0,0.0,0.0,0.0,0.0,0.0,0.0,0.0,0.0,0.0,0.0,0.0,0.0,0.0,0.0,0.0,0.0,0.0,0.0,0.0,0.0,0.0,0.0,0.0,0.0,0.0,0.0,0.0,0.0,0.0,0.0,0.0,0.0,0.0,0.0,0.0,0.0,0.0,0.0,0.0,0.0,0.0,0.0,0.0,0.0,0.0,0.0,0.0,0.0,0.0,0.0,0.0,0.0,0.0,0.0,0.0,0.0,0.0,0.0,0.0,0.0,0.0,0.0,0.0,0.0,0.0,0.0,0.0,0.0,0.0,0.0,0.0,0.0,0.0,0.0,0.0,0.0,-1.0917,-1.1749,-1.274,-1.4124,-1.3454,-1.2616,-1.1947,-1.1392,-1.0244,-0.8237,0.0,0.0,0.0,0.0,0.0,0.0,0.0,0.0,0.0,0.0,0.0,0.0,0.0,0.0,0.0,0.0,0.0,0.0,0.0,0.0,0.0,0.0,0.0,0.0,0.0,0.0,0.0,0.0,0.0,0.0,0.0,0.0,0.0,0.0,0.0,0.0,0.0,0.0,0.0,0.0,0.0,0.0,0.0,0.0,0.0,0.0,0.0,0.0,0.0,0.0,0.0,0.0,0.0,0.0,0.0,0.0,0.0,0.0,0.0,0.0,0.0,0.0,0.0,0.0,0.0,0.0,0.0,0.0,0.0,0.0,0.0,0.0,0.0,0.0,0.0,0.0,0.0,0.0,0.0,0.0,0.0,0.0,0.0,0.0,0.0,0.0,0.0,0.0,0.0,0.0,0.0,0.0,0.0,0.0,0.0,0.0,0.0,0.0,0.0,0.0,0.0,0.0,-1.0654,-1.1584,-1.2517,-1.3493,-1.2928,-1.2201,-1.1489,-1.109,-1.0223,-0.8653,0.0,0.0,0.0,0.0,0.0,0.0,0.0,0.0,0.0,0.0,0.0,0.0,0.0,0.0,0.0,0.0,0.0,0.0,0.0,0.0,0.0,0.0,0.0,0.0,0.0,0.0,0.0,0.0,0.0,0.0,0.0,0.0,0.0,0.0,0.0,0.0,0.0,0.0,0.0,0.0,0.0,0.0,0.0,0.0,0.0,0.0,0.0,0.0,0.0,0.0,0.0,0.0,0.0,0.0,0.0,0.0,0.0,0.0,0.0,0.0,0.0,0.0,0.0,0.0,0.0,0.0,0.0,0.0,0.0,0.0,0.0,0.0,0.0,0.0,0.0,0.0,0.0,0.0,0.0,0.0,0.0,0.0,0.0,0.0,0.0,0.0,0.0,0.0,0.0,0.0,0.0,0.0,0.0,0.0,0.0,0.0,0.0,0.0,0.0,0.0,0.0,0.0,-1.043,-1.1638,-1.2592,-1.3057,-1.2707,-1.2054,-1.1159,-1.0945,-1.0411,-0.9419,0.0,0.0,0.0,0.0,0.0,0.0,0.0,0.0,0.0,0.0,0.0,0.0,0.0,0.0,0.0,0.0,0.0,0.0,0.0,0.0,0.0,0.0,0.0,0.0,0.0,0.0,0.0,0.0,0.0,0.0,0.0,0.0,0.0,0.0,0.0,0.0,0.0,0.0,0.0,0.0,0.0,0.0,0.0,0.0,0.0,0.0,0.0,0.0,0.0,0.0,0.0,0.0,0.0,0.0,0.0,0.0,0.0,0.0,0.0,0.0,-1.0776,-0.968,0.0,0.0,0.0,0.0,0.0,0.0,0.0,0.0,0.0,0.0,0.0,0.0,0.0,0.0,0.0,0.0,0.0,0.0,0.0,0.0,0.0,0.0,0.0,0.0,0.0,0.0,0.0,0.0,0.0,0.0,0.0,0.0,0.0,0.0,0.0,0.0,0.0,0.0,0.0,0.0,-0.9983,-1.1433,-1.2584,-1.311,-1.2461,-1.1847,-1.1664,-1.0897,-1.0026,-0.9145,-0.8497,0.0,0.0,0.0,0.0,0.0,0.0,0.0,0.0,0.0,0.0,0.0,0.0,0.0,0.0,0.0,0.0,0.0,0.0,0.0,0.0,0.0,0.0,0.0,0.0,0.0,0.0,0.0,0.0,0.0,0.0,0.0,0.0,0.0,0.0,0.0,0.0,0.0,0.0,0.0,0.0,0.0,0.0,0.0,0.0,0.0,0.0,0.0,0.0,0.0,0.0,0.0,0.0,0.0,0.0,0.0,0.0,0.0,0.0,0.0,-1.159,-1.0688,0.0,0.0,0.0,0.0,0.0,0.0,0.0,0.0,0.0,0.0,0.0,0.0,0.0,0.0,0.0,0.0,0.0,0.0,0.0,0.0,0.0,0.0,0.0,0.0,0.0,0.0,0.0,0.0,0.0,0.0,0.0,0.0,0.0,0.0,0.0,0.0,0.0,0.0,0.0,0.0,-0.9868,-1.1375,-1.2452,-1.2508,-1.1872,-1.1319,-1.1105,-1.0582,-1.0088,-0.9648,-0.8838,0.0,0.0,0.0,0.0,0.0,0.0,0.0,0.0,0.0,0.0,0.0,0.0,0.0,0.0,0.0,0.0,0.0,0.0,0.0,0.0,0.0,0.0,0.0,0.0,0.0,0.0,0.0,0.0,0.0,0.0,0.0,0.0,0.0,0.0,0.0,0.0,0.0,0.0,0.0,0.0,0.0,0.0,0.0,0.0,0.0,0.0,0.0,0.0,0.0,0.0,0.0,0.0,0.0,-1.2728,-1.2966,-1.3036,-1.3032,-1.3125,-1.3233,-1.2583,-1.1953,-1.1359,-1.0754,0.0,0.0,0.0,0.0,0.0,0.0,0.0,0.0,0.0,0.0,0.0,0.0,0.0,0.0,0.0,0.0,0.0,0.0,0.0,0.0,0.0,0.0,-0.7607,-0.7377,-0.7579,-0.7654,-0.7082,0.0,0.0,0.0,0.0,0.0,0.0,0.0,0.0,0.0,0.0,0.0,-1.0051,-1.1479,-1.2318,-1.1847,-1.1319,-1.0829,-1.0467,-1.0361,-1.0283,-1.0283,-0.9332,-0.8675,0.0,0.0,0.0,0.0,0.0,0.0,0.0,0.0,0.0,0.0,0.0,0.0,0.0,0.0,0.0,0.0,0.0,0.0,0.0,0.0,0.0,0.0,0.0,0.0,0.0,0.0,0.0,0.0,0.0,0.0,0.0,0.0,-0.736,-0.8863,0.0,0.0,0.0,0.0,0.0,0.0,0.0,0.0,0.0,0.0,0.0,0.0,0.0,-1.0054,-1.0526,-1.1701,-1.2596,-1.3231,-1.3869,-1.4392,-1.4761,-1.4489,-1.435,-1.4373,-1.3981,0.0,-1.2221,-1.2144,0.0,0.0,0.0,0.0,0.0,0.0,0.0,0.0,0.0,0.0,0.0,0.0,0.0,0.0,0.0,0.0,0.0,0.0,0.0,0.0,0.0,0.0,-0.9013,-0.865,-0.8612,-0.8749,-0.9107,-0.7721,-0.6381,-0.6377,-0.6559,-0.6673,0.0,0.0,0.0,0.0,0.0,0.0,-1.0612,-1.1759,-1.2318,-1.1847,-1.1319,-1.0981,-1.0905,-1.0534,-1.0283,-1.0283,-1.0127,-0.9697,-0.8955,-0.8472,0.0,0.0,0.0,0.0,0.0,0.0,0.0,0.0,0.0,0.0,0.0,0.0,0.0,0.0,0.0,0.0,0.0,0.0,0.0,0.0,0.0,0.0,0.0,0.0,0.0,0.0,0.0,0.0,0.0,-0.0623,-0.3109,-0.5449,-0.737,-0.8382,0.0,0.0,0.0,0.0,0.0,0.0,0.0,0.0,0.0,-0.9455,-0.9791,-1.0403,-1.1315,-1.2532,-1.3306,-1.3637,-1.4371,-1.4798,-1.4865,-1.4674,-1.4444,-1.4144,-1.4118,-1.3786,-1.3288,-1.3058,-1.2768,-1.2403,0.0,0.0,0.0,0.0,-0.9653,-0.8775,-0.8046,-0.7552,-0.7197,-0.689,0.0,0.0,0.0,0.0,0.0,0.0,0.0,-0.8393,-0.8743,-0.8862,-0.8935,-0.9098,-0.9207,-0.9325,-0.9544,-0.9137,-0.8555,-0.8019,-0.8025,-0.7845,-0.7036,-0.7497,0.0,0.0,0.0,-1.0838,-1.0794,-1.1571,-1.192,-1.1394,-1.0905,-1.0611,-1.0611,-1.0428,-1.0283,-1.0283,-1.0283,-1.0117,-0.9736,-0.9082,-0.8324,0.0,0.0,0.0,0.0,0.0,0.0,0.0,0.0,0.0,0.0,0.0,0.0,0.0,0.0,0.0,0.0,0.0,0.0,0.0,0.0,0.0,0.0,0.0,0.0,0.0,0.0,0.0,0.0,0.3251,0.1297,-0.1802,-0.416,-0.5677,0.0,0.0,0.0,0.0,0.0,0.0,-0.5504,-0.5561,-0.6684,-0.9175,-0.948,-1.0417,-1.2145,-1.2896,-1.3493,-1.3968,-1.414,-1.4334,-1.4584,-1.412,-1.3846,-1.3769,-1.3771,-1.3823,-1.3923,-1.3776,-1.3761,-1.3828,-1.3303,-1.2886,-1.2479,-1.1835,-1.0937,-0.988,-0.8931,-0.8228,-0.7695,-0.7201,-0.7279,-0.754,-0.7549,0.0,0.0,0.0,0.0,-0.8453,-0.8898,-0.8973,-0.902,-0.9348,-0.9672,-0.9915,-0.992,-1.0404,-1.0527,-0.9642,-0.9455,-0.9151,-0.8138,-0.8631,0.0,-0.9144,-1.0533,-1.1462,-1.109,-1.149,-1.1553,-1.0905,-1.0505,-1.0283,-1.0283,-1.0283,-1.0283,-1.0283,-1.0283,-1.0283,-1.0283,-0.9668,-0.9107,-0.8632,0.0,0.0,0.0,0.0,0.0,0.0,0.0,0.0,0.0,0.0,0.0,0.0,0.0,0.0,0.0,0.0,0.0,0.0,0.0,0.0,0.0,0.0,0.0,0.0,0.0,0.0,0.0,0.0,0.0,0.2138,-0.023,0.0,0.0,0.0,0.0,-0.0375,-0.0295,-0.0268,-0.0364,-0.2697,-0.4912,-0.6904,-0.758,-0.9267,-1.2078,-1.1921,-1.2667,-1.4351,-1.2792,-1.2854,-1.427,-1.2729,-1.2656,-1.3667,-1.3111,-1.32,-1.3762,-1.4316,-1.4252,-1.3809,-1.3906,-1.3437,-1.2654,-1.2299,-1.1524,-1.0555,-0.9867,-0.9038,-0.8205,-0.7783,-0.7812,-0.8037,-0.8342,-0.8366,0.0,0.0,-0.8495,-0.8538,-0.8762,-0.9462,-1.0016,-0.9597,-1.0113,-1.076,-1.0829,-1.1251,-1.1411,-1.0582,-1.0414,-1.035,-1.0085,0.0,-1.0418,-1.129,-1.1525,-1.1638,-1.1727,-1.1777,-1.1442,-1.0438,-1.0322,-1.0283,-1.0283,-1.0283,-1.0283,-1.0283,-1.0283,-1.0283,-1.0283,-1.0244,-0.9824,-0.8994,-0.8642,0.0,0.0,0.0,0.0,0.0,0.0,0.0,0.0,0.0,0.0,0.0,0.0,0.0,0.0,0.0,0.0,0.0,0.0,0.0,0.0,0.0,0.0,0.0,0.0,0.0,0.0,0.0,0.0,0.4672,0.2303,0.0,-0.0296,0.0691,0.1428,0.1598,0.2379,0.2466,0.1648,0.0915,-0.0834,-0.3869,-0.4527,-0.6403,-0.9684,-1.1344,-1.2342,-1.2723,-1.2378,-1.2494,-1.2921,-1.2225,-1.198,-1.2156,-1.2281,-1.2586,-1.3042,-1.3602,-1.3934,-1.4127,-1.4211,-1.4045,-1.3648,-1.2971,-1.2248,-1.1452,-1.0386,-0.9415,-0.8571,-0.8205,-0.8294,-0.8577,-0.8971,-0.9045,-0.906,-0.9336,-0.9235,-0.9153,-0.9492,-0.9452,-0.9454,-0.9809,-1.0222,-1.0599,-1.0851,-1.1599,-1.2128,-1.1849,-1.178,-1.1537,-1.071,-1.1201,-1.1672,-1.1602,-1.219,-1.2433,-1.1875,-1.1811,-1.1404,-1.04,-1.0283,-1.0283,-1.0283,-1.0283,-1.0283,-1.0283,-1.0283,-1.0283,-1.0283,-1.0283,-1.0137,-0.9834,-0.9714,-0.8892,0.0,0.0,0.0,0.0,0.0,0.0,0.0,0.0,0.0,0.0,0.0,0.0,0.0,0.0,0.0,0.0,0.0,0.0,0.0,0.0,0.0,0.0,0.0,0.0,0.0,1.1019,0.9224,0.745,0.5497,0.4077,0.3491,0.419,0.4727,0.4912,0.5944,0.6147,0.5212,0.4908,0.3575,0.0962,-0.0799,-0.319,-0.6283,-0.9977,-1.1727,-1.1528,-1.1556,-1.1593,-1.1593,-1.122,-1.1002,-1.0949,-1.1296,-1.1662,-1.1999,-1.2571,-1.3029,-1.344,-1.3882,-1.4042,-1.3915,-1.303,-1.2248,-1.1434,-1.005,-0.8965,-0.8214,-0.8114,-0.8428,-0.8828,-0.8975,-0.9211,-0.9386,-0.9374,-0.9313,-0.9232,-0.9189,-0.9274,-0.9417,-0.941,-1.0007,-1.0585,-1.0439,-1.126,-1.1974,-1.1974,-1.2412,-1.2515,-1.1733,-1.2236,-1.2533,-1.1971,-1.2622,-1.28,-1.1646,-1.1662,-1.1404,-1.04,-1.0283,-1.0283,-1.0283,-1.002,-0.9971,-1.0264,-1.001,-0.998,-1.0273,-1.0,-0.9853,-0.9853,-0.9853,-0.9151,-0.7679,0.0,0.0,0.0,0.0,0.0,0.0,0.0,0.0,0.0,0.0,0.0,0.0,0.0,0.0,0.0,0.0,0.0,0.0,0.0,0.0,0.0,0.0,0.0,1.4229,1.3725,1.2771,1.0671,0.9439,0.8556,0.8026,0.9082,0.9818,0.9805,1.0495,1.0792,1.0533,0.9232,0.8182,0.7482,0.3705,0.0503,-0.1988,-0.7473,-1.047,-1.0952,-1.0276,-1.011,-1.0431,-0.9702,-0.965,-1.0161,-1.0173,-1.0376,-1.0742,-1.1333,-1.161,-1.1709,-1.2874,-1.3363,-1.3311,-1.2355,-1.1422,-1.0392,-0.8832,-0.7797,-0.7224,-0.7581,-0.819,-0.8722,-0.839,-0.8797,-0.9221,-0.8536,-0.861,-0.868,-0.7791,-0.8921,-0.9943,-0.8376,-0.9499,-1.0664,-0.9722,-1.0273,-1.0968,-1.0997,-1.2157,-1.3163,-1.3163,-1.3198,-1.3023,-1.2484,-1.286,0.0,-1.1125,-1.1436,-1.1394,-1.038,-1.0264,-1.0264,-1.0264,-0.9502,-0.9385,-1.0225,-0.9502,-0.9414,-1.0293,-0.9482,-0.9043,-0.9043,-0.9014,-0.8809,-0.843,0.0,0.0,0.0,0.0,0.0,0.0,0.0,0.0,0.0,0.0,0.0,0.0,0.0,0.0,0.0,0.0,0.0,0.0,0.0,0.0,0.0,1.6824,1.6834,1.6099,1.5396,1.4503,1.3338,1.2576,1.2086,1.1951,1.2246,1.2382,1.2182,1.2948,1.3283,1.3018,1.2916,1.2379,1.1311,1.2184,0.9235,0.2084,0.126,-0.2882,-1.0319,-0.9219,-0.8949,-0.9411,-0.8955,-0.8827,-0.8995,-0.9636,-1.0071,-1.0394,-1.1136,-1.1583,-1.173,-1.1727,-1.1738,-1.1597,-1.0385,-0.9478,-0.8792,-0.8108,-0.8059,-0.8263,-0.7846,-0.821,-0.8728,-0.835,-0.8561,-0.8995,-0.9125,-0.8748,-0.8406,-0.88,-0.8789,-0.8651,-0.8511,-0.8915,-0.9366,-0.9497,-0.9973,-1.0525,-1.0905,-1.1623,-1.2303,-1.2615,-1.2955,-1.3148,-1.2998,-1.281,-1.2413,-1.1656,-1.1354,-1.0856,-0.9881,-0.9805,-0.9619,-0.9235,-0.9335,-0.9504,-0.9728,-0.9868,-1.0039,-1.0273,-1.0059,-0.9932,-0.9932,-0.9316,-0.9047,0.0,0.0,0.0,0.0,0.0,0.0,0.0,0.0,0.0,0.0,0.0,0.0,0.0,0.0,0.0,0.0,0.0,0.0,0.0,0.0,0.0,0.0,1.8073,1.8354,1.8162,1.7053,1.6048,1.5533,1.5115,1.5016,1.5361,1.5401,1.533,1.5208,1.5766,1.601,1.5725,1.5714,1.5638,1.5497,1.6551,1.4844,1.0109,0.6906,0.2096,-0.4202,-0.552,-0.6916,-0.8337,-0.8462,-0.813,-0.7525,-0.8043,-0.8346,-0.8559,-0.9161,-0.9518,-0.9749,0.0,0.0,0.0,0.0,-0.8096,-0.7609,-0.7287,-0.7356,-0.754,-0.7279,-0.7586,-0.798,-0.7589,-0.7842,-0.8284,-0.8373,-0.8079,-0.7843,-0.8337,-0.8201,-0.794,-0.799,-0.8346,-0.8723,-0.8797,-0.9222,-0.9742,-1.0282,-1.0774,0.0,-1.1796,-1.2294,-1.2531,-1.2268,-1.2213,-1.1949,-1.1231,-1.1052,-1.0726,-0.9969,-0.9715,-0.9441,-0.9136,-0.905,0.0,0.0,0.0,-0.9746,-0.9746,-0.9746,0.0,0.0,0.0,-0.9603,-1.0323,-1.0063,0.0,0.0,-1.0622,-1.1061,0.0,0.0,0.0,0.0,0.0,0.0,0.0,0.0,0.0,0.0,0.0,0.0,0.0,0.0,0.0,0.0,1.9485,2.003,2.003,1.8637,1.7555,1.7435,1.7258,1.7423,1.8136,1.82,1.8226,1.8276,1.8516,1.8553,1.8239,1.7691,0.0,0.0,0.0,1.7847,1.8809,1.0517,0.5733,0.4487,-0.0448,-0.4064,-0.6459,-0.732,-0.7032,-0.5806,-0.5891,-0.5961,-0.6049,-0.6448,-0.6626,-0.6849,-0.8921,-0.9742,-0.9535,-0.7909,-0.7145,-0.687,-0.6627,0.0,0.0,-0.6449,-0.6776,-0.6972,-0.655,-0.689,-0.7312,-0.6924,-0.6917,-0.7035,-0.7169,-0.7384,-0.7504,-0.7118,-0.775,-0.8396,-0.799,-0.8278,-0.8754,-0.9328,-0.9734,-1.0176,-1.0667,-1.1319,-1.1617,-1.1088,-1.1411,-1.1362,-1.0427,-1.0656,-1.0743,-1.0205,-0.969,0.0,-0.9336,-0.8692,-0.8612,-0.9433,-0.927,-0.915,-0.915,-0.9199,-0.9395,-0.9729,-0.9787,-1.041,-1.1606,-1.1655,-1.222,-1.3264,-1.1766,-1.1832,0.0,0.0,0.0,0.0,0.0,0.0,0.0,0.0,0.0,0.0,0.0,0.0,0.0,0.0,0.0,1.9611,2.0011,2.0252,2.0252,1.9799,1.9475,1.9443,1.9306,1.9296,1.9511,1.9526,1.9463,1.9312,1.9562,1.9509,1.9011,1.8725,1.8644,1.8792,1.8181,1.7803,1.7713,1.4385,1.1045,0.7752,0.2713,0.0,-0.0533,-0.2228,-0.336,-0.4047,-0.4613,-0.4941,-0.5034,-0.5685,-0.6059,-0.6257,-0.6774,-0.6862,-0.6706,-0.6354,-0.6462,-0.6823,-0.6765,-0.6898,-0.708,-0.6819,-0.7012,-0.7176,-0.627,-0.6324,0.0,-0.6474,-0.6123,-0.601,-0.6809,-0.6785,-0.6596,-0.693,-0.7167,-0.7454,-0.7799,-0.7979,-0.8191,-0.8741,-0.8945,-0.9041,-0.9119,-1.0619,-1.174,-1.164,-1.1376,-1.11,-1.0856,-1.0598,-1.0098,-0.9188,-0.8991,-0.8765,-0.8315,-0.852,-0.8936,-0.9451,-0.9848,-1.0029,-1.0029,-1.0361,-1.0576,-1.0664,-1.1006,-1.1351,-1.1606,-1.1924,-1.2713,-1.3921,-1.358,-1.4075,0.0,0.0,0.0,0.0,0.0,0.0,0.0,0.0,0.0,0.0,0.0,1.8749,1.9209,0.0,1.9563,2.0067,2.0233,2.0312,2.0312,2.0208,2.0148,2.0155,2.0002,1.998,2.0131,2.0125,2.0083,2.0044,1.9741,1.9435,1.9163,1.8481,1.8057,1.8002,1.6987,1.6354,1.6153,1.4113,1.1997,0.9807,0.668,0.4221,0.2375,0.1385,0.0178,-0.1206,-0.1969,-0.2556,-0.3054,-0.4232,-0.4781,-0.4865,-0.4879,-0.5168,-0.5572,-0.5434,-0.559,-0.5818,-0.5652,-0.5738,-0.5861,-0.5658,-0.5738,-0.5818,-0.529,-0.5403,-0.568,-0.564,-0.527,-0.5148,-0.5927,-0.5723,-0.5534,-0.6409,-0.6596,-0.6742,-0.7314,-0.7454,-0.7623,-0.8191,-0.8299,-0.8398,-0.8635,-0.957,-1.035,-1.0629,-1.0437,-1.037,-1.0611,-1.0428,-1.0002,-0.9237,-0.891,-0.8521,-0.7976,-0.8442,-0.9067,-0.9864,-1.0157,-1.0283,-1.0283,-1.0684,-1.1006,-1.123,-1.167,-1.2002,-1.2263,-1.2441,-1.3046,-1.3935,-1.425,-1.5002,0.0,0.0,0.0,0.0,0.0,0.0,0.0,1.9767,2.0301,1.9149,1.9414,1.988,2.0022,2.0022,2.0069,2.0277,2.0312,2.0312,2.0312,2.0265,2.0265,2.0312,2.0169,2.015,2.0389,2.0355,2.0369,2.0449,1.9707,1.919,1.9064,1.8037,1.7372,1.7212,1.5779,1.4993,1.4921,1.2861,1.1566,1.1116,0.9621,0.7291,0.4248,0.402,0.3123,0.1598,0.0672,-0.0135,-0.0854,-0.2284,-0.2907,-0.2907,-0.2907,-0.3452,-0.4313,-0.4552,-0.4772,-0.4947,-0.4678,-0.4588,-0.4546,-0.4499,-0.4456,-0.4456,-0.441,-0.4587,-0.4781,-0.4688,-0.4454,-0.4361,-0.4967,-0.4778,-0.4678,-0.5775,-0.6114,-0.6319,-0.6742,-0.6852,-0.6992,-0.7496,-0.7592,-0.7694,-0.8129,-0.83,-0.8586,-0.9239,-0.9439,-0.9637,-1.0088,-1.0118,-0.9922,-0.9399,-0.8878,-0.8357,-0.7953,-0.848,-0.9239,-1.0088,-1.0118,-1.0196,-1.0283,-1.0771,-1.1201,-1.1596,-1.208,-1.2529,-1.2881,-1.2881,-1.319,-1.3815,-1.4422,-1.5287,1.6998,1.7606,1.8161,1.8824,1.9413,1.9806,0.0,2.0021,2.0301,2.0137,2.004,2.0041,2.0233,2.0115,2.0069,2.0277,2.0312,2.0312,2.0312,2.015,2.0092,2.0285,2.0285,2.0312,2.0389,2.0394,2.0369,2.0332,2.0,1.9546,1.894,1.8358,1.7666,1.6868,1.6002,1.5375,1.5068,1.3196,1.2003,1.1503,0.9028,0.7439,0.6574,0.555,0.4454,0.3262,0.1705,0.1034,0.0855,-0.0045,-0.0404,-0.0404,-0.0404,-0.0494,-0.0852,-0.2984,-0.4384,-0.5267,-0.5223,-0.5218,-0.513,-0.4798,-0.4662,-0.4618,-0.4477,-0.4441,-0.4361,-0.3899,-0.3718,-0.381,-0.4361,-0.4441,-0.4569,-0.5223,-0.5798,-0.6223,-0.6271,-0.6301,-0.6306,-0.6355,-0.6392,-0.6386,-0.6471,-0.6894,-0.7558,-0.8635,-0.9199,-0.9518,-0.9597,-0.9597,-0.9399,-0.8837,-0.8316,-0.7953,-0.7919,-0.8837,-0.9478,-0.9597,-0.9597,-0.9804,-1.0283,-1.1106,-1.1557,-1.1606,-1.2383,-1.2832,-1.2881,-1.2881,-1.319,-1.3815,-1.4422,-1.505,1.8559,1.9039,1.9324,1.9383,2.0057,2.057,2.0184,2.0553,2.0869,2.0408,2.0233,2.0197,2.0285,2.0233,2.0197,2.0285,2.0299,2.0295,2.0295,2.0262,2.0261,2.0347,2.0357,2.036,2.0344,2.0265,2.0215,2.0199,1.9603,1.9129,1.8861,1.7893,1.7069,1.6464,1.5446,1.4571,1.3935,1.2602,1.1726,1.1239,0.9853,0.8772,0.7906,0.7134,0.5825,0.4176,0.3093,0.2598,0.2553,0.2237,0.2103,0.2103,0.2103,0.2103,0.1743,-0.1162,-0.2514,-0.2968,-0.3197,-0.3242,-0.3242,-0.306,-0.3506,-0.4039,-0.3947,-0.3947,-0.3899,-0.367,-0.3581,-0.367,-0.3854,-0.3947,-0.4083,-0.4639,-0.4965,-0.5265,-0.5583,-0.5696,-0.5674,-0.5658,-0.5959,-0.6184,-0.6184,-0.6641,-0.7147,-0.7641,-0.8185,-0.8675,-0.8999,-0.9039,-0.8837,-0.8275,-0.7739,-0.753,-0.787,-0.8316,-0.8837,-0.9478,-0.9199,-0.9279,-0.9795,-1.0672,-1.1148,-1.1148,-1.2281,-1.2881,-1.2881,-1.2881,-1.3017,-1.3286,-1.392,-1.4514,1.9704,1.9934,2.0089,2.0099,2.0726,2.1272,2.1036,2.1292,2.1447,2.1097,2.0604,2.0312,2.0581,2.0427,2.0262,2.0284,2.0307,2.0289,2.0289,2.034,2.036,2.0379,2.0369,2.0342,2.0292,2.0186,2.0079,2.006,1.9348,1.8856,1.875,1.7566,1.6743,1.6374,1.5197,1.4163,1.3284,1.2494,1.1732,1.0989,1.0504,0.9776,0.8819,0.797,0.6674,0.5082,0.4208,0.3913,0.4039,0.3718,0.367,0.3806,0.367,0.3581,0.3309,0.0983,-0.009,-0.0405,-0.0719,-0.081,-0.0855,-0.1214,-0.1884,-0.2682,-0.3001,-0.309,-0.3182,-0.3493,-0.3581,-0.3581,-0.3581,-0.3581,-0.3714,-0.4083,-0.4176,-0.43,-0.4753,-0.4927,-0.5058,-0.5048,-0.5394,-0.5701,-0.5701,-0.6301,-0.6768,-0.6768,-0.7154,-0.7697,-0.8398,-0.848,-0.8275,-0.7704,-0.7483,-0.7489,-0.7751,-0.8002,-0.8434,-0.9112,-0.8873,-0.8923,-0.9357,-1.0355,-1.0904,-1.0904,-1.2244,-1.2881,-1.2881,-1.2881,-1.2881,-1.2929,-1.3505,-1.4143,2.0837,2.0523,2.0665,2.107,2.127,2.1632,2.2514,2.2187,2.1915,2.2662,2.1377,2.0377,2.1293,2.0716,2.0157,2.0276,2.0297,2.0309,2.0309,2.0308,2.0293,2.0293,2.0302,2.0305,2.0292,2.0182,2.0041,1.9915,1.9464,1.902,1.8623,1.7687,1.7069,1.6807,1.5655,1.4662,1.3783,1.3298,1.2353,1.0997,1.0478,0.9924,0.9403,0.7755,0.6693,0.6096,0.4909,0.4728,0.5154,0.4039,0.3899,0.4317,0.3806,0.3581,0.3578,0.349,0.2734,0.1711,0.1711,0.1711,0.1486,0.0315,-0.009,-0.0314,-0.1485,-0.1846,-0.2115,-0.3268,-0.3581,-0.3581,-0.3581,-0.3581,-0.3626,-0.3626,-0.3626,-0.3626,-0.367,-0.4079,-0.4437,-0.4439,-0.443,-0.4478,-0.4478,-0.5437,-0.6221,-0.6221,-0.6227,-0.6647,-0.7787,-0.7919,-0.7704,-0.7105,-0.7759,-0.8077,-0.7544,-0.8215,-0.8586,-0.8364,-0.8549,-0.8845,-0.9117,-1.0432,-1.1172,-1.1172,-1.234,-1.2881,-1.2881,-1.2881,-1.2881,-1.2929,-1.3505,-1.4143,2.1797,2.152,2.1364,2.2075,2.2293,2.2405,2.2724,2.2612,2.2513,2.2834,2.2406,2.2072,2.2435,2.1759,2.1158,2.1149,2.0707,2.0351,2.0311,2.0336,2.0375,2.0375,2.0256,2.0162,2.0163,2.0061,1.9935,1.9834,1.9198,1.8644,1.829,1.7412,1.6654,1.6019,1.5417,1.4711,1.3869,1.3377,1.2727,1.2003,1.1126,1.0283,0.9481,0.8931,0.8189,0.7265,0.6458,0.6019,0.5814,0.5034,0.4826,0.4923,0.4361,0.4131,0.4083,0.3718,0.3357,0.3004,0.3004,0.3004,0.2912,0.2504,0.1298,-0.009,-0.0494,-0.0584,-0.0674,-0.1075,-0.1794,-0.2426,-0.2426,-0.2426,-0.2426,-0.2426,-0.2426,-0.2603,-0.3448,-0.3721,-0.3862,-0.3884,-0.4176,-0.4387,-0.4387,-0.5087,-0.561,-0.561,-0.6252,-0.6732,-0.6774,-0.7287,-0.754,-0.7358,-0.7777,-0.7962,-0.7776,-0.8004,-0.8292,-0.8548,-0.8325,-0.8379,-0.8807,-0.9613,-1.0188,-1.0668,-1.1683,-1.2403,-1.2881,-1.2881,-1.2881,-1.2881,-1.3104,-1.3515,2.2549,2.2262,2.2092,2.2985,2.3192,2.3271,2.3592,2.3464,2.3384,2.373,2.3339,2.3022,2.3337,2.2728,2.225,2.246,2.206,2.1603,2.1285,2.1255,2.102,2.0341,2.0147,2.0045,2.0006,1.9882,1.9736,1.9604,1.8965,1.8412,1.7985,1.7214,1.6517,1.5886,1.5372,1.4687,1.3868,1.3376,1.2712,1.1964,1.1138,1.0322,0.9481,0.9506,0.8897,0.787,0.7252,0.6819,0.6421,0.5631,0.5423,0.5576,0.4971,0.4732,0.4639,0.4083,0.3899,0.3854,0.367,0.3581,0.3581,0.3581,0.2239,0.0584,0.0135,0.0,0.0,0.0,-0.0539,-0.1169,-0.1169,-0.1169,-0.1169,-0.1169,-0.1169,-0.1348,-0.2148,-0.3007,-0.3598,-0.3585,-0.388,-0.4092,-0.4092,-0.467,-0.5098,-0.5174,-0.5945,-0.6496,-0.6375,-0.6853,-0.7341,-0.7629,-0.7903,-0.809,-0.809,-0.8183,-0.8337,-0.8558,-0.8372,-0.8337,-0.8606,-0.9188,-0.9749,-1.0188,-1.0997,-1.1674,-1.2157,-1.2403,-1.2501,-1.2501,-1.2774,-1.3238,2.3052,2.2737,2.286,2.3739,2.3939,2.4166,2.4999,2.4717,2.4462,2.5236,2.4188,2.3338,2.4041,2.3573,2.3294,2.3995,2.4061,2.3765,2.3004,2.2832,2.2111,2.0342,2.0123,2.0057,1.9911,1.9732,1.9522,1.9253,1.8846,1.8342,1.7732,1.712,1.6659,1.6302,1.5519,1.4673,1.3844,1.3317,1.2373,1.1044,1.0579,1.007,0.9559,0.9559,0.8976,0.7952,0.7334,0.707,0.6972,0.5851,0.5719,0.6181,0.5582,0.532,0.5237,0.4626,0.4401,0.4268,0.3762,0.3581,0.3581,0.3581,0.2781,0.1621,0.045,0.009,0.009,0.0,0.0,0.0,0.0,0.0,0.0,0.0,0.0,0.0,0.0,-0.1893,-0.3533,-0.3554,-0.3598,-0.3602,-0.3602,-0.4214,-0.4704,-0.4833,-0.5349,-0.5904,-0.643,-0.6701,-0.7098,-0.7806,-0.8167,-0.8346,-0.8346,-0.8599,-0.8639,-0.836,-0.8651,-0.8684,-0.841,-0.9256,-0.9762,-0.9814,-1.0415,-1.0771,-1.0813,-1.1466,-1.1814,-1.1814,-1.2559,-1.319,2.3199,2.3301,2.3491,2.4346,2.4648,2.4781,2.499,2.5024,2.5081,2.5344,2.5099,2.4923,2.5118,2.45,2.401,2.4144,2.3625,2.3125,2.2863,2.269,2.2412,2.1919,2.1637,2.1483,2.1443,2.0584,1.9936,1.9666,1.9002,1.8335,1.7721,1.712,1.6659,1.6302,1.5519,1.485,1.4327,1.3198,1.2295,1.1605,1.1072,1.0585,1.0118,1.0118,0.9722,0.905,0.8495,0.804,0.7602,0.6881,0.6645,0.6742,0.6181,0.5699,0.5237,0.4606,0.4132,0.3762,0.3626,0.3581,0.3581,0.3581,0.2965,0.2119,0.1531,0.135,0.1169,0.027,0.0,0.0,0.0,0.0,0.0,0.0,0.0,0.0,0.0,-0.1533,-0.2918,-0.295,-0.3471,-0.3907,-0.3907,-0.4032,-0.4168,-0.4211,-0.4466,-0.479,-0.5295,-0.6432,-0.7242,-0.7448,-0.7683,-0.7893,-0.7893,-0.7953,-0.7966,-0.7899,-0.8442,-0.8778,-0.8697,-0.8922,-0.9316,-0.9814,-0.9969,-1.0312,-1.0813,-1.1466,-1.1814,-1.1814,-1.2559,-1.2968,2.3936,2.402,2.4054,2.4535,2.4787,2.4912,2.4912,2.5111,2.5313,2.5346,2.5403,2.535,2.4962,2.483,2.4763,2.4691,2.4593,2.4375,2.3956,2.3713,2.3301,2.2511,2.217,2.1979,2.1922,2.1167,2.0587,2.03,1.9136,1.8099,1.7339,1.697,1.6584,1.6108,1.5446,1.4805,1.4253,1.2867,1.2069,1.1783,1.1067,1.0537,1.0283,1.0283,1.0021,0.9481,0.9177,0.861,0.7891,0.7553,0.7216,0.6979,0.6645,0.6361,0.6006,0.5535,0.5169,0.4918,0.4781,0.4546,0.4176,0.3762,0.3274,0.2876,0.265,0.2603,0.2469,0.1791,0.1207,0.0671,0.0135,0.0,0.0,0.0,0.0,0.0,0.0,-0.0798,-0.1912,-0.3257,-0.3826,-0.4103,-0.4066,-0.4073,-0.4141,-0.4202,-0.4287,-0.4417,-0.4692,-0.5749,-0.666,-0.6979,-0.7105,-0.7235,-0.7235,-0.7235,-0.7343,-0.767,-0.8103,-0.848,-0.8804,-0.8804,-0.8956,-0.9361,-0.9361,-0.9562,-0.9917,-1.0618,-1.1065,-1.1366,-1.2089,-1.2608,2.4723,2.4606,2.4491,2.4491,2.4657,2.4839,2.4832,2.5089,2.5303,2.5303,2.537,2.5149,2.437,2.4827,2.5343,2.5264,2.5887,2.6088,2.536,2.5077,2.4353,2.2782,2.2417,2.2229,2.208,2.1657,2.1294,2.1022,1.9343,1.7996,1.7177,1.7096,1.6733,1.596,1.5504,1.4878,1.4132,1.2783,1.2069,1.1953,1.1018,1.0537,1.0478,1.0478,1.0225,0.977,0.9712,0.9164,0.826,0.8116,0.7701,0.7258,0.7167,0.707,0.6999,0.6768,0.6594,0.6515,0.6168,0.5626,0.4938,0.4106,0.3718,0.367,0.367,0.367,0.3643,0.3628,0.2898,0.1833,0.0821,0.0276,0.0,0.0,0.0,0.0,0.0,0.0,-0.0754,-0.342,-0.3904,-0.3984,-0.422,-0.4234,-0.4321,-0.4501,-0.4519,-0.4519,-0.4519,-0.5109,-0.576,-0.6367,-0.648,-0.648,-0.648,-0.648,-0.6745,-0.7343,-0.761,-0.799,-0.8646,-0.8752,-0.8804,-0.8804,-0.8804,-0.8804,-0.8804,-0.9458,-1.0115,-1.0661,-1.1366,-1.208,2.4302,2.4414,2.4506,2.4506,2.4783,2.5041,2.5054,2.5208,2.539,2.539,2.539,2.5292,2.4916,2.5013,2.513,2.505,2.5089,2.5107,2.5061,2.4785,2.446,2.4157,2.3938,2.3713,2.3398,2.2516,2.1815,2.1484,2.0052,1.9116,1.8956,1.8698,1.7956,1.6749,1.6302,1.5812,1.5236,1.4219,1.3457,1.2938,1.2396,1.1843,1.1383,1.1383,1.1334,1.1225,1.0752,1.0488,1.0203,0.9147,0.8646,0.8495,0.7948,0.7461,0.7076,0.7025,0.6684,0.6191,0.5538,0.5212,0.5081,0.4896,0.4409,0.3947,0.3947,0.3947,0.3918,0.3852,0.3705,0.3498,0.3351,0.1651,0.0,0.0,0.0,0.0,0.0,0.0,-0.0165,-0.0664,-0.1762,-0.2971,-0.4226,-0.4446,-0.4446,-0.4473,-0.4525,-0.4519,-0.4519,-0.5109,-0.5542,-0.5651,-0.5706,-0.5706,-0.5706,-0.5706,-0.576,-0.5869,-0.7009,-0.7777,-0.7883,-0.848,-0.8804,-0.8804,-0.8804,-0.8804,-0.8804,-0.9458,-0.9865,-0.9969,-1.0661,-1.1316,2.395,2.4208,2.4506,2.455,2.4827,2.5097,2.5091,2.5261,2.535,2.5225,2.5189,2.4993,2.4353,2.4613,2.4771,2.4302,2.4544,2.4814,2.4877,2.4509,2.4251,2.4237,2.3909,2.3637,2.3472,2.2807,2.2355,2.2175,2.1161,2.0135,1.9193,1.8573,1.7852,1.6928,1.6501,1.6042,1.5504,1.4569,1.3935,1.3661,1.2861,1.2348,1.2047,1.1748,1.1621,1.1577,1.1334,1.1048,1.0728,0.9739,0.9136,0.8831,0.8167,0.7739,0.7522,0.7732,0.7591,0.7336,0.7109,0.678,0.6411,0.6025,0.5023,0.3986,0.3986,0.3986,0.3992,0.3935,0.395,0.3957,0.4052,0.3172,0.1817,0.0333,0.0,0.0,0.0,0.0,0.0,0.0,-0.056,-0.1285,-0.2012,-0.2792,-0.3577,-0.4373,-0.4477,-0.4525,-0.4525,-0.4791,-0.5003,-0.5003,-0.5003,-0.5003,-0.5003,-0.5003,-0.5109,-0.5487,-0.614,-0.674,-0.7128,-0.783,-0.8209,-0.8209,-0.8586,-0.8804,-0.8804,-0.9106,-0.9465,-0.9814,-1.0115,-1.0669,2.3747,2.4153,2.4577,2.4664,2.4943,2.516,2.516,2.5258,2.5288,2.5051,2.499,2.47,2.3873,2.4216,2.4441,2.3817,2.4204,2.4601,2.4727,2.4265,2.3944,2.3936,2.3492,2.3184,2.3091,2.2797,2.2552,2.2475,2.1751,2.0684,1.927,1.8418,1.7698,1.7162,1.6728,1.625,1.5727,1.4979,1.4502,1.4207,1.3376,1.2859,1.256,1.2106,1.1865,1.1865,1.1865,1.1664,1.1177,1.0457,0.9899,0.9415,0.8626,0.833,0.833,0.8448,0.8508,0.8508,0.8567,0.8164,0.7597,0.6833,0.558,0.4291,0.4177,0.4119,0.4119,0.4119,0.4119,0.4142,0.4214,0.4275,0.3603,0.1051,0.0224,0.0,0.0,0.0,0.0,0.0,0.0,0.0,0.0,-0.0949,-0.212,-0.336,-0.3805,-0.4141,-0.448,-0.4473,-0.4522,-0.4522,-0.4519,-0.4519,-0.4519,-0.4519,-0.4732,-0.5269,-0.5433,-0.576,-0.6367,-0.7074,-0.7557,-0.7723,-0.8262,-0.8646,-0.8804,-0.8804,-0.9061,-0.9562,-0.9562,-0.9969,2.3913,2.4356,2.4799,2.4924,2.5174,2.5377,2.5377,2.5249,2.512,2.5091,2.4937,2.4727,2.4458,2.4208,2.4155,2.4364,2.4081,2.3964,2.4452,2.4079,2.3741,2.373,2.3419,2.3069,2.2791,2.2394,2.2016,2.1717,2.0895,2.0345,2.0167,1.9284,1.8556,1.8014,1.7477,1.6969,1.6398,1.6318,1.574,1.4646,1.4552,1.3935,1.2871,1.2813,1.2803,1.2803,1.2803,1.2745,1.2677,1.1914,1.1563,1.1414,1.0144,0.9647,0.9535,0.899,0.8752,0.8685,0.8035,0.7759,0.76,0.6855,0.6054,0.5262,0.4632,0.446,0.446,0.446,0.446,0.4457,0.4494,0.4484,0.4045,0.2408,0.0954,0.0,0.0,0.0,0.0,0.0,0.0,0.0,0.0,-0.0112,-0.0223,-0.0391,-0.1562,-0.2905,-0.4324,-0.4484,-0.4477,-0.4477,-0.4525,-0.4519,-0.4519,-0.4519,-0.4515,-0.457,-0.5164,-0.5538,-0.5597,-0.6312,-0.702,-0.767,-0.7777,-0.8156,-0.8804,-0.8804,-0.8857,-0.891,-0.891,-0.9256,2.3497,2.4139,2.4785,2.4772,2.4991,2.5184,2.5066,2.4973,2.4878,2.4762,2.4506,2.4265,2.4063,2.3731,2.3561,2.371,2.3549,2.3462,2.3686,2.3372,2.3097,2.3106,2.2841,2.2604,2.2474,2.204,2.1521,2.087,2.0489,2.0047,1.9489,1.9081,1.8648,1.8138,1.7573,1.705,1.6522,1.6522,1.625,1.5752,1.5073,1.4453,1.3941,1.3213,1.2881,1.2881,1.2881,1.2881,1.2813,1.2106,1.1818,1.169,1.0755,1.0167,0.9775,0.9475,0.9169,0.8752,0.8455,0.8336,0.8218,0.7512,0.7057,0.6622,0.5466,0.5089,0.5033,0.4632,0.4519,0.4519,0.4519,0.4519,0.4353,0.3744,0.3125,0.223,0.0392,0.0,0.0,0.0,0.0,0.0,0.0,0.0,0.0,0.0,-0.0503,-0.1116,-0.1732,-0.2567,-0.3463,-0.4421,-0.4525,-0.4519,-0.4519,-0.4519,-0.4519,-0.4519,-0.4732,-0.4893,-0.4893,-0.5546,-0.6086,-0.6357,-0.6799,-0.7182,-0.745,-0.7937,-0.8156,-0.8156,-0.8593,-0.8962,2.3268,2.3982,2.4704,2.4672,2.5035,2.5243,2.4764,2.4796,2.4776,2.4299,2.3971,2.3671,2.343,2.3214,2.3056,2.3018,2.3035,2.3081,2.3178,2.2912,2.2702,2.2716,2.2337,2.2077,2.2098,2.157,2.0927,2.0188,2.0111,1.9813,1.9153,1.8838,1.8444,1.786,1.7501,1.705,1.6522,1.6522,1.6398,1.6237,1.536,1.4781,1.4408,1.3537,1.3066,1.2881,1.2881,1.2881,1.2871,1.2357,1.2115,1.2048,1.1177,1.0532,1.0051,0.9657,0.9228,0.8804,0.8804,0.8804,0.8692,0.8212,0.7864,0.7488,0.619,0.5804,0.5669,0.4974,0.4632,0.4519,0.4519,0.4519,0.4519,0.4519,0.4519,0.3849,0.14,0.0783,0.067,0.0671,0.028,0.0,0.0,0.0,0.0,0.0,0.0,0.0,0.0,-0.1284,-0.2794,-0.4317,-0.448,-0.4525,-0.4519,-0.4519,-0.4519,-0.4519,-0.4519,-0.4519,-0.4519,-0.4948,-0.5269,-0.5487,-0.6036,-0.6367,-0.6588,-0.7128,-0.7396,-0.7402,-0.7883,-0.8268,2.3444,2.3987,2.456,2.4763,2.5403,2.5677,2.4574,2.4772,2.4886,2.3736,2.336,2.3098,2.2689,2.2659,2.2677,2.2638,2.265,2.2805,2.3141,2.2923,2.2694,2.2705,2.2068,2.1615,2.1624,2.0809,2.0146,1.9741,1.9711,1.9711,1.9675,1.8684,1.7873,1.7338,1.7282,1.705,1.6522,1.6522,1.6182,1.5605,1.5605,1.4982,1.3803,1.3803,1.3468,1.2881,1.2881,1.2881,1.2881,1.2881,1.2881,1.2745,1.1359,1.0816,1.0655,0.929,0.8811,0.8804,0.8804,0.8804,0.8804,0.8804,0.8277,0.7571,0.6828,0.6568,0.6428,0.5724,0.5033,0.4519,0.4519,0.4519,0.4519,0.4519,0.4519,0.4245,0.3205,0.2567,0.2161,0.2173,0.1004,0.0,0.0,0.0,0.0,0.0,0.0,0.0,0.0,-0.1287,-0.2802,-0.434,-0.4504,-0.4487,-0.4519,-0.4519,-0.4519,-0.4519,-0.4519,-0.4519,-0.4519,-0.4519,-0.4842,-0.5483,-0.5487,-0.5869,-0.6588,-0.6588,-0.6588,-0.6588,-0.6642,-0.702,2.3141,2.371,2.413,2.4075,2.4329,2.4451,2.3702,2.3481,2.3319,2.2966,2.2415,2.2003,2.1866,2.1906,2.2106,2.2584,2.2519,2.2641,2.3254,2.2524,2.1949,2.1947,2.1488,2.1067,2.0747,2.0466,2.0125,1.9741,1.969,1.9549,1.9161,1.9191,1.8784,1.7883,1.7136,1.667,1.6522,1.6522,1.6386,1.6225,1.5392,1.4789,1.4395,1.3542,1.3076,1.2881,1.2881,1.2881,1.2881,1.2881,1.2881,1.2871,1.2425,1.1633,1.0772,1.0331,0.9595,0.8804,0.8804,0.8804,0.8804,0.8804,0.8633,0.8421,0.8178,0.7041,0.569,0.5003,0.4688,0.4519,0.4519,0.4519,0.4519,0.4519,0.4519,0.4408,0.4082,0.3904,0.3788,0.3749,0.3416,0.274,0.1673,0.1506,0.1507,0.1507,0.067,0.0,0.0,-0.0392,-0.0896,-0.1398,-0.3254,-0.4497,-0.4477,-0.4473,-0.4525,-0.4519,-0.4519,-0.4519,-0.4519,-0.4519,-0.4625,-0.4787,-0.4842,-0.4952,-0.5171,-0.5601,-0.6091,-0.6588,-0.6588,-0.675,2.2776,2.3361,2.3664,2.3549,2.3839,2.3934,2.3199,2.3074,2.2972,2.2341,2.1855,2.1426,2.1108,2.136,2.1709,2.1995,2.2204,2.2451,2.2912,2.2325,2.1727,2.1419,2.1004,2.0563,2.011,2.008,1.9948,1.9726,1.969,1.9564,1.9227,1.9131,1.8796,1.8108,1.7464,1.6901,1.6522,1.6522,1.6386,1.6157,1.5392,1.4824,1.4316,1.3563,1.3135,1.2881,1.2881,1.2881,0.0,1.2881,1.2881,1.2871,1.2609,1.1792,1.0783,1.0512,0.9722,0.8804,0.8804,0.8804,0.8804,0.8804,0.8626,0.8309,0.8045,0.7214,0.6161,0.5466,0.5089,0.4805,0.4574,0.4519,0.4519,0.4519,0.4519,0.4519,0.4519,0.4519,0.4522,0.448,0.4484,0.42,0.3239,0.3072,0.3074,0.3074,0.2291,0.1284,0.0168,0.0,0.0,0.0,-0.1681,-0.3028,-0.358,-0.4144,-0.4484,-0.4477,-0.4477,-0.4477,-0.4477,-0.4477,-0.4477,-0.4477,-0.4525,-0.4525,-0.4525,-0.4897,-0.5386,-0.5828,-0.6095,-0.6204,0.0,2.292,2.3144,2.3163,2.3737,2.4008,2.2877,2.3232,0.0,2.1811,2.1472,2.1231,2.0467,2.102,2.1475,2.1178,2.184,2.2395,2.2395,2.2271,2.1903,2.1071,2.0543,2.0125,1.9822,1.9741,1.969,1.969,1.969,1.9669,1.9656,1.8724,1.8101,1.8071,1.8031,1.757,1.6522,1.6522,1.6182,1.5605,1.5538,1.4914,1.3803,1.3744,1.3409,1.2881,1.2881,1.2881,1.2881,1.2881,1.2881,1.2813,1.2164,1.1483,1.077,1.0133,0.9468,0.8871,0.8811,0.8804,0.8804,0.8804,0.8336,0.7629,0.6939,0.7139,0.7472,0.6814,0.6124,0.5436,0.4746,0.4574,0.4574,0.4519,0.4519,0.4519,0.4519,0.4519,0.4519,0.4519,0.4519,0.4522,0.4477,0.4487,0.4494,0.4494,0.4494,0.3474,0.067,0.0223,0.0112,0.0,0.0,-0.056,-0.1903,-0.3363,-0.4212,-0.4324,-0.4324,-0.4324,-0.4324,-0.4324,-0.4324,-0.4324,-0.4428,-0.448,-0.448,-0.4522,-0.4519,-0.4519,-0.5164,-0.5433,2.2381,0.0,2.2825,2.2819,2.297,2.2893,0.0,2.179,2.1507,2.0742,2.0354,2.0248,2.055,2.092,2.1472,2.2451,2.2909,2.3139,2.3139,2.2098,2.1183,2.0829,2.0238,2.0014,2.04,2.0014,1.969,1.969,1.969,1.9537,1.9114,1.8831,1.8337,1.7528,1.7499,1.7188,1.6522,1.6522,1.6182,1.5593,1.5124,1.4508,1.3793,1.333,1.3008,1.2881,1.2881,1.2881,1.2881,1.2881,1.2881,1.2881,1.2686,1.2173,1.1496,1.0813,1.0144,0.9475,0.899,0.8804,0.8804,0.8804,0.8685,0.8508,0.833,0.7611,0.6839,0.6668,0.6485,0.6188,0.5436,0.5262,0.5148,0.4632,0.4519,0.4519,0.4519,0.4519,0.4519,0.4519,0.4519,0.4519,0.4522,0.4525,0.4525,0.4525,0.4477,0.4255,0.3519,0.2399,0.1228,0.0112,0.0,-0.0168,-0.0504,-0.0838,-0.1563,-0.2681,-0.2736,-0.2736,-0.2736,-0.2736,-0.2736,-0.2736,-0.3913,-0.448,-0.448,-0.4522,-0.4519,-0.4519,-0.468,-0.4732,2.2253,2.2859,2.3293,2.3251,2.3264,2.3089,2.2272,2.1669,2.1083,2.0418,2.0124,2.0086,2.0466,2.0798,2.1408,2.2701,2.2903,2.3004,2.3342,2.2777,2.2069,2.1408,2.0868,2.0441,2.0258,1.9918,1.969,1.969,1.969,1.9479,1.8908,1.8686,1.8166,1.7325,1.705,1.6807,1.6522,1.6522,1.6182,1.5605,1.5252,1.4633,1.3793,1.3468,1.3144,1.2881,1.2881,1.2881,1.2881,1.2881,1.2881,1.2881,1.2881,1.2434,1.1768,1.1377,1.0617,0.9775,0.9408,0.9049,0.8804,0.8804,0.8804,0.8804,0.8804,0.8218,0.7518,0.7225,0.7084,0.6933,0.6185,0.5727,0.5436,0.5033,0.4746,0.4519,0.4519,0.4519,0.4519,0.4519,0.4519,0.4519,0.4519,0.4519,0.4519,0.4519,0.4522,0.4477,0.4487,0.3752,0.2965,0.213,0.084,0.0,0.0,0.0,-0.0335,-0.1118,-0.1174,-0.1174,-0.1174,-0.1174,-0.1173,-0.1172,-0.2007,-0.3128,-0.4487,-0.4477,-0.4525,-0.4525,-0.4519,-0.4519,2.2451,2.3325,2.406,2.3779,2.3865,2.3746,2.2751,2.204,2.1352,2.0567,2.0416,2.0447,2.0556,2.0939,2.1601,2.2684,2.2638,2.2654,2.3203,2.3385,2.3096,2.2102,2.1518,2.087,1.9918,1.9756,1.969,1.969,1.969,1.9483,1.892,1.8384,1.783,1.7338,1.6764,1.6522,1.6522,1.6522,1.6182,1.5605,1.5533,1.4906,1.382,1.3721,1.3399,1.2881,1.2881,1.2881,1.2881,1.2881,1.2881,1.2881,1.2881,1.2492,1.1923,1.1856,1.1023,0.9918,0.9693,0.9288,0.8804,0.8804,0.8804,0.8804,0.8804,0.8804,0.8685,0.8041,0.7864,0.7688,0.6939,0.6318,0.5808,0.5716,0.5262,0.4805,0.4805,0.4746,0.4632,0.4632,0.4574,0.4519,0.4519,0.4519,0.4519,0.4519,0.4519,0.4525,0.4487,0.449,0.4386,0.4179,0.1852,0.0224,0.0,0.0,0.0,0.0,0.0,0.0,0.0,0.0,0.0,0.0,0.0,-0.1284,-0.3814,-0.403,-0.4252,-0.448,-0.4525,-0.4519,2.4123,2.4626,2.4474,2.3196,2.3432,2.3626,2.2089,2.1694,2.146,2.0991,2.0894,2.1085,2.1625,2.2118,2.2669,2.3441,2.3391,2.3123,2.2839,2.2003,2.1439,2.1421,2.0553,2.0146,2.0497,2.0029,1.969,1.969,1.969,1.9483,1.892,1.8384,1.783,1.7338,1.6764,1.6522,1.6522,1.6522,1.6182,1.5593,1.5057,1.4469,1.3784,1.3256,1.2998,1.2881,1.2881,1.2881,1.2881,1.2881,1.2881,1.2881,1.2881,1.2813,1.2677,1.2039,1.1305,1.0483,0.9332,0.8871,0.8804,0.8804,0.8804,0.8804,0.8804,0.8804,0.8752,0.8685,0.8626,0.8455,0.7747,0.7423,0.7208,0.6564,0.6368,0.6253,0.6253,0.5784,0.5321,0.5321,0.486,0.4519,0.4519,0.4519,0.4519,0.4519,0.4519,0.4519,0.4522,0.4522,0.4018,0.2683,0.2122,0.1341,0.0112,0.0,0.0,0.0,0.0,0.0,0.0,0.0,0.0,0.0,0.0,-0.0223,-0.067,-0.1952,-0.3239,-0.448,-0.4477,-0.4525,2.406,2.4708,2.4813,2.3336,2.3593,2.3859,2.2482,2.1892,2.1606,2.1601,2.1295,2.1263,2.22,2.2244,2.2283,2.2831,2.3543,2.3772,2.3154,2.2765,2.2344,2.1802,2.1124,2.0564,2.0177,1.9867,1.969,1.969,1.969,1.9332,1.85,1.8221,1.7728,1.6888,1.6615,1.6522,1.6522,1.6522,1.6373,1.6089,1.5807,1.5357,1.473,1.4164,1.3675,1.3389,1.3066,1.2881,1.2881,1.2881,1.2881,1.2881,1.2881,1.2881,1.2813,1.2048,1.1589,1.1166,0.9814,0.9348,0.9288,0.8923,0.8804,0.8804,0.8804,0.8804,0.8804,0.8804,0.8804,0.8745,0.8389,0.7982,0.76,0.7295,0.6563,0.599,0.599,0.5433,0.4974,0.4974,0.4691,0.4519,0.4519,0.4519,0.4519,0.4519,0.4519,0.4519,0.4525,0.4525,0.4249,0.3524,0.2009,0.0726,0.0056,0.0,0.0,0.0,0.0,0.0,0.0,0.0,0.0,0.0,0.0,0.0,-0.0,-0.067,-0.1395,-0.212,-0.3749,-0.4484,2.4055,2.4541,2.4777,2.3743,2.3939,2.4102,2.2895,2.2175,2.1853,2.21,2.1696,2.1627,2.2692,2.254,2.2398,2.276,2.3613,2.3968,2.3241,2.3262,2.3014,2.2091,2.1541,2.0859,1.9918,1.9756,1.969,1.969,1.969,1.9359,1.8522,1.8234,1.772,1.6888,1.6607,1.6522,1.6522,1.6522,1.6522,1.6522,1.6225,1.5852,1.5342,1.4624,1.4026,1.3537,1.3076,1.2881,1.2881,1.2881,1.2881,1.2881,1.2881,1.2881,1.2813,1.2048,1.1805,1.1645,1.0454,1.0022,0.9977,0.9432,0.9288,0.9228,0.9102,0.9049,0.899,0.8864,0.8804,0.8804,0.8804,0.8389,0.7976,0.7976,0.7109,0.6269,0.626,0.5579,0.4974,0.4974,0.4746,0.4519,0.4519,0.4519,0.4519,0.4519,0.4519,0.4522,0.4473,0.4477,0.448,0.4487,0.2456,0.0781,0.0056,0.0336,0.0672,0.1009,0.0392,0.0,0.0,0.0,0.0,0.0,0.0,0.0,0.0,0.0,0.0,-0.0056,-0.2348,-0.3638,2.5148,2.4577,2.3884,2.4248,2.4346,2.4048,2.2654,2.2288,2.2271,2.2276,2.2242,2.2428,2.3228,2.387,2.4306,2.4323,2.3849,2.3224,2.2496,2.2015,2.1737,2.1633,2.0917,2.0339,2.0273,1.9918,1.969,1.969,1.969,1.9669,1.9589,1.8627,1.8045,1.7977,1.7028,1.6522,1.6522,1.6522,1.6522,1.6466,1.5379,1.4826,1.472,1.3553,1.2989,1.2949,1.2939,1.2881,1.2881,1.2881,1.2881,1.2881,1.2881,1.2881,1.2813,1.2048,1.1816,1.1688,1.1,1.0712,1.073,1.0665,1.0651,1.0522,0.9903,0.9715,0.9595,0.899,0.8804,0.8804,0.8804,0.8752,0.8745,0.8745,0.8633,0.8572,0.8568,0.7422,0.6428,0.6428,0.5376,0.4519,0.4519,0.4519,0.4519,0.4519,0.4519,0.4519,0.4519,0.4519,0.4519,0.4519,0.4294,0.3065,0.0224,0.1231,0.2635,0.4113,0.157,0.0,0.0,0.0,0.0,0.0,0.0,0.0,0.0,0.0,0.0,-0.0,-0.0223,-0.106,2.4467,2.381,2.3067,2.3549,2.3872,2.3902,2.3153,2.2987,2.3376,2.4746,2.4306,2.3748,2.4019,2.432,2.4506,2.4506,2.4286,2.3985,2.3697,2.3295,2.2924,2.2588,2.1988,2.151,2.1207,2.1046,2.0936,2.0923,2.0932,2.0798,2.0469,1.9668,1.9047,1.8728,1.7945,1.7536,1.7583,1.7543,1.7543,1.7514,1.6386,1.5819,1.5776,1.4575,1.4015,1.4,1.3213,1.2881,1.2881,1.2881,1.2881,1.2881,1.2881,1.2881,1.2871,1.2609,1.2483,1.2366,1.1674,1.1438,1.1329,1.0939,1.0543,1.0108,0.988,0.9519,0.9109,0.8871,0.8804,0.8804,0.8804,0.8804,0.8804,0.8804,0.8448,0.8125,0.8098,0.7295,0.6573,0.6579,0.6188,0.5665,0.5203,0.5148,0.4974,0.4574,0.4519,0.4519,0.4519,0.4519,0.4519,0.4519,0.4519,0.4018,0.2912,0.2411,0.2863,0.4389,0.2517,0.0949,0.0056,0.0,0.0,0.0,0.0,0.0,0.0,0.0,0.0,0.0,0.0,-0.028,2.375,2.3355,2.2995,2.3454,2.3727,2.3936,2.4058,2.39,2.4171,2.5676,2.5372,2.4831,2.4831,2.4831,2.4831,2.4831,2.4644,2.4506,2.4506,2.4257,2.3875,2.3338,2.2881,2.2431,2.1958,2.1787,2.1685,2.1695,2.1724,2.1562,2.1182,2.0536,1.9966,1.936,1.8799,1.8375,1.8183,1.8204,1.8184,1.8195,1.741,1.6965,1.6708,1.5429,1.484,1.4817,1.3734,1.3272,1.3302,1.3266,1.3289,1.3272,1.3272,1.3272,1.3273,1.3275,1.3275,1.3237,1.2674,1.2512,1.2447,1.2009,1.1516,1.1115,1.0923,1.0344,0.9722,0.9535,0.9228,0.893,0.9049,0.893,0.8804,0.8804,0.8396,0.8041,0.8041,0.7459,0.6924,0.6949,0.6742,0.645,0.5932,0.5635,0.5321,0.486,0.4632,0.4519,0.4519,0.4519,0.4519,0.4519,0.4519,0.4525,0.4484,0.353,0.3365,0.4438,0.3522,0.2454,0.1452,0.0502,0.0,0.0,0.0,0.0,0.0,0.0,0.0,0.0,0.0,0.0,2.3253,2.3337,2.3768,2.4204,2.4104,2.4229,2.5334,2.5033,2.4523,2.454,2.5101,2.5625,2.5625,2.5625,2.5625,2.5625,2.5,2.4523,2.4523,2.4523,2.4326,2.3799,2.3369,2.2891,2.2379,2.1975,2.1715,2.1715,2.172,2.1721,2.1721,2.1201,2.0599,1.9915,1.9415,1.8805,1.8227,1.8196,1.8207,1.8207,1.8207,1.7922,1.7252,1.5844,1.5232,1.5154,1.4429,1.4101,1.4107,1.4128,1.4128,1.4101,1.4101,1.4101,1.4109,1.4119,1.4118,1.4121,1.4091,1.4105,1.4093,1.4123,1.4104,1.3967,1.328,1.2537,1.1754,1.1109,1.0106,0.9302,0.9602,0.9242,0.8818,0.8811,0.8811,0.8811,0.8811,0.8218,0.7747,0.7747,0.7114,0.6654,0.6601,0.6013,0.5546,0.5495,0.4919,0.4519,0.4519,0.4519,0.4519,0.4519,0.4519,0.4519,0.4519,0.4519,0.4473,0.4494,0.4473,0.4473,0.4494,0.1619,0.0056,0.0,0.0,0.0,0.0,0.0,0.0,0.0,0.0,0.0,2.2887,2.2799,2.2847,2.4014,2.489,2.5523,2.5603,2.5828,2.6184,2.6725,2.7012,2.6996,2.6471,2.637,2.637,2.637,2.6184,2.6031,2.6031,2.6031,2.5863,2.5379,2.4883,2.4393,2.3814,2.3316,2.3051,2.3051,2.3048,2.3016,2.3016,2.2044,2.1356,2.1172,2.0156,1.9484,1.9321,1.9343,1.9354,1.9354,1.9354,1.8856,1.791,1.6529,1.588,1.5856,1.4593,1.408,1.4109,1.4087,1.407,1.408,1.408,1.408,1.4128,1.4096,1.4118,1.4121,1.4091,1.4128,1.4092,1.4082,1.3763,1.3359,1.3171,1.2604,1.2004,1.1786,1.1076,1.0394,1.0524,0.9996,0.9434,0.9437,0.9415,0.9415,0.9415,0.9288,0.9109,0.9109,0.893,0.8626,0.81,0.7688,0.7203,0.6699,0.5839,0.5089,0.4688,0.4574,0.4519,0.4632,0.4574,0.4519,0.4519,0.4519,0.4522,0.4473,0.4522,0.4525,0.4484,0.3633,0.2174,0.0056,0.0,0.0,0.0,0.0,0.0,0.0,0.0,0.0,2.3381,2.368,2.4123,2.502,2.5823,2.6393,2.6468,2.659,2.6826,2.7283,2.7368,2.7232,2.6776,2.6691,2.6691,2.6691,2.6691,2.6691,2.6691,2.6691,2.6438,2.5765,2.5407,2.4894,2.4167,2.3801,2.3595,2.3595,2.3595,2.3595,2.3595,2.2891,2.2317,2.21,2.1086,2.0421,2.0207,1.9952,1.9798,1.9798,1.9798,1.9455,1.8785,1.7697,1.7003,1.6684,1.5255,1.4646,1.4646,1.4646,1.4646,1.4646,1.4646,1.4646,1.4646,1.4646,1.4646,1.4608,1.4639,1.4634,1.4639,1.4639,1.4325,1.3979,1.4034,1.3528,1.2907,1.2907,1.2005,1.1081,1.1226,1.0576,0.9818,0.9737,0.9697,0.9697,0.9697,0.9697,0.9697,0.9697,0.9697,0.9569,0.9118,0.8669,0.8202,0.7761,0.6903,0.6073,0.5376,0.5208,0.5089,0.4831,0.4691,0.4632,0.4632,0.4632,0.4632,0.4632,0.4635,0.4687,0.4649,0.4577,0.3655,0.1934,0.0626,0.0,0.0,0.0,0.0,0.0,0.0,0.0,2.4392,2.5324,2.654,2.6659,2.669,2.6883,2.7539,2.7182,2.6708,2.6776,2.6742,2.6691,2.6691,2.6691,2.6691,2.6691,2.6691,2.6691,2.6691,2.6691,2.632,2.538,2.5226,2.4798,2.3782,2.361,2.3595,2.3595,2.3595,2.3595,2.3595,2.3551,2.3246,2.2649,2.1946,2.1342,2.0696,2.0105,1.9798,1.9798,1.9798,1.9798,1.9786,1.9037,1.8274,1.7513,1.6131,1.5517,1.5507,1.541,1.541,1.541,1.541,1.541,1.541,1.541,1.541,1.541,1.541,1.541,1.541,1.541,1.541,1.541,1.541,1.4877,1.428,1.4203,1.2856,1.1495,1.1722,1.0989,1.0059,0.9844,0.9775,0.9775,0.9775,0.9775,0.9775,0.9775,0.9775,0.9775,0.9775,0.9214,0.8699,0.8635,0.8013,0.7293,0.6454,0.6303,0.601,0.525,0.5065,0.5009,0.5009,0.4949,0.4893,0.4893,0.4928,0.4914,0.4882,0.4683,0.4642,0.4786,0.1943,0.0414,0.0238,0.0244,0.0183,0.0,0.0,0.0,2.4188,2.4976,2.595,2.6552,2.6718,2.6753,2.6894,2.681,2.686,2.7452,2.7114,2.6691,2.6691,2.6691,2.6691,2.6691,2.6691,2.6691,2.6691,2.6691,2.6488,2.59,2.5447,2.4939,2.4301,2.3831,2.3595,2.3595,2.3595,2.3595,2.3595,2.3143,2.2589,2.1946,2.1307,2.0683,2.0003,1.985,1.9798,1.9798,1.9798,1.9798,1.9786,1.9037,1.8313,1.7556,1.6666,1.6275,1.6218,1.5671,1.541,1.541,1.541,1.541,1.541,1.541,1.541,1.541,1.541,1.541,1.541,1.541,1.541,1.541,1.541,1.5264,1.5022,1.4357,1.3442,1.25,1.1974,1.1136,1.0485,1.0415,1.0415,1.0415,1.0415,1.0415,1.0415,1.0415,1.0415,1.0415,1.0415,1.0059,0.9487,0.8717,0.846,0.8153,0.7491,0.7283,0.7161,0.7122,0.6361,0.5894,0.5894,0.5297,0.4903,0.4903,0.4896,0.4919,0.49,0.4842,0.4783,0.4823,0.4273,0.3389,0.2148,0.2132,0.1363,0.0,0.0,0.0,2.4932,2.5695,2.6478,2.6887,2.6822,2.6691,2.6691,2.6691,2.681,2.7199,2.6962,2.6691,2.6691,2.6691,2.6691,2.6691,2.6691,2.6691,2.6691,2.6691,2.6539,2.6051,2.5545,2.4989,2.4456,2.3912,2.3595,2.3595,2.3595,2.3595,2.3595,2.329,2.286,2.2193,2.1582,2.0917,2.0295,1.9952,1.9798,1.9798,1.9798,1.9798,1.9786,1.9037,1.8312,1.7575,1.6847,1.6306,1.5918,1.5565,1.541,1.541,1.541,1.541,1.541,1.541,1.541,1.541,1.541,1.541,1.541,1.541,1.541,1.541,1.541,1.541,1.5332,1.4877,1.4204,1.35,1.3075,1.2049,1.1156,1.1178,1.0911,1.0624,1.0624,1.0624,1.0624,1.0624,1.0624,1.0624,1.0624,1.0478,1.0129,0.9636,0.956,0.9283,0.8587,0.8436,0.8242,0.7897,0.7344,0.6907,0.6453,0.6047,0.5568,0.5156,0.5156,0.5156,0.5156,0.5145,0.5098,0.4967,0.5036,0.4728,0.3982,0.3969,0.3492,0.254,0.1675,0.1284,2.5654,2.6428,2.7059,2.7187,2.6939,2.6691,2.6691,2.6691,2.6691,2.6691,2.6691,2.6691,2.6691,2.6691,2.6691,2.6691,2.6691,2.6691,2.6691,2.6691,2.6539,2.6051,2.5525,2.4978,2.4433,2.3903,2.3595,2.3595,2.3595,2.3595,2.3595,2.3595,2.3275,2.2543,2.1993,2.1328,2.0646,2.0105,1.9798,1.9798,1.9798,1.9798,1.9798,1.9189,1.8546,1.7928,1.7092,1.6368,1.5738,1.5526,1.541,1.541,1.541,1.541,1.541,1.541,1.541,1.541,1.541,1.541,1.541,1.541,1.541,1.541,1.541,1.541,1.5342,1.5255,1.4723,1.415,1.383,1.2797,1.1811,1.1774,1.1178,1.0624,1.0624,1.0624,1.0624,1.0624,1.0624,1.0624,1.0624,1.0624,1.0624,1.0624,1.0624,1.0338,0.9629,0.9497,0.9214,0.8318,0.8106,0.7649,0.6741,0.6581,0.6184,0.5428,0.5428,0.5428,0.5428,0.5428,0.5301,0.5172,0.5179,0.5243,0.5428,0.5389,0.5389,0.5362,0.3889,0.3153,2.5095,2.5666,2.641,2.6719,2.6758,2.6691,2.6691,2.6691,2.6691,2.6691,2.6691,2.6691,2.6691,2.6691,2.6691,2.6691,2.6691,2.6691,2.6691,2.6691,2.6539,2.6051,2.5521,2.5013,2.4467,2.3903,2.3595,2.3595,2.3595,2.3595,2.3595,2.3595,2.3084,2.1852,2.1758,2.1135,1.9952,1.985,1.9798,1.9798,1.9798,1.9798,1.9798,1.9709,1.9594,1.9438,1.8058,1.7413,1.7191,1.5911,1.541,1.541,1.541,1.541,1.541,1.541,1.541,1.541,1.541,1.541,1.541,1.541,1.541,1.541,1.541,1.541,1.5255,1.4569,1.4271,1.387,1.2493,1.1935,1.1819,1.1804,1.1212,1.0624,1.0624,1.0624,1.0624,1.0624,1.0624,1.0624,1.0624,1.0624,1.0624,1.0624,1.0624,1.0555,1.0415,1.0415,1.0059,0.9214,0.8455,0.7648,0.6803,0.6021,0.5498,0.5428,0.5428,0.5428,0.5428,0.5428,0.5418,0.5332,0.5332,0.5342,0.5428,0.5432,0.5432,0.5362,0.516,0.5036,2.504,2.5555,2.5985,2.6572,2.6691,2.681,2.7232,2.7334,2.7452,2.7892,2.7977,2.7706,2.686,2.6691,2.6843,2.7249,2.7334,2.7452,2.7929,2.7998,2.7896,2.7725,2.6913,2.6261,2.6059,2.5234,2.4717,2.4717,2.4717,2.4567,2.4193,2.4522,2.4159,2.2871,2.2476,2.1957,2.1394,2.0656,2.0438,2.0772,2.0772,2.0749,2.0734,2.0752,1.9944,1.8522,1.7886,1.7135,1.6301,1.569,1.541,1.541,1.541,1.541,1.541,1.541,1.541,1.541,1.541,1.541,1.541,1.541,1.541,1.541,1.541,1.541,1.5332,1.4954,1.4877,1.4702,1.4022,1.3451,1.3166,1.3141,1.2196,1.1293,1.1248,1.0918,1.0624,1.0624,1.0624,1.0624,1.0624,1.0624,1.0624,1.0624,1.0624,1.0624,1.0624,1.0624,1.0478,1.0059,0.9713,0.9102,0.8257,0.78,0.7371,0.688,0.688,0.6668,0.6117,0.6117,0.5911,0.5428,0.5428,0.5428,0.5428,0.5428,0.5428,0.5428,0.5428,0.5432,2.4725,2.5195,2.5541,2.6471,2.6843,2.7182,2.7943,2.8112,2.8281,2.8873,2.9011,2.8636,2.7486,2.7266,2.7452,2.8027,2.8112,2.8317,2.8932,2.9007,2.899,2.8994,2.7988,2.7301,2.731,2.6287,2.5615,2.5615,2.5615,2.539,2.4896,2.5345,2.5079,2.3999,2.3294,2.2801,2.2618,2.1457,2.1095,2.1523,2.1496,2.1518,2.1524,2.151,2.0334,1.8284,1.8339,1.7665,1.6643,1.6478,1.6254,1.6088,1.6088,1.5841,1.5576,1.5576,1.5508,1.543,1.5537,1.5508,1.543,1.5537,1.5498,1.541,1.541,1.541,1.541,1.541,1.541,1.5352,1.5177,1.4628,1.4213,1.4213,1.3099,1.1997,1.1578,1.0989,1.0624,1.0624,1.0624,1.0624,1.0624,1.0624,1.0624,1.0624,1.0624,1.0624,1.0624,1.0624,1.0548,1.0268,1.0277,0.9909,0.904,0.8969,0.8685,0.8048,0.7982,0.77,0.7073,0.7056,0.6602,0.5771,0.5704,0.5634,0.5428,0.5428,0.5428,0.5428,0.5428,0.5428,2.3752,2.4247,2.4881,2.6336,2.7232,2.796,2.8738,2.8924,2.896,2.8975,2.9011,2.8958,2.8909,2.8892,2.8873,2.8943,2.8924,2.896,2.8994,2.8994,2.9019,2.901,2.8003,2.7287,2.7301,2.6287,2.5615,2.5615,2.5615,2.56,2.5555,2.5585,2.5334,2.4684,2.394,2.3237,2.2631,2.186,2.1498,2.1484,2.1485,2.1476,2.1476,2.15,2.1056,2.0237,2.0225,2.0225,2.0109,1.9399,1.8638,1.7861,1.7861,1.7114,1.6086,1.6086,1.5762,1.5469,1.5889,1.5762,1.5478,1.5898,1.5752,1.541,1.541,1.541,1.541,1.541,1.541,1.5235,1.4451,1.4204,1.4213,1.4213,1.3545,1.2512,1.0996,1.0624,1.0624,1.0624,1.0624,1.0624,1.0624,1.0624,1.0624,1.0624,1.0624,1.0624,1.0624,1.0624,1.0268,0.9427,0.9364,0.9024,0.8133,0.8064,0.8059,0.7995,0.7995,0.799,0.7927,0.7947,0.7508,0.6668,0.6602,0.6254,0.5428,0.5428,0.5428,0.5428,0.5428,0.5428,2.3498,2.3853,2.4019,2.5048,2.6201,2.73,2.8061,2.9008,2.9837,3.0294,3.0395,3.0395,3.0395,2.9634,2.9144,2.9634,2.9702,2.9871,3.0345,3.0395,3.0258,2.9884,2.9143,2.8489,2.8105,2.7374,2.6871,2.6871,2.6871,2.6692,2.6258,2.6632,2.6564,2.5938,2.4779,2.3621,2.2405,2.249,2.2539,2.2541,2.2555,2.254,2.254,2.254,2.2404,2.211,2.211,2.1234,1.9655,1.9431,1.9134,1.8775,1.823,1.7707,1.7267,1.6671,1.6396,1.6279,1.6436,1.6396,1.6289,1.6436,1.6387,1.626,1.626,1.626,1.626,1.626,1.626,1.6198,1.588,1.5818,1.5605,1.4821,1.4214,1.3476,1.2381,1.1358,1.0624,1.0624,1.0624,1.0624,1.0624,1.0624,1.0624,1.0624,1.0624,1.0624,1.0624,1.0624,1.0485,1.0192,1.0129,0.999,0.9705,0.9699,0.9699,0.9699,0.9699,0.9421,0.8868,0.8826,0.8393,0.756,0.7503,0.6809,0.5428,0.5428,0.5428,0.5428,0.5428,0.5428,2.2654,2.3204,2.3697,2.4915,2.5778,2.6793,2.8552,2.9364,3.0006,3.0987,3.119,3.119,3.119,3.0395,2.9888,3.0395,3.048,3.0632,3.1123,3.119,3.1036,3.0629,2.9897,2.9249,2.8858,2.8091,2.7625,2.7625,2.7625,2.743,2.6946,2.7335,2.717,2.622,2.5275,2.4082,2.2604,2.2896,2.3078,2.3078,2.3078,2.3078,2.3078,2.3078,2.3078,2.3078,2.3078,2.2163,2.0593,2.0593,2.0414,2.0113,1.9186,1.8603,1.8093,1.7252,1.6855,1.6694,1.6894,1.6855,1.6758,1.6904,1.6855,1.6665,1.6665,1.6665,1.6665,1.6665,1.6665,1.6665,1.6665,1.6665,1.651,1.5686,1.5072,1.4474,1.3978,1.2336,1.0989,1.0989,1.0771,1.0624,1.0624,1.0624,1.0624,1.0624,1.0624,1.0624,1.0624,1.0624,1.0624,1.0624,1.0624,1.0624,1.0624,1.0624,1.0624,1.0624,1.0624,1.0338,0.9775,0.9705,0.9352,0.8455,0.842,0.7741,0.6294,0.5951,0.5701,0.5428,0.5428,0.5428,0.0,0.0,0.0,2.6031,2.6065,2.6522,3.0159,2.9922,2.933,3.0818,3.1123,3.114,3.119,3.119,3.119,3.119,3.119,3.119,3.119,3.119,3.119,3.1157,3.0122,2.9384,2.9335,2.8319,2.7625,2.7625,2.7625,2.7625,2.7625,2.7625,2.6953,2.5458,2.5458,2.4693,2.315,2.315,2.3138,2.3078,2.3078,2.3078,2.3078,2.3078,2.3078,2.3078,2.3078,2.3078,2.3078,2.3078,2.2641,2.1815,2.0974,1.9779,1.8563,1.771,1.7139,1.6826,1.7256,1.7119,1.6836,1.7266,1.7119,1.6768,1.6768,1.6768,1.6768,1.6768,1.6768,1.6768,1.6768,1.6758,1.6748,1.6748,1.6114,1.5553,1.5553,1.3655,1.1877,1.1862,1.1199,1.0624,1.0624,1.0588,1.0601,1.0631,1.0624,1.0624,1.0624,1.0624,1.0624,1.0624,1.0624,1.0624,1.0624,1.0624,1.0624,1.0624,1.0624,1.0624,1.0624,1.0624,1.0199,0.9352,0.9352,0.8931,0.8043,0.7186,0.6324,0.5498,0.5428,0.5428,2.1034,0.0,0.0,0.0,0.0,0.0,2.6132,2.6843,2.7775,2.9287,2.9612,2.9932,3.1026,3.119,3.119,3.119,3.119,3.119,3.119,3.119,3.0875,2.9984,2.9585,2.9079,2.8176,2.781,2.7625,2.7625,2.7625,2.7625,2.7625,2.7625,2.7159,2.6236,2.6224,2.549,2.3974,2.3987,2.3679,2.3078,2.3078,2.3078,2.3078,2.3078,2.3078,2.3078,2.3078,2.3078,2.3078,2.3078,2.2944,2.2628,2.1164,2.0373,1.9878,1.8415,1.7764,1.7676,1.7793,1.7754,1.7676,1.7793,1.7754,1.7656,1.7656,1.7656,1.7656,1.7656,1.7656,1.7656,1.7656,1.7432,1.7207,1.7207,1.6801,1.6365,1.6365,1.5351,1.4106,1.2862,1.1862,1.1199,1.1199,1.1182,1.1214,1.1191,1.1199,1.1199,1.1199,1.0989,1.0911,1.0911,1.0701,1.0624,1.0624,1.0624,1.0624,1.0624,1.0624,1.0624,1.0624,1.0624,1.0485,1.0268,1.0268,0.9838,0.8937,0.8093,0.7508,0.7295,0.6602,0.5981,2.0671,2.1481,2.2462,2.3054,0.0,0.0,2.5963,2.6554,2.7316,2.9455,2.9913,3.0166,3.1021,3.119,3.119,3.119,3.119,3.119,3.119,3.119,3.0926,3.023,2.9697,2.9148,2.8419,2.7906,2.7625,2.7625,2.7625,2.7625,2.7625,2.7625,2.7268,2.6526,2.6203,2.549,2.4305,2.3962,2.3568,2.3078,2.3078,2.3078,2.3078,2.3078,2.3078,2.3078,2.3078,2.3078,2.3078,2.3078,2.3078,2.2944,2.1227,2.059,2.0398,1.8654,1.8008,1.8008,1.8008,1.8008,1.8008,1.8008,1.8008,1.8008,1.8008,1.8008,1.8008,1.8008,1.8008,1.8008,1.8008,1.7832,1.7646,1.7646,1.7451,1.7266,1.7266,1.659,1.5557,1.4233,1.2948,1.2055,1.2055,1.2026,1.1854,1.1431,1.175,1.1899,1.1438,1.1283,1.1176,1.1185,1.1059,1.0918,1.0918,1.0918,1.0918,1.0918,1.0841,1.0841,1.0918,1.0841,1.0841,1.0918,1.0918,1.0694,1.0192,0.9104,0.8197,0.7437,0.656,0.5907,2.0365,2.1184,2.2615,2.3917,2.3274,0.0,2.7334,2.7198,2.7014,2.988,3.0468,3.0518,3.069,3.0762,3.0789,3.0713,3.093,3.1089,3.119,3.119,3.1157,3.1016,3.0068,2.9326,2.9219,2.8253,2.7625,2.7625,2.7625,2.7625,2.7625,2.7625,2.7294,2.6657,2.5988,2.5286,2.453,2.3809,2.3384,2.3248,2.3248,2.3175,2.3078,2.3078,2.3078,2.3078,2.3078,2.3078,2.3078,2.3078,2.3078,2.2944,2.1353,2.0719,2.0398,1.8721,1.8076,1.8008,1.8008,1.8008,1.8008,1.8008,1.8008,1.8008,1.8008,1.8008,1.8008,1.8008,1.8008,1.8008,1.8008,1.8008,1.8008,1.8008,1.8008,1.8008,1.8008,1.7354,1.656,1.5909,1.4385,1.3162,1.3169,1.3153,1.2848,1.1952,1.2505,1.264,1.1797,1.1556,1.1495,1.1458,1.141,1.141,1.141,1.141,1.141,1.141,1.1189,1.1127,1.1361,1.1184,1.1182,1.141,1.141,1.141,1.141,1.0117,0.8673,0.7008,0.6244,0.5841,2.1326,2.1617,2.2378,2.2665,2.2513,0.0,2.341,2.3371,2.3646,2.543,2.5805,2.6177,2.7356,2.8059,2.8254,2.767,2.9111,3.0523,3.1106,3.119,3.0842,2.9861,2.9558,2.9042,2.8061,2.775,2.7625,2.7625,2.7625,2.7625,2.7625,2.7625,2.753,2.7405,2.7265,2.6813,2.6073,2.5918,2.5269,2.4086,2.4086,2.3764,2.3078,2.3078,2.3078,2.3078,2.3078,2.3078,2.3078,2.3078,2.3078,2.3005,2.2002,2.1239,2.0462,1.9431,1.8586,1.8008,1.8008,1.8008,1.8008,1.8008,1.8008,1.8008,1.8008,1.8008,1.8008,1.8008,1.8008,1.8008,1.8008,1.8008,1.8008,1.8008,1.8008,1.8008,1.8008,1.7862,1.7687,1.7562,1.6026,1.4727,1.4744,1.4725,1.4694,1.4466,1.3958,1.3483,1.3307,1.2385,1.1799,1.182,1.1559,1.1397,1.1397,1.1397,1.1397,1.1397,1.1319,1.1378,1.1397,1.1381,1.1319,1.1397,1.1397,1.1397,1.1397,1.1095,1.0335,0.9139,0.919,0.8716,2.1795,2.1735,2.231,2.231,2.231,0.0,0.0,2.3396,2.3825,2.5283,2.559,2.5813,2.6571,2.7002,2.7234,2.7234,2.8528,2.9655,3.004,3.0734,3.0982,3.0387,2.976,2.9169,2.856,2.7936,2.7625,2.7625,2.7625,2.7625,2.7625,2.7625,2.7625,2.7625,2.7265,2.688,2.6481,2.6129,2.5409,2.4292,2.4302,2.3888,2.3078,2.3078,2.3078,2.3078,2.3078,2.3078,2.3078,2.3078,2.3078,2.3005,2.2187,2.1616,2.1164,2.0268,1.9683,1.9299,1.9299,1.8977,1.8654,1.8654,1.8327,1.8008,1.8008,1.8008,1.8008,1.8008,1.8008,1.8008,1.8008,1.8008,1.8008,1.8008,1.8008,1.8008,1.8008,1.8008,1.8008,1.8008,1.7248,1.6417,1.5965,1.5913,1.573,1.5249,1.515,1.496,1.4479,1.3918,1.3564,1.3564,1.3402,1.3314,1.3314,1.3314,1.3314,1.3314,1.2721,1.2446,1.255,1.1984,1.1717,1.1883,1.1883,1.1883,1.1883,1.1871,1.1201,0.988,0.9603,0.9125,2.263,2.226,2.2699,2.2547,2.2502,2.2777,0.0,0.0,0.0,2.5592,2.5844,2.5852,2.5852,2.5974,2.6231,2.6681,2.7759,2.8501,2.8366,2.9597,3.0555,3.0578,2.9887,2.9304,2.9062,2.7906,2.7309,2.756,2.7375,2.7309,2.756,2.7625,2.7625,2.7625,2.703,2.6701,2.6701,2.6111,2.544,2.4737,2.4603,2.4099,2.3305,2.3198,2.3078,2.3078,2.3078,2.3078,2.3078,2.3078,2.3078,2.3017,2.2384,2.2075,2.1815,2.1112,2.0719,2.059,2.059,2.0009,1.9299,1.9299,1.8721,1.8008,1.8008,1.8008,1.8008,1.8008,1.8008,1.8008,1.8008,1.8008,1.8008,1.8008,1.8008,1.8008,1.8008,1.8008,1.8008,1.8008,1.8008,1.7745,1.702,1.6856,1.6597,1.5822,1.6242,1.633,1.5541,1.5348,1.5178,1.5178,1.5178,1.5178,1.5178,1.5178,1.5178,1.5178,1.4221,1.3682,1.3734,1.256,1.2057,1.2305,1.2305,1.2305,1.2305,1.2305,1.1643,1.0398,0.9814,0.9428,2.4944,2.4201,2.4069,2.3427,2.3279,2.3165,2.2671,0.0,2.2609,2.2769,0.0,2.2796,2.2796,0.0,0.0,2.3016,2.5217,2.6725,2.6082,2.7262,2.8252,2.8411,2.9022,2.892,2.7765,2.6547,2.6329,2.7515,2.6482,2.6344,2.753,2.7625,2.7625,2.7625,2.753,2.75,2.75,2.7405,2.7009,2.6214,2.5591,2.4869,2.4118,2.3424,2.3078,2.3078,2.3078,2.3078,2.3078,2.3078,2.3078,2.3078,2.3017,2.2506,2.1877,2.1815,2.1239,2.059,2.059,2.0009,1.9299,1.9299,1.8721,1.8008,1.8008,1.8008,1.8008,1.8008,1.8008,1.8008,1.8008,1.8008,1.8008,1.8008,1.8008,1.8008,1.8008,1.8008,1.8008,1.8008,1.8008,1.7998,1.7842,1.7833,1.7823,1.7736,1.7039,1.6547,1.6464,1.5704,1.5197,1.5197,1.5197,1.5197,1.5197,1.5197,1.5197,1.5197,1.5034,1.459,1.3719,1.2802,1.2298,1.2305,1.2305,1.2305,1.2305,1.2305,1.2057,1.1717,1.184,1.1767,2.5193,2.5115,2.539,2.3789,2.4049,2.427,2.2655,2.231,2.231,2.231,0.0,0.0,0.0,0.0,0.0,0.0,2.4323,2.5338,2.5023,2.6235,2.7358,2.7882,2.7363,2.68,2.6416,2.5893,2.615,2.7514,2.6361,2.6205,2.753,2.7625,2.7625,2.7625,2.8001,2.8181,2.8192,2.8181,2.8003,2.7576,2.6106,2.5222,2.4813,2.3624,2.3078,2.3078,2.3078,2.3078,2.3078,2.3078,2.3078,2.3078,2.3078,2.2884,2.258,2.258,2.2372,2.2051,2.2051,2.1479,2.0655,1.9628,1.9044,1.8654,1.8134,1.8008,1.8008,1.8008,1.8008,1.8008,1.8008,1.8008,1.8008,1.8008,1.8008,1.8008,1.8008,1.8008,1.8008,1.8008,1.8008,1.8008,1.8008,1.8008,1.8008,1.8008,1.7658,1.7387,1.7387,1.7039,1.6847,1.6847,1.6847,1.6847,1.6847,1.6847,1.6847,1.6847,1.6328,1.5339,1.3793,1.3314,1.2889,1.2305,1.2305,1.2305,1.2305,1.2305,1.2224,1.2137,1.2224,1.2224,2.6392,2.6516,2.6768,2.4331,2.4495,2.4764,2.2768,2.2613,2.2841,2.2647,2.2916,0.0,0.0,0.0,2.3004,2.3342,0.0,2.4428,2.4219,2.5129,2.6025,2.666,2.5709,2.5131,2.555,2.5106,2.5528,2.7205,2.5909,2.5879,2.7765,2.7876,2.7936,2.8142,2.8628,2.8853,2.8886,2.8872,2.8827,2.8699,2.6777,2.583,2.5681,2.4231,2.3602,2.3602,2.3602,2.3602,2.3602,2.3602,2.3602,2.3602,2.3602,2.3602,2.3565,2.319,2.3078,2.3078,2.3078,2.2567,2.1616,2.0139,1.9694,1.9562,1.8911,1.8721,1.8654,1.8395,1.8327,1.8269,1.8076,1.8008,1.8008,1.8008,1.8008,1.8008,1.8008,1.8008,1.8008,1.8008,1.8008,1.8008,1.8008,1.8008,1.8008,1.8008,1.8008,1.8008,1.8008,1.8008,1.8008,1.8008,1.8008,1.8008,1.8008,1.8008,1.8008,1.8008,1.7116,1.6008,1.4537,1.3983,1.3395,1.2721,1.2466,1.2305,1.2305,1.2305,1.2305,1.2305,1.2305,1.2305,2.9658,2.8885,2.822,2.5195,2.4486,2.4133,2.2649,2.3407,2.4232,2.3493,2.451,2.5263,2.4574,2.4447,2.4188,2.3511,2.4002,0.0,0.0,2.3483,2.3631,2.4,2.4257,2.4732,2.5523,2.3912,2.3839,2.6438,2.4777,2.5106,2.8394,2.8551,2.8885,2.9535,2.9555,2.9595,2.9566,2.9584,2.9574,2.9548,2.7909,2.7152,2.7047,2.5495,2.477,2.477,2.477,2.477,2.477,2.477,2.477,2.477,2.477,2.477,2.4632,2.354,2.3078,2.3078,2.3078,2.2567,2.1753,2.0846,2.059,2.0526,2.0526,2.0526,2.0333,1.9497,1.9243,1.9044,1.8202,1.8008,1.8008,1.8008,1.8008,1.8008,1.8008,1.8008,1.8008,1.8008,1.8008,1.8008,1.8008,1.8008,1.8008,1.8008,1.8008,1.8008,1.8008,1.8008,1.8008,1.8008,1.8008,1.8008,1.8008,1.8008,1.8008,1.8008,1.7116,1.6597,1.6538,1.4729,1.366,1.366,1.2728,1.2305,1.2305,1.2305,1.2305,1.2305,1.2305,1.2305,3.0742,3.1172,3.1058,2.7563,2.7087,2.6708,2.3714,2.3794,2.4282,2.3547,2.4574,2.5363,2.4618,2.4509,2.4438,2.4154,2.3917,2.3676,0.0,2.2488,2.1892,2.2141,2.3075,2.3486,2.3035,2.3584,2.4524,2.5852,2.5319,2.6002,2.849,2.8595,2.8913,2.9574,3.0011,3.0206,3.0206,3.0193,3.0167,3.0031,2.8099,2.7113,2.6925,2.5461,2.482,2.482,2.482,2.482,2.482,2.482,2.482,2.482,2.482,2.482,2.4782,2.4393,2.4255,2.4255,2.4255,2.4053,2.3597,2.2379,2.2005,2.1806,2.0884,2.059,2.0526,2.0268,1.9748,1.9243,1.8911,1.8462,1.8008,1.8008,1.8008,1.8008,1.8008,1.8008,1.8008,1.8008,1.8008,1.8008,1.8008,1.8008,1.8008,1.8008,1.8008,1.8008,1.8008,1.8008,1.8008,1.8008,1.8008,1.8008,1.8008,1.8008,1.8008,1.8008,1.7736,1.7281,1.6597,1.6008,1.53,1.4688,1.3741,1.3226,1.3226,1.2633,1.2305,1.2305,1.2305,1.2305,3.2142,3.2655,3.2622,2.9429,2.9007,2.8546,2.5321,2.5229,2.559,2.478,2.543,2.6195,2.65,2.5849,2.5355,2.5625,2.4594,2.3541,0.0,2.1613,2.0811,2.0926,2.1807,2.239,2.2372,2.2858,2.3956,2.5825,2.528,2.6096,2.8804,2.8954,2.9334,3.0235,3.0629,3.0878,3.0878,3.0869,3.0672,3.0254,2.8643,2.7618,2.7169,2.5932,2.541,2.541,2.541,2.541,2.541,2.541,2.541,2.541,2.541,2.541,2.536,2.4971,2.482,2.482,2.482,2.482,2.4628,2.3729,2.3478,2.3276,2.2403,2.2104,2.2005,2.1486,2.1113,2.061,1.9716,1.9147,1.8634,1.8301,1.8115,1.8008,1.8008,1.8008,1.8008,1.8008,1.8008,1.8008,1.8008,1.8008,1.8008,1.8008,1.8008,1.8008,1.8008,1.8008,1.8008,1.8008,1.8008,1.8008,1.8008,1.8008,1.8008,1.8008,1.8008,1.7736,1.7116,1.677,1.6339,1.5673,1.4729,1.408,1.3734,1.3065,1.2633,1.2305,1.2305,1.2305]}]]